[[{"header":{"parameterUnit":"m.s-1","parameterCategory":1,"la1":30.6,"la2":28.766,"lo1":-90.7593,"lo2":-88.6598,"dy":0.0162,"dx":0.0183,"nx":116,"ny":114,"refTime":"2024-05-25T12:00:00:Z","depth":0,"parameterNumber":2,"parameterNumberName":"U-component_of_WINDS"},"data":[0.0,0.0,0.0,0.0,0.0,0.0,0.0,0.0,0.0,0.0,0.0,0.0,0.0,0.0,0.0,0.0,0.0,0.0,0.0,0.0,0.0,0.0,0.0,0.0,0.0,0.0,0.0,0.0,0.0,0.0,0.0,0.0,0.0,0.0,0.0,0.0,0.0,0.0,0.0,0.0,0.0,0.0,0.0,0.0,0.0,0.0,0.0,0.0,0.0,0.0,0.0,0.0,0.0,0.0,0.0,0.0,0.0,0.0,0.0,0.0,0.0,0.0,0.0,0.0,0.0,0.0,0.0,0.0,0.0,0.0,0.0,0.0,0.0,0.0,0.0,0.0,0.0,0.0,0.0,0.0,0.0,0.0,0.0,0.0,0.0,0.0,0.0,0.0,0.0,0.0,0.0,0.0,0.0,0.0,0.0,0.0,0.0,0.0,0.0,0.0,0.0,0.0,0.0,0.0,0.0,0.0,0.0,0.0,0.0,0.0,0.0,0.0,0.0,0.0,0.0,0.0,0.0,0.0,0.0,0.0,0.0,0.0,0.0,0.0,0.0,0.0,0.0,0.0,0.0,0.0,0.0,0.0,0.0,0.0,0.0,0.0,0.0,0.0,0.0,0.0,0.0,0.0,0.0,0.0,0.0,0.0,0.0,0.0,0.0,0.0,0.0,0.0,0.0,0.0,0.0,0.0,0.0,0.0,0.0,0.0,0.0,0.0,0.0,0.0,0.0,0.0,0.0,0.0,0.0,0.0,0.0,0.0,0.0,0.0,0.0,0.0,0.0,0.0,0.0,0.0,0.0,0.0,0.0,0.0,0.0,0.0,0.0,0.0,0.0,0.0,0.0,0.0,0.0,0.0,0.0,0.0,0.0,0.0,0.0,0.0,0.0,0.0,0.0,0.0,0.0,0.0,0.0,0.0,0.0,0.0,0.0,0.0,0.0,0.0,0.0,0.0,0.0,0.0,0.0,0.0,0.0,0.0,0.0,0.0,0.0,0.0,0.0,0.0,0.0,0.0,0.0,0.0,0.0,0.0,0.0,0.0,0.0,0.0,0.0,0.0,0.0,0.0,0.0,0.0,0.0,0.0,0.0,0.0,0.0,0.0,0.0,0.0,0.0,0.0,0.0,0.0,0.0,0.0,0.0,0.0,0.0,0.0,0.0,0.0,0.0,0.0,0.0,0.0,0.0,0.0,0.0,0.0,0.0,0.0,0.0,0.0,0.0,0.0,0.0,0.0,0.0,0.0,0.0,0.0,0.0,0.0,0.0,0.0,0.0,0.0,0.0,0.0,0.0,0.0,0.0,0.0,0.0,0.0,0.0,0.0,0.0,0.0,0.0,0.0,0.0,0.0,0.0,0.0,0.0,0.0,0.0,0.0,0.0,0.0,0.0,0.0,0.0,0.0,0.0,0.0,0.0,0.0,0.0,0.0,0.0,0.0,0.0,0.0,0.0,0.0,0.0,0.0,0.0,0.0,0.0,0.0,0.0,0.0,0.0,0.0,0.0,0.0,0.0,0.0,0.0,0.0,0.0,0.0,0.0,0.0,0.0,0.0,0.0,0.0,0.0,0.0,0.0,0.0,0.0,0.0,0.0,0.0,0.0,0.0,0.0,0.0,0.0,0.0,0.0,0.0,0.0,0.0,0.0,0.0,0.0,0.0,0.0,0.0,0.0,0.0,0.0,0.0,0.0,0.0,0.0,0.0,0.0,0.0,0.0,0.0,0.0,0.0,0.0,0.0,0.0,0.0,0.0,0.0,0.0,0.0,0.0,0.0,0.0,0.0,0.0,0.0,0.0,0.0,0.0,0.0,0.0,0.0,0.0,0.0,0.0,0.0,0.0,0.0,0.0,0.0,0.0,0.0,0.0,0.0,0.0,0.0,0.0,0.0,0.0,0.0,0.0,0.0,0.0,0.0,0.0,0.0,0.0,0.0,0.0,0.0,0.0,0.0,0.0,0.0,0.0,0.0,0.0,0.0,0.0,0.0,0.0,0.0,0.0,0.0,0.0,0.0,0.0,0.0,0.0,0.0,0.0,0.0,0.0,0.0,0.0,0.0,0.0,0.0,0.0,0.0,0.0,0.0,0.0,0.0,0.0,0.0,0.0,0.0,0.0,0.0,0.0,0.0,0.0,0.0,0.0,0.0,0.0,0.0,0.0,0.0,0.0,0.0,0.0,0.0,0.0,0.0,0.0,0.0,0.0,0.0,0.0,0.0,0.0,0.0,0.0,0.0,0.0,0.0,0.0,0.0,0.0,0.0,0.0,0.0,0.0,0.0,0.0,0.0,0.0,0.0,0.0,0.0,0.0,0.0,0.0,0.0,0.0,0.0,0.0,0.0,0.0,0.0,0.0,0.0,0.0,0.0,0.0,0.0,0.0,0.0,0.0,0.0,0.0,0.0,0.0,0.0,0.0,0.0,0.0,0.0,0.0,0.0,0.0,0.0,0.0,0.0,0.0,0.0,0.0,0.0,0.0,0.0,0.0,0.0,0.0,0.0,0.0,0.0,0.0,0.0,0.0,0.0,0.0,0.0,0.0,0.0,0.0,0.0,0.0,0.0,0.0,0.0,0.0,0.0,0.0,0.0,0.0,0.0,0.0,0.0,0.0,0.0,0.0,0.0,0.0,0.0,0.0,0.0,0.0,0.0,0.0,0.0,0.0,0.0,0.0,0.0,0.0,0.0,0.0,0.0,0.0,0.0,0.0,0.0,0.0,0.0,0.0,0.0,0.0,0.0,0.0,0.0,0.0,0.0,0.0,0.0,0.0,0.0,0.0,0.0,0.0,0.0,0.0,0.0,0.0,0.0,0.0,0.0,0.0,0.0,0.0,0.0,0.0,0.0,0.0,0.0,0.0,0.0,0.0,0.0,0.0,0.0,0.0,0.0,0.0,0.0,0.0,0.0,0.0,0.0,0.0,0.0,0.0,0.0,0.0,0.0,0.0,0.0,0.0,0.0,0.0,0.0,0.0,0.0,0.0,0.0,0.0,0.0,0.0,0.0,0.0,0.0,0.0,0.0,0.0,0.0,0.0,0.0,0.0,0.0,0.0,0.0,0.0,0.0,0.0,0.0,0.0,0.0,0.0,0.0,0.0,0.0,0.0,0.0,0.0,0.0,0.0,0.0,0.0,0.0,0.0,0.0,0.0,0.0,0.0,0.0,0.0,0.0,0.0,0.0,0.0,0.0,0.0,0.0,0.0,0.0,0.0,0.0,0.0,0.0,0.0,0.0,0.0,0.0,0.0,0.0,0.0,0.0,0.0,0.0,0.0,0.0,0.0,0.0,0.0,0.0,0.0,0.0,0.0,0.0,0.0,0.0,0.0,0.0,0.0,0.0,0.0,0.0,0.0,0.0,0.0,0.0,0.0,0.0,0.0,0.0,0.0,0.0,0.0,0.0,0.0,0.0,0.0,0.0,0.0,0.0,0.0,0.0,0.0,0.0,0.0,0.0,0.0,0.0,0.0,0.0,0.0,0.0,0.0,0.0,0.0,0.0,0.0,0.0,0.0,0.0,0.0,0.0,0.0,0.0,0.0,0.0,0.0,0.0,0.0,0.0,0.0,0.0,0.0,0.0,0.0,0.0,0.0,0.0,0.0,0.0,0.0,0.0,0.0,0.0,0.0,0.0,0.0,0.0,0.0,0.0,0.0,0.0,0.0,0.0,0.0,0.0,0.0,0.0,0.0,0.0,0.0,0.0,0.0,0.0,0.0,0.0,0.0,0.0,0.0,0.0,0.0,0.0,0.0,0.0,0.0,0.0,0.0,0.0,0.0,0.0,0.0,0.0,0.0,0.0,0.0,0.0,0.0,0.0,0.0,0.0,0.0,0.0,0.0,0.0,0.0,0.0,0.0,0.0,0.0,0.0,0.0,0.0,0.0,0.0,0.0,0.0,0.0,0.0,0.0,0.0,0.0,0.0,0.0,0.0,0.0,0.0,0.0,0.0,0.0,0.0,0.0,0.0,0.0,0.0,0.0,0.0,0.0,0.0,0.0,0.0,0.0,0.0,0.0,0.0,0.0,0.0,0.0,0.0,0.0,0.0,0.0,0.0,0.0,0.0,0.0,0.0,0.0,0.0,0.0,0.0,0.0,0.0,0.0,0.0,0.0,0.0,0.0,0.0,0.0,0.0,0.0,0.0,0.0,0.0,0.0,0.0,0.0,0.0,0.0,0.0,0.0,0.0,0.0,0.0,0.0,0.0,0.0,0.0,0.0,0.0,0.0,0.0,0.0,0.0,0.0,0.0,0.0,0.0,0.0,0.0,0.0,0.0,0.0,0.0,0.0,0.0,0.0,0.0,0.0,0.0,0.0,0.0,0.0,0.0,0.0,0.0,0.0,0.0,0.0,0.0,0.0,0.0,0.0,0.0,0.0,0.0,0.0,0.0,0.0,0.0,0.0,0.0,0.0,0.0,0.0,0.0,0.0,0.0,0.0,0.0,0.0,0.0,0.0,0.0,0.0,0.0,0.0,0.0,0.0,0.0,0.0,0.0,0.0,0.0,0.0,0.0,0.0,0.0,0.0,0.0,0.0,0.0,0.0,0.0,0.0,0.0,0.0,0.0,0.0,0.0,0.0,0.0,0.0,0.0,0.0,0.0,0.0,0.0,0.0,0.0,0.0,0.0,0.0,0.0,0.0,0.0,0.0,0.0,0.0,0.0,0.0,0.0,0.0,0.0,0.0,0.0,0.0,0.0,0.0,0.0,0.0,0.0,0.0,0.0,0.0,0.0,0.0,0.0,0.0,0.0,0.0,0.0,0.0,0.0,0.0,0.0,0.0,0.0,0.0,0.0,0.0,0.0,0.0,0.0,0.0,0.0,0.0,0.0,0.0,0.0,0.0,0.0,0.0,0.0,0.0,0.0,0.0,0.0,0.0,0.0,0.0,0.0,0.0,0.0,0.0,0.0,0.0,0.0,0.0,0.0,0.0,0.0,0.0,0.0,0.0,0.0,0.0,0.0,0.0,0.0,0.0,0.0,0.0,0.0,0.0,0.0,0.0,0.0,0.0,0.0,0.0,0.0,0.0,0.0,0.0,0.0,0.0,0.0,0.0,0.0,0.0,0.0,0.0,0.0,0.0,0.0,0.0,0.0,0.0,0.0,0.0,0.0,0.0,0.0,0.0,0.0,0.0,0.0,0.0,0.0,0.0,0.0,0.0,0.0,0.0,0.0,0.0,0.0,0.0,0.0,0.0,0.0,0.0,0.0,0.0,0.0,0.0,0.0,0.0,0.0,0.0,0.0,0.0,0.0,0.0,0.0,0.0,0.0,0.0,0.0,0.0,0.0,0.0,0.0,0.0,0.0,0.0,0.0,0.0,0.0,0.0,0.0,0.0,0.0,0.0,0.0,0.0,0.0,0.0,0.0,0.0,0.0,0.0,0.0,0.0,0.0,0.0,0.0,0.0,0.0,0.0,0.0,0.0,0.0,0.0,0.0,0.0,0.0,0.0,0.0,0.0,0.0,0.0,0.0,0.0,0.0,0.0,0.0,0.0,0.0,0.0,0.0,0.0,0.0,0.0,0.0,0.0,0.0,0.0,0.0,0.0,0.0,0.0,0.0,0.0,0.0,0.0,0.0,0.0,0.0,0.0,0.0,0.0,0.0,0.0,0.0,0.0,0.0,0.0,0.0,0.0,0.0,0.0,0.0,0.0,0.0,0.0,0.0,0.0,0.0,0.0,0.0,0.0,0.0,0.0,0.0,0.0,0.0,0.0,0.0,0.0,0.0,0.0,0.0,0.0,0.0,0.0,0.0,0.0,0.0,0.0,0.0,0.0,0.0,0.0,0.0,0.0,0.0,0.0,0.0,0.0,0.0,0.0,0.0,0.0,0.0,0.0,0.0,0.0,0.0,0.0,0.0,0.0,0.0,0.0,0.0,0.0,0.0,0.0,0.0,0.0,0.0,0.0,0.0,0.0,0.0,0.0,0.0,0.0,0.0,0.0,0.0,0.0,0.0,0.0,0.0,0.0,0.0,0.0,0.0,0.0,0.0,0.0,0.0,0.0,0.0,0.0,0.0,0.0,0.0,0.0,0.0,0.0,0.0,0.0,0.0,0.0,0.0,0.0,0.0,0.0,0.0,0.0,0.0,-0.5602,0.0,0.0,0.0,0.0,0.0,0.0,0.0,0.0,0.0,0.0,0.0,0.0,0.0,0.0,0.0,0.0,0.0,0.0,0.0,0.0,0.0,0.0,0.0,0.0,-0.203,-0.1854,-0.1388,-0.1673,-0.1784,-0.1541,0.0,0.0,0.0,0.0,0.0,-0.1343,-0.1188,-0.1374,-0.1874,-0.1855,-0.2313,-0.3214,-0.3361,-0.2901,-0.1951,0.0,0.0,0.0,0.0,0.0,0.0,0.0,0.0,0.0,0.0,0.0,0.0,0.0,0.0,0.0,0.0,0.0,0.0,0.0,0.0,0.0,0.0,0.0,0.0,0.0,0.0,0.0,0.0,0.0,0.0,0.0,0.0,0.0,0.0,0.0,0.0,0.0,0.0,0.0,0.0,0.0,0.0,0.0,0.0,0.0,0.0,0.0,0.0,0.0,0.0,0.0,0.0,0.0,0.0,0.0,0.0,0.0,0.0,0.0,0.0,0.0,0.0,0.0,0.0,0.0,0.0,0.0,0.0,0.0,0.0,0.0,-0.6661,0.0,0.0,0.0,0.0,0.0,0.0,0.0,0.0,0.0,0.0,0.0,0.0,0.0,0.0,0.0,0.0,0.0,0.0,0.0,0.0,0.0,-0.2237,-0.2114,-0.2162,-0.1997,-0.148,-0.1953,-0.217,-0.1937,-0.1949,0.0,0.0,0.0,-0.141,-0.141,-0.1092,-0.1322,-0.2194,-0.2872,-0.3971,-0.542,-0.5322,-0.431,-0.2584,-0.259,0.0,0.0,0.0,0.0,0.0,0.0,0.0,0.0,0.0,0.0,0.0,0.0,0.0,0.0,0.0,0.0,0.0,0.0,0.0,0.0,0.0,0.0,0.0,0.0,0.0,0.0,0.0,0.0,0.0,0.0,0.0,0.0,0.0,0.0,0.0,0.0,0.0,0.0,0.0,0.0,0.0,0.0,0.0,0.0,0.0,0.0,0.0,0.0,0.0,0.0,0.0,0.0,0.0,0.0,0.0,0.0,0.0,0.0,0.0,0.0,0.0,0.0,0.0,0.0,-0.9519,-0.9742,-0.9539,-0.9906,-1.0606,-0.915,-0.8601,-0.8704,0.0,0.0,0.0,0.0,0.0,0.0,0.0,0.0,0.0,0.0,0.0,0.0,0.0,0.0,0.0,0.0,0.0,0.0,0.0,0.0,-0.2918,-0.2562,-0.2589,-0.2462,-0.203,-0.1875,-0.1724,-0.1582,-0.1466,0.0,0.0,-0.1759,-0.1721,-0.1502,-0.1652,-0.1619,-0.1352,-0.4801,-0.6281,-0.5923,-0.5878,-0.5387,-0.4532,-0.4575,-0.4588,-0.4448,0.0,0.0,0.0,0.0,0.0,0.0,0.0,0.0,0.0,0.0,0.0,0.0,0.0,0.0,0.0,0.0,0.0,0.0,0.0,0.0,0.0,0.0,0.0,0.0,0.0,0.0,0.0,0.0,0.0,0.0,0.0,0.0,0.0,0.0,0.0,0.0,0.0,0.0,0.0,0.0,0.0,-0.4345,-0.4718,0.0,0.0,0.0,0.0,0.0,0.0,0.0,0.0,0.0,0.0,0.0,0.0,0.0,0.0,-0.9291,-0.9767,-1.0309,-1.0924,-1.1093,-1.1257,-1.1361,-1.0997,-1.0888,-1.1034,-1.1027,0.0,-1.0018,-0.9205,0.0,0.0,0.0,0.0,0.0,0.0,0.0,0.0,0.0,0.0,0.0,0.0,0.0,0.0,0.0,0.0,0.0,0.0,0.0,0.0,0.0,-0.2894,-0.3012,-0.2283,-0.2458,-0.2428,-0.2034,-0.1889,-0.176,-0.1651,-0.1803,-0.1844,-0.1735,-0.1583,-0.1939,-0.2825,-0.5323,-0.6462,-0.634,-0.6203,-0.6159,-0.6149,-0.615,-0.5718,-0.4913,-0.4062,0.0,0.0,0.0,0.0,0.0,0.0,0.0,0.0,0.0,0.0,0.0,0.0,0.0,0.0,0.0,0.0,0.0,0.0,0.0,0.0,0.0,0.0,0.0,0.0,0.0,0.0,0.0,0.0,0.0,0.0,0.0,0.0,0.0,0.0,0.0,0.0,0.0,0.0,0.0,-0.4353,-0.5102,-0.535,-0.5653,-0.5674,0.0,0.0,0.0,0.0,0.0,0.0,0.0,0.0,0.0,-0.8765,-0.901,-0.9526,-1.0548,-1.0914,-1.1396,-1.1942,-1.222,-1.259,-1.3134,-1.2889,-1.2978,-1.3304,-1.3439,-1.2945,-1.1973,-1.0876,-1.0133,-0.9482,0.0,0.0,0.0,0.0,0.0,-0.8589,0.0,0.0,0.0,0.0,0.0,0.0,0.0,0.0,0.0,0.0,0.0,0.0,-0.2275,-0.3159,-0.3461,-0.2624,-0.3107,-0.3198,-0.2679,-0.2459,-0.2258,-0.1977,-0.2046,-0.2118,-0.2168,-0.207,-0.2919,-0.4809,-0.5813,-0.6404,-0.6608,-0.6457,-0.6596,-0.6977,-0.6977,-0.6534,-0.5621,-0.4928,-0.4552,-0.4399,0.0,0.0,0.0,0.0,0.0,0.0,0.0,0.0,0.0,0.0,0.0,0.0,0.0,0.0,0.0,0.0,0.0,0.0,0.0,0.0,0.0,0.0,0.0,0.0,0.0,0.0,0.0,0.0,0.0,0.0,0.0,0.0,0.0,0.0,0.0,0.0,0.0,-0.5142,-0.5832,-0.5966,-0.6411,-0.6611,0.0,0.0,0.0,0.0,0.0,0.0,-0.7871,-0.8212,-0.8977,-1.0214,-1.0499,-1.1052,-1.1759,-1.2095,-1.2475,-1.2915,-1.3123,-1.3525,-1.4102,-1.3943,-1.4115,-1.4487,-1.4415,-1.3999,-1.3338,-1.2286,-1.1558,-1.1024,-1.0331,-1.005,-1.0031,-0.9841,-1.0081,-1.0532,0.0,0.0,0.0,0.0,0.0,0.0,0.0,0.0,0.0,0.0,0.0,-0.3103,-0.2959,-0.3399,-0.3572,-0.3263,-0.3554,-0.3632,0.0,-0.3013,-0.28,-0.2652,-0.2591,-0.2676,-0.2932,-0.3717,-0.4971,-0.6681,-0.6733,-0.6754,-0.6686,-0.6686,-0.6691,-0.6701,-0.6701,-0.7052,-0.7506,-0.6454,-0.5984,-0.5876,-0.4456,0.0,0.0,0.0,0.0,0.0,0.0,0.0,0.0,0.0,0.0,0.0,0.0,0.0,0.0,0.0,0.0,0.0,0.0,0.0,0.0,0.0,0.0,0.0,0.0,0.0,0.0,0.0,0.0,0.0,0.0,0.0,0.0,0.0,0.0,0.0,0.0,0.0,0.0,-0.6811,-0.7574,0.0,0.0,0.0,0.0,-0.748,-0.8673,-0.922,-0.8642,-0.9828,-1.0694,-1.123,-1.1814,-1.2662,-1.3536,-1.3668,-1.3956,-1.4506,-1.4084,-1.3839,-1.3857,-1.342,-1.3133,-1.3215,-1.2948,-1.3046,-1.348,-1.2977,-1.2258,-1.1443,-1.1004,-1.0663,-1.0556,-1.1047,-1.1054,-1.0947,0.0,0.0,0.0,0.0,0.0,-0.3372,-0.3364,-0.3372,-0.3254,-0.2874,-0.4238,-0.489,-0.3946,-0.4669,-0.4829,-0.3823,-0.4165,-0.4043,-0.3162,-0.3178,-0.331,-0.3477,-0.3567,-0.3901,-0.4543,-0.5406,-0.6171,-0.6806,-0.655,-0.6598,-0.687,-0.6809,-0.6936,-0.7302,-0.7417,-0.776,-0.8232,-0.7073,-0.6607,-0.6481,-0.5931,-0.5004,0.0,0.0,0.0,0.0,0.0,0.0,0.0,0.0,0.0,0.0,0.0,0.0,0.0,0.0,0.0,0.0,0.0,0.0,0.0,0.0,0.0,0.0,0.0,0.0,0.0,0.0,0.0,0.0,0.0,0.0,0.0,0.0,0.0,0.0,0.0,0.0,0.0,-0.8029,-0.8504,0.0,0.0,-0.908,-0.9331,-0.8986,-0.9959,-1.051,-1.0297,-1.1205,-1.1967,-1.2475,-1.2694,-1.3118,-1.385,-1.351,-1.3696,-1.4419,-1.4235,-1.4328,-1.469,-1.4496,-1.4359,-1.4353,-1.4247,-1.4153,-1.3975,-1.3866,-1.3461,-1.2937,-1.2499,-1.2176,-1.1966,-1.231,-1.2438,-1.2392,0.0,0.0,0.0,0.0,-0.3323,-0.333,-0.3336,-0.3379,-0.3346,-0.3229,-0.4621,-0.5276,-0.4386,-0.5157,-0.5342,-0.4369,-0.4795,-0.4673,-0.3604,-0.3725,-0.3849,-0.389,-0.4286,-0.4892,-0.57,-0.6357,-0.6688,-0.6723,-0.6554,-0.6577,-0.6829,-0.6969,-0.7249,-0.7502,-0.7752,-0.8145,-0.8457,-0.7781,-0.7373,-0.7282,-0.7087,-0.6235,-0.5033,0.0,0.0,0.0,0.0,0.0,0.0,0.0,0.0,0.0,0.0,0.0,0.0,0.0,0.0,0.0,0.0,0.0,0.0,0.0,0.0,0.0,0.0,0.0,0.0,0.0,0.0,0.0,0.0,0.0,0.0,0.0,0.0,0.0,0.0,0.0,-0.8327,-0.8933,-0.937,-0.9673,-0.9652,-1.0257,-1.0598,-1.0478,-1.1405,-1.1853,-1.167,-1.2374,-1.2862,-1.3039,-1.3238,-1.356,-1.4018,-1.375,-1.3884,-1.4427,-1.4327,-1.4514,-1.479,-1.4696,-1.4747,-1.4646,-1.4559,-1.4372,-1.4192,-1.4192,-1.4068,-1.3804,-1.3447,-1.3324,-1.3274,-1.3447,-1.3514,-1.357,0.0,0.0,0.0,-0.3296,-0.3357,-0.3391,-0.3393,-0.3287,-0.3299,-0.3543,-0.3892,-0.4165,-0.4327,-0.4732,-0.4961,-0.4826,-0.5328,-0.5366,-0.4618,-0.4583,-0.4399,-0.3992,-0.4753,-0.556,-0.6374,-0.6521,-0.6597,-0.651,-0.6824,-0.6824,-0.6465,-0.7228,-0.7496,-0.7364,-0.7779,-0.8119,-0.8345,-0.8575,-0.8456,-0.818,-0.7844,-0.7008,-0.591,0.0,0.0,0.0,0.0,0.0,0.0,0.0,0.0,0.0,0.0,0.0,0.0,0.0,0.0,0.0,0.0,0.0,0.0,0.0,0.0,0.0,0.0,0.0,0.0,0.0,0.0,0.0,0.0,0.0,0.0,0.0,0.0,0.0,-0.7195,-0.8281,-0.9202,-0.9524,-1.0172,-1.071,-1.0842,-1.142,-1.1745,-1.1819,-1.3011,-1.3406,-1.2609,-1.3366,-1.3523,-1.2991,-1.3609,-1.4025,-1.4297,-1.4551,-1.4682,-1.4688,-1.44,-1.4298,-1.4286,-1.4032,-1.3918,-1.3906,-1.3646,-1.3682,-1.3918,-1.3918,-1.3918,-1.3918,-1.3912,-1.4057,-1.4274,-1.4286,-1.4286,-1.4298,0.0,0.0,-0.3251,-0.3294,-0.3321,-0.3321,-0.3323,-0.3266,-0.3233,-0.3298,-0.4026,-0.466,-0.4975,-0.5325,-0.53,-0.484,-0.5154,-0.5067,-0.428,-0.4583,-0.4948,-0.5266,-0.6484,-0.7008,-0.6712,-0.6738,-0.6781,-0.6844,-0.6688,-0.6829,-0.7264,-0.7618,-0.7974,-0.8336,-0.8821,-0.9188,-0.9381,-0.9569,-0.9297,-0.8822,-0.8583,-0.797,-0.714,0.0,0.0,0.0,0.0,0.0,0.0,0.0,0.0,0.0,0.0,0.0,0.0,0.0,0.0,0.0,0.0,0.0,0.0,0.0,0.0,0.0,0.0,0.0,0.0,0.0,0.0,0.0,0.0,0.0,0.0,0.0,0.0,-0.8429,-0.8451,-0.9544,-1.035,-1.0547,-1.1234,-1.1727,-1.1802,-1.2311,-1.2552,-1.2355,-1.3073,-1.3239,-1.2631,-1.3405,-1.3733,-1.3385,-1.3902,-1.421,-1.4285,-1.3974,-1.3921,-1.4124,-1.4027,-1.4027,-1.4022,-1.413,-1.4189,-1.4183,-1.4117,-1.4123,-1.4189,-1.4189,-1.4189,-1.4171,-1.3978,-1.3833,-1.3755,-1.3749,-1.385,-1.4027,0.0,-0.3208,-0.3229,-0.3278,-0.3278,-0.3272,-0.3296,-0.3266,-0.3253,-0.3309,-0.4032,-0.466,-0.4984,-0.5259,-0.5292,-0.4965,-0.5102,-0.4936,-0.4265,-0.4473,-0.5151,-0.6252,-0.6856,-0.7052,-0.6918,-0.6707,-0.6663,-0.6799,-0.6759,-0.6925,-0.7369,-0.786,-0.8265,-0.8595,-0.9093,-0.9402,-0.9606,-0.9664,-0.9439,-0.9072,-0.8901,-0.8532,-0.8027,-0.786,-0.7387,-0.6801,-0.6549,-0.6089,-0.5588,-0.5619,0.0,0.0,0.0,0.0,0.0,0.0,0.0,0.0,0.0,0.0,0.0,0.0,0.0,0.0,0.0,0.0,0.0,0.0,0.0,0.0,0.0,0.0,0.0,0.0,-0.8872,-0.9556,-0.9931,-1.0478,-1.1141,-1.1751,-1.2094,-1.2324,-1.2482,-1.2794,-1.2921,-1.2756,-1.3288,-1.3454,-1.3002,-1.3665,-1.3866,-1.3493,-1.3827,-1.3938,-1.3913,-1.3671,-1.3582,-1.3931,-1.3931,-1.3931,-1.4118,-1.4208,-1.4298,0.0,-1.4298,-1.4298,-1.4298,-1.4298,-1.4298,0.0,0.0,0.0,0.0,0.0,-1.3796,-1.3931,0.0,-0.3208,-0.3208,-0.3278,-0.3229,-0.3223,-0.3275,-0.3266,-0.3328,-0.352,-0.3935,-0.4336,-0.4571,-0.4824,-0.4983,-0.5055,-0.5071,-0.4914,0.0,-0.4488,-0.5213,-0.6699,-0.6386,-0.6465,-0.7047,-0.6663,-0.6505,-0.6589,-0.7002,-0.7115,-0.7099,-0.7946,-0.8398,-0.8398,-0.8839,-0.9145,-0.9274,-0.9274,-0.9145,-0.9,-0.8902,-0.878,-0.8528,-0.8549,-0.8349,-0.8045,-0.7899,-0.729,-0.6556,-0.6579,0.0,0.0,0.0,0.0,0.0,0.0,0.0,0.0,0.0,0.0,0.0,0.0,0.0,0.0,0.0,0.0,0.0,0.0,0.0,0.0,0.0,0.0,0.0,0.0,-0.9869,-1.0633,-1.1345,-1.125,-1.1527,-1.2752,-1.2707,-1.2719,-1.3022,-1.301,-1.3042,-1.3074,-1.3511,-1.374,-1.351,0.0,0.0,0.0,0.0,-1.359,-1.3539,-1.3539,-1.3642,-1.3931,-1.3931,-1.4022,-1.4298,-1.4298,-1.4298,-1.4298,-1.4298,-1.4298,-1.4298,-1.4298,-1.4298,-1.4298,-1.4298,-1.4112,-1.3835,-1.3931,-1.3835,0.0,0.0,-0.3208,-0.3208,-0.3208,-0.3208,-0.3208,-0.3223,-0.3132,-0.3226,-0.3695,-0.382,-0.4087,-0.463,-0.474,-0.479,-0.4853,-0.4949,-0.4953,0.0,-0.5555,-0.5745,-0.5225,-0.6312,-0.6881,-0.6761,-0.6761,-0.6853,-0.7089,-0.7023,-0.7145,-0.7447,-0.8077,-0.8331,-0.828,-0.8966,-0.9145,-0.9081,-0.9081,-0.8958,-0.8829,-0.8965,-0.8919,-0.8792,-0.848,-0.8463,-0.8489,-0.8058,-0.7741,-0.7572,-0.7272,-0.6729,-0.6227,-0.6409,0.0,0.0,0.0,0.0,0.0,0.0,0.0,0.0,0.0,0.0,0.0,0.0,0.0,0.0,0.0,0.0,0.0,0.0,0.0,0.0,-0.9981,-1.045,-1.1077,-1.2016,-1.2062,-1.2126,-1.2531,-1.2943,-1.3195,-1.3244,-1.3272,-1.3326,-1.3367,-1.3536,-1.3432,-1.3152,-1.3454,0.0,-1.3145,-1.3642,-1.3782,-1.3835,-1.3835,-1.3835,-1.3931,0.0,0.0,-1.4027,-1.4208,-1.4298,-1.4298,-1.4298,-1.4298,-1.4298,-1.4298,-1.4298,-1.4298,-1.4298,-1.401,-1.3636,-1.3835,-1.3738,-1.3636,-0.3336,-0.3272,-0.3208,-0.3208,-0.3208,-0.3208,-0.3257,-0.3159,-0.3202,-0.347,-0.3906,-0.4341,-0.4726,-0.4888,-0.4985,-0.5017,-0.492,0.0,-0.538,-0.5888,-0.6164,-0.6105,-0.6458,-0.6701,-0.6761,-0.6652,-0.6764,-0.71,-0.71,-0.7333,-0.7674,-0.803,-0.8272,-0.8524,-0.8773,-0.8894,-0.8894,-0.8765,-0.8705,-0.8641,-0.87,-0.882,-0.8823,-0.8883,-0.8871,-0.8837,-0.8463,-0.8171,-0.7852,-0.7498,-0.715,-0.6899,-0.7149,-0.6838,-0.625,0.0,0.0,0.0,0.0,0.0,0.0,0.0,0.0,0.0,0.0,0.0,0.0,0.0,0.0,-0.8166,0.0,0.0,-1.013,-1.0902,-1.1256,-1.17,-1.2492,-1.264,-1.2702,-1.2924,-1.3188,-1.3272,-1.3188,-1.3351,-1.3399,-1.3279,-1.3446,-1.3471,-1.3326,-1.3585,-1.3535,-1.3339,-1.3669,-1.3835,-1.3738,-1.3738,-1.3738,-1.3931,-1.3931,-1.3925,-1.4118,-1.4202,-1.4298,-1.4298,-1.4298,-1.4298,-1.4298,-1.4298,-1.4298,-1.4298,-1.4298,-1.4016,-1.3738,-1.3835,-1.3835,-1.3738,-0.3464,-0.3336,-0.3208,-0.3266,-0.3229,-0.3229,-0.3278,-0.3236,-0.3221,-0.3283,-0.3892,-0.4385,-0.4569,-0.4803,-0.496,-0.4962,-0.4754,0.0,-0.5818,-0.5934,-0.6358,-0.7235,-0.6652,-0.6505,-0.6882,-0.6663,-0.6774,-0.7229,-0.7381,-0.765,-0.8027,-0.8074,-0.8328,-0.8705,-0.8641,-0.8646,-0.8705,-0.8582,-0.8517,-0.8517,-0.8517,-0.8582,-0.8765,-0.9151,-0.9188,-0.8973,-0.8777,-0.834,-0.7852,-0.7546,-0.7365,-0.7419,-0.7741,-0.76,-0.724,-0.6913,-0.6776,0.0,0.0,0.0,0.0,0.0,0.0,0.0,0.0,0.0,-0.7663,-0.8178,-0.8737,-0.9389,-1.0299,-1.0609,-1.1019,-1.1749,-1.1958,-1.224,-1.2816,-1.3007,-1.3169,-1.3444,-1.3368,-1.3316,-1.3203,-1.3386,-1.3397,-1.3105,-1.3359,-1.3456,-1.3502,-1.3718,-1.3738,-1.3539,-1.3738,-1.3835,-1.3539,-1.3636,-1.3732,-1.4027,-1.4027,-1.4112,-1.4298,-1.4298,-1.4298,-1.4298,-1.4298,-1.4298,-1.4298,-1.4298,-1.4298,-1.4298,-1.4298,-1.4208,-1.4027,-1.4027,-1.3931,-1.3931,0.0,-0.3336,-0.3266,-0.3507,-0.3351,-0.3229,-0.3278,-0.3236,-0.3277,-0.3537,-0.3428,-0.3484,-0.3782,-0.381,-0.3882,-0.4123,-0.4311,-0.4788,-0.5657,-0.5881,-0.6257,-0.674,-0.6701,-0.6853,-0.7228,-0.7233,-0.7464,-0.7993,-0.8144,-0.827,-0.8331,-0.8557,-0.8613,-0.8517,-0.8705,-0.8705,-0.8517,-0.8517,-0.8517,-0.8517,-0.8517,-0.8517,-0.8554,-0.8532,-0.8618,-0.874,-0.8473,-0.8161,-0.7796,-0.7329,-0.73,-0.7467,-0.7521,-0.7605,-0.7576,-0.7251,0.0,-0.6996,-0.643,-0.6547,-0.7026,-0.7768,-0.7812,-0.7835,0.0,0.0,-0.8733,-0.9494,-1.0111,-1.0673,-1.1429,-1.1631,-1.1768,-1.2272,-1.226,-1.2382,-1.2939,-1.313,-1.3335,-1.362,-1.3535,-1.336,-1.3392,-1.3473,-1.3383,-1.3085,-1.3361,-1.3531,-1.3482,-1.3528,-1.3539,-1.3539,-1.3738,-1.3931,-1.3835,-1.4112,-1.4202,-1.4298,-1.4298,-1.4298,-1.4298,-1.4298,-1.4298,-1.4298,-1.4298,-1.4298,-1.4298,-1.4298,-1.4298,-1.4298,-1.4298,-1.4298,-1.4298,-1.4298,-1.4118,-1.3931,0.0,-0.3626,-0.3457,-0.3723,-0.345,-0.3208,-0.3229,-0.3187,-0.3201,-0.336,-0.3436,-0.3573,-0.3749,-0.4043,-0.4184,-0.4005,-0.444,-0.494,-0.5468,-0.5845,-0.6243,-0.6799,-0.649,-0.6425,-0.6789,-0.6869,-0.7155,-0.7677,-0.8088,-0.8465,-0.873,-0.8784,-0.8829,-0.8958,-0.8958,-0.8894,-0.8765,-0.8765,-0.8765,-0.8765,-0.8765,-0.8765,-0.8801,-0.8623,-0.8504,-0.8406,-0.8137,-0.7977,0.0,0.0,-0.7359,-0.7419,-0.758,-0.7681,-0.7706,-0.7612,-0.7868,0.0,-0.8111,-0.8131,0.0,0.0,-0.8943,-0.913,-0.975,-0.989,-1.0103,-1.0863,-1.1281,-1.1774,-1.2296,-1.2369,-1.244,0.0,-1.2656,-1.2663,-1.3385,-1.3322,-1.3291,-1.3412,-1.3296,-1.3307,-1.3392,-1.3623,-1.3572,-1.3132,-1.3526,-1.3617,-1.3534,-1.3636,-1.3738,-1.3738,-1.4022,-1.4112,-1.4112,-1.4202,-1.4298,-1.4298,-1.4298,-1.4298,-1.4298,-1.4298,-1.4298,-1.4298,-1.4298,-1.4298,-1.4298,-1.4298,-1.4298,-1.4298,-1.4298,-1.4298,-1.4316,-1.4479,-1.4346,-1.4136,0.0,-0.3877,-0.364,-0.3841,-0.3605,-0.3336,-0.3208,-0.3138,-0.3111,-0.3245,-0.3395,-0.3534,-0.3597,-0.3993,-0.4108,-0.3815,-0.4204,-0.4707,-0.5234,-0.5703,-0.6201,-0.6711,-0.6406,-0.6301,-0.6469,-0.6572,-0.6924,-0.7677,-0.8083,-0.8684,-0.9244,-0.9075,-0.9174,-0.9421,-0.9116,-0.9017,-0.9017,-0.9017,-0.9017,-0.9011,-0.8884,-0.8856,-0.888,-0.8504,-0.8232,-0.8052,-0.7908,-0.7793,0.0,0.0,-0.7308,-0.7423,-0.7535,-0.7629,-0.7794,-0.7985,-0.8361,-0.8783,-0.9055,0.0,0.0,-0.9645,-1.0013,-1.0355,-1.0619,-1.0932,-1.1297,-1.1833,-1.2123,-1.2395,-1.2771,-1.2651,0.0,-1.3224,-1.2968,-1.3031,-1.3762,-1.3448,-1.3237,-1.3291,-1.3207,-1.3146,-1.33,-1.358,-1.3525,-1.3047,-1.3467,-1.3657,-1.3534,-1.3738,-1.3931,-1.4027,-1.4208,-1.4298,-1.4298,-1.4298,-1.4298,-1.4298,-1.4298,-1.4298,-1.4298,-1.4298,-1.4298,-1.4298,-1.4298,-1.4298,-1.4298,-1.4298,-1.4298,-1.4298,-1.4298,-1.4298,-1.4334,-1.4612,-1.4539,-1.4328,0.0,0.0,-0.3792,-0.3792,-0.3793,-0.3654,-0.3251,-0.3089,-0.3105,-0.3366,-0.3181,-0.3052,-0.3122,-0.3085,-0.31,-0.3205,-0.3365,-0.3884,-0.4939,-0.5585,-0.6049,-0.6314,-0.6536,-0.6644,-0.6578,-0.6592,-0.7155,-0.8257,-0.8545,-0.9136,-0.9976,-0.9627,-0.9572,-0.964,-0.922,-0.9017,-0.9017,-0.9017,-0.9017,-0.9,-0.8578,-0.8477,-0.8544,-0.7766,-0.7489,-0.7538,-0.7687,0.0,-0.7273,-0.6864,-0.7086,-0.7562,-0.732,-0.7541,0.0,-0.8263,-0.8403,-0.8444,0.0,0.0,-0.9569,-1.0479,-1.094,-1.1368,-1.1694,-1.198,-1.2131,-1.2197,-1.242,-1.2559,-1.2651,-1.2412,-1.2507,-1.3056,-1.313,-1.3238,-1.3795,-1.3573,-1.3392,-1.3385,-1.3156,-1.3016,0.0,-1.3144,-1.2969,-1.2757,-1.32,-1.3555,-1.3528,-1.3738,-1.4022,-1.4298,-1.4298,-1.4298,-1.4298,-1.4298,-1.4298,-1.4298,-1.4298,-1.4298,-1.4298,-1.4298,-1.4298,-1.4298,-1.4298,-1.4298,-1.4298,-1.4298,-1.4298,-1.4298,-1.4298,-1.4298,-1.4334,-1.4612,-1.4539,-1.4298,0.0,0.0,0.0,-0.3765,-0.3731,-0.3563,-0.308,-0.3111,-0.3211,-0.3266,-0.3345,0.0,0.0,0.0,0.0,0.0,-0.4029,-0.4569,-0.4536,-0.5983,-0.6886,-0.6944,-0.7471,-0.7741,-0.772,-0.7728,-0.7977,-0.8411,-0.8875,-0.9427,-1.0006,-0.9818,-0.9813,-1.0041,-0.9788,-0.9708,-0.9768,-0.9708,-0.9825,-1.003,-0.9276,-0.9095,-0.9193,-0.8028,-0.7577,-0.7534,0.0,0.0,-0.6924,-0.6693,-0.6982,-0.753,-0.7802,0.0,0.0,-0.8441,-0.8588,-0.8715,0.0,0.0,-1.0414,-1.1169,-1.1646,-1.2074,-1.2694,-1.2622,-1.2518,-1.2889,-1.2589,-1.2356,-1.2356,-1.2359,-1.2513,-1.3049,-1.2966,-1.3071,-1.3808,-1.3317,-1.2899,-1.2977,-1.3033,0.0,0.0,0.0,0.0,-1.3269,-1.3572,-1.3738,-1.3721,-1.4022,-1.4208,-1.4298,-1.4298,-1.4298,-1.4298,-1.4298,-1.4298,-1.4298,-1.4298,-1.4298,-1.4298,-1.4298,-1.4298,-1.4298,-1.4298,-1.4298,-1.4298,-1.4298,-1.4298,-1.4298,-1.4298,-1.4298,-1.431,-1.4401,-1.4588,-1.4881,0.0,0.0,0.0,0.0,0.0,0.0,0.0,0.0,0.0,0.0,0.0,0.0,0.0,0.0,0.0,0.0,0.0,0.0,-0.4649,-0.6019,-0.6896,-0.6951,-0.7356,-0.7592,-0.7679,-0.7512,-0.7753,-0.8324,-0.8723,-0.9357,-1.0077,-0.9967,-1.0073,-1.0243,-1.0065,-1.0057,-1.0164,-1.0057,-1.0168,-1.0432,-0.9499,-0.9282,-0.9336,-0.8003,-0.7489,0.0,0.0,-0.6473,-0.6446,-0.6406,-0.6781,-0.7292,-0.7599,-0.7958,-0.8312,-0.8633,-0.8789,-0.9096,-1.008,-1.0604,-1.1046,-1.2045,-1.2508,-1.275,-1.3218,-1.3087,-1.2792,-1.2642,-1.2202,-1.1776,-1.1573,-1.1465,-1.1717,-1.263,-1.2594,-1.2766,-1.3597,-1.3136,-1.2729,-1.2726,-1.2851,0.0,0.0,0.0,0.0,-1.3361,-1.3665,-1.3932,-1.3919,-1.4112,-1.4298,-1.4298,-1.4298,-1.4298,-1.4298,-1.4298,-1.4298,-1.4298,-1.4298,-1.4298,-1.4298,-1.4298,-1.4298,-1.4298,-1.4298,-1.4298,-1.4298,-1.4298,-1.4298,-1.4298,-1.4298,-1.4298,-1.431,-1.4503,-1.4838,-1.5115,0.0,0.0,0.0,0.0,0.0,0.0,0.0,0.0,0.0,0.0,0.0,0.0,0.0,0.0,0.0,0.0,0.0,0.0,-0.5155,-0.5764,-0.622,-0.6355,-0.6331,-0.6415,-0.6687,-0.6235,-0.6667,-0.8044,-0.8238,-0.8996,-1.0269,-1.0166,-1.0201,-1.0378,-1.0066,-1.0073,-1.0187,-1.0023,-1.0087,-1.0158,-0.9333,-0.9051,-0.8951,-0.7713,0.0,0.0,0.0,0.0,0.0,0.0,0.0,0.0,0.0,0.0,0.0,-0.8854,-0.9089,-0.9548,-1.1013,-1.1272,-1.1489,-1.2914,-1.3316,-1.3297,-1.3297,-1.3205,-1.2851,-1.1563,-1.1112,-1.0841,0.0,0.0,-1.0426,-1.1883,-1.1976,-1.2282,-1.3326,-1.3031,-1.2711,0.0,0.0,0.0,0.0,0.0,0.0,-1.3168,0.0,-1.3932,-1.3919,-1.4208,-1.4298,-1.4298,-1.4298,-1.4298,-1.4298,-1.4298,-1.4298,-1.4298,-1.4298,-1.4298,-1.4298,-1.4298,-1.4298,-1.4298,-1.4298,-1.4298,-1.4298,-1.4298,-1.4298,-1.4298,-1.4298,-1.4304,-1.4449,-1.49,-1.5109,-1.5233,0.0,0.0,0.0,0.0,0.0,0.0,0.0,0.0,0.0,0.0,0.0,0.0,0.0,0.0,0.0,0.0,0.0,0.0,0.0,-0.6009,-0.683,-0.6966,-0.7539,-0.7878,-0.7953,-0.7643,-0.7766,-0.8431,-0.8483,-0.8921,-0.9621,-0.9523,-0.957,-0.9779,-0.9719,-0.98,-0.9889,-0.9792,-0.999,-1.0195,0.0,-0.8889,-0.9005,0.0,0.0,0.0,0.0,0.0,0.0,0.0,0.0,0.0,0.0,0.0,-0.8937,0.0,0.0,-1.0128,-1.0682,-1.1544,-1.2462,-1.314,-1.3182,-1.3142,-1.3291,-1.2461,-1.1579,-1.1237,-1.0319,-0.9558,0.0,0.0,0.0,-1.0979,-1.1682,0.0,-1.2813,-1.2789,0.0,-1.2988,0.0,-1.3064,-1.3411,-1.3653,0.0,0.0,-1.3863,-1.402,-1.4196,-1.4298,-1.4298,-1.4298,-1.4298,-1.4298,-1.4298,-1.4298,-1.4298,-1.4298,-1.4298,-1.4298,-1.4298,-1.4298,-1.4298,-1.4298,-1.4298,-1.4298,-1.4298,-1.4298,-1.4298,-1.4298,-1.4298,-1.4715,-1.5199,-1.5164,-1.5751,-1.6718,0.0,0.0,0.0,0.0,0.0,0.0,0.0,0.0,0.0,0.0,0.0,0.0,0.0,0.0,0.0,0.0,0.0,0.0,0.0,-0.5887,-0.6602,-0.6612,-0.7062,-0.7389,-0.7545,-0.738,-0.7431,-0.7754,0.0,0.0,-0.8718,-0.8725,-0.8909,-0.9144,-0.9144,-0.9275,-0.9493,-0.9398,0.0,0.0,0.0,0.0,0.0,0.0,0.0,0.0,0.0,0.0,0.0,0.0,0.0,-0.8074,-0.8398,-0.8819,-0.9112,-0.9233,0.0,-1.0402,-1.1279,-1.2176,-1.2902,-1.3231,-1.3246,-1.3015,-1.2498,-1.1655,-1.0916,-1.0293,-0.9531,0.0,0.0,0.0,0.0,0.0,0.0,0.0,-1.2753,-1.2899,-1.2859,0.0,-1.3272,0.0,-1.3499,-1.3874,-1.4052,0.0,-1.4081,-1.4141,-1.4292,-1.4298,-1.4298,-1.4298,-1.4298,-1.4298,-1.4298,-1.4298,-1.4298,-1.4298,-1.4298,-1.4298,-1.4298,-1.4298,-1.4298,-1.4298,0.0,-1.4298,-1.4298,-1.4298,-1.4298,-1.4298,-1.4298,-1.4758,-1.5509,-1.5623,-1.6345,-1.7367,0.0,0.0,0.0,0.0,0.0,0.0,0.0,0.0,0.0,0.0,-0.3988,0.0,0.0,0.0,0.0,0.0,0.0,0.0,0.0,0.0,0.0,-0.5967,-0.5911,-0.6027,-0.6355,-0.6275,-0.6392,0.0,0.0,0.0,0.0,0.0,0.0,0.0,0.0,0.0,0.0,0.0,0.0,0.0,0.0,0.0,0.0,0.0,0.0,0.0,0.0,0.0,0.0,0.0,-0.761,-0.8149,-0.8896,-0.9115,-0.9236,-1.0018,-1.0313,-1.0701,-1.212,-1.28,-1.3118,-1.3276,-1.3207,-1.273,-1.1376,-1.0956,-1.0492,-0.9282,0.0,-0.8673,-0.8719,-0.854,-0.8961,-1.0855,0.0,-1.1328,-1.2816,-1.3071,-1.3009,-1.2809,-1.3391,-1.3788,-1.3661,-1.3969,-1.4298,-1.4298,-1.4298,-1.4298,-1.4298,-1.4298,-1.4298,-1.4298,-1.4298,-1.4298,-1.4298,-1.4298,-1.4298,-1.4298,-1.4298,-1.4298,-1.4298,-1.4298,-1.4298,-1.4298,0.0,0.0,-1.4298,-1.443,-1.4443,-1.4449,-1.4582,-1.5155,-1.5927,-1.6367,-1.7049,-1.7853,0.0,0.0,0.0,0.0,0.0,0.0,0.0,0.0,0.0,0.0,-0.4074,-0.3952,0.0,0.0,0.0,0.0,0.0,0.0,0.0,0.0,0.0,-0.6271,-0.5928,-0.5705,-0.5664,0.0,0.0,0.0,0.0,0.0,0.0,0.0,0.0,0.0,0.0,0.0,0.0,0.0,0.0,0.0,0.0,0.0,0.0,0.0,0.0,0.0,0.0,0.0,0.0,0.0,-0.7883,-0.8173,-0.8862,-0.9332,-0.9647,-0.9871,-1.0718,-1.1704,-1.1976,-1.2845,-1.3484,-1.3271,-1.2739,-1.1998,-1.1128,-1.0276,0.0,0.0,0.0,-0.8603,-0.8504,-0.8629,0.0,-1.029,0.0,0.0,0.0,0.0,-1.312,0.0,0.0,0.0,0.0,0.0,0.0,0.0,0.0,0.0,-1.4298,-1.4298,-1.4298,-1.4298,-1.4298,-1.4298,-1.4298,-1.4298,-1.4298,-1.4298,-1.4298,-1.4298,-1.4298,-1.4298,-1.4298,-1.4298,0.0,0.0,-1.4316,-1.5014,-1.531,-1.5347,-1.6071,-1.6841,-1.7509,-1.7449,-1.7977,-1.8686,0.0,0.0,0.0,0.0,0.0,0.0,0.0,-0.4494,-0.4688,-0.4664,-0.4694,-0.4622,-0.4305,-0.4115,-0.4022,0.0,0.0,0.0,0.0,0.0,0.0,0.0,0.0,0.0,0.0,0.0,0.0,0.0,0.0,0.0,0.0,0.0,0.0,0.0,0.0,0.0,0.0,0.0,0.0,0.0,0.0,0.0,0.0,0.0,0.0,0.0,0.0,0.0,0.0,0.0,-0.8022,-0.8125,-0.8948,-0.9423,-0.9794,-1.0026,-1.0775,-1.1629,-1.1979,-1.2932,-1.3574,-1.3004,-1.2388,-1.156,-1.0463,0.0,0.0,0.0,0.0,-0.8521,-0.8321,0.0,0.0,0.0,0.0,0.0,0.0,0.0,0.0,0.0,0.0,0.0,0.0,0.0,0.0,0.0,0.0,0.0,-1.4118,-1.4112,-1.4208,-1.4298,-1.4298,-1.4298,-1.4298,-1.4298,-1.4298,-1.4298,-1.4734,-1.4892,-1.4983,-1.5433,-1.5601,-1.5601,-1.5601,0.0,-1.5614,-1.6038,-1.6203,-1.6222,-1.666,-1.7298,-1.7967,-1.7865,-1.837,-1.9078,0.0,0.0,0.0,0.0,0.0,0.0,0.0,-0.4587,-0.4777,-0.5163,-0.5431,-0.5374,-0.4808,-0.4442,-0.4204,0.0,0.0,0.0,0.0,0.0,0.0,0.0,0.0,0.0,0.0,0.0,0.0,0.0,0.0,0.0,0.0,0.0,0.0,0.0,0.0,0.0,0.0,0.0,0.0,0.0,0.0,0.0,0.0,0.0,0.0,0.0,0.0,0.0,0.0,0.0,-0.82,-0.8225,-0.8914,-0.9379,-0.9708,-1.0095,-1.0737,-1.1459,-1.2016,-1.2872,-1.3387,-1.2713,-1.2087,-1.1296,-0.9781,-0.9182,0.0,0.0,-0.8474,-0.8633,-0.8381,0.0,0.0,0.0,0.0,0.0,0.0,0.0,0.0,0.0,0.0,0.0,0.0,0.0,0.0,0.0,0.0,0.0,0.0,-1.3931,-1.4142,-1.4576,-1.4424,-1.4418,-1.4576,-1.4576,-1.4576,-1.4576,-1.5347,-1.5776,-1.5763,-1.6507,-1.682,-1.682,0.0,0.0,0.0,-1.6988,-1.7008,-1.7123,-1.7285,-1.7761,-1.8278,-1.8278,-1.8743,-1.9279,0.0,0.0,0.0,0.0,0.0,0.0,0.0,-0.5046,-0.5577,-0.6093,-0.605,-0.584,-0.5525,-0.5189,-0.4734,0.0,0.0,0.0,0.0,0.0,0.0,0.0,0.0,0.0,0.0,0.0,0.0,0.0,0.0,0.0,0.0,0.0,0.0,0.0,0.0,0.0,0.0,0.0,0.0,0.0,0.0,0.0,0.0,0.0,0.0,0.0,0.0,0.0,0.0,0.0,0.0,-0.8781,-0.8572,-0.8788,-0.9254,-0.9719,0.0,0.0,-1.1926,-1.259,-1.3052,-1.2314,-1.1697,-1.0944,-0.9687,0.0,0.0,-0.858,-0.8791,-0.8903,-0.8752,-0.8659,0.0,0.0,0.0,0.0,0.0,0.0,0.0,0.0,0.0,0.0,0.0,0.0,0.0,0.0,0.0,0.0,0.0,-1.4022,-1.4328,-1.5347,-1.4715,-1.4606,-1.5354,-1.536,-1.5347,-1.5433,-1.6229,-1.6673,-1.6673,-1.68,-1.682,-1.682,0.0,0.0,0.0,-1.7611,-1.7925,-1.7953,-1.8758,-1.9102,-1.9228,-1.9228,-1.925,-1.9279,0.0,0.0,0.0,0.0,0.0,0.0,-0.4365,-0.468,-0.5095,-0.5676,-0.5963,-0.5982,-0.5633,-0.5522,-0.506,-0.4035,0.0,0.0,0.0,0.0,0.0,0.0,0.0,0.0,0.0,0.0,0.0,0.0,0.0,0.0,0.0,0.0,0.0,0.0,0.0,0.0,0.0,0.0,0.0,0.0,0.0,0.0,0.0,0.0,0.0,0.0,0.0,0.0,0.0,0.0,0.0,0.0,-0.8105,-0.8319,0.0,0.0,-0.9987,-1.0553,-1.1269,-1.2026,-1.2446,-1.2086,-1.1228,-1.035,-0.9801,0.0,-0.8559,-0.858,-0.8791,-0.8956,-0.8745,-0.8692,-0.8751,-0.8764,-0.8795,-0.9191,0.0,0.0,0.0,0.0,0.0,0.0,0.0,0.0,0.0,0.0,0.0,0.0,0.0,-1.4558,-1.4783,-1.5477,-1.5738,-1.5927,-1.6242,-1.6242,-1.6242,-1.6335,-1.7136,-1.7482,-1.7489,-1.8091,-1.8271,-1.8271,0.0,0.0,0.0,-1.8611,-1.8772,-1.8786,-1.9124,-1.9279,-1.9279,-1.9279,-1.9279,-1.9279,0.0,0.0,0.0,0.0,0.0,-0.4094,-0.4342,-0.4471,-0.477,-0.5413,-0.5698,-0.5816,-0.5633,-0.544,-0.5004,-0.4141,-0.397,0.0,0.0,0.0,0.0,0.0,0.0,0.0,0.0,0.0,0.0,0.0,-0.5356,0.0,0.0,0.0,0.0,0.0,0.0,0.0,0.0,0.0,0.0,0.0,0.0,0.0,0.0,0.0,0.0,0.0,0.0,0.0,0.0,0.0,0.0,0.0,0.0,0.0,0.0,0.0,-0.9315,-0.9921,-1.0548,-1.1237,-1.1721,-1.1508,-1.0753,-0.9952,0.0,-0.8966,-0.844,-0.8573,-0.8791,-0.8903,-0.8685,-0.8692,-0.8639,-0.8321,-0.823,-0.8502,-0.9295,0.0,0.0,0.0,0.0,0.0,0.0,0.0,0.0,0.0,0.0,0.0,0.0,-1.5045,-1.5417,-1.5986,-1.65,-1.6961,-1.7143,-1.715,-1.715,-1.715,-1.796,-1.8416,-1.8423,-1.9066,-1.9279,0.0,0.0,0.0,0.0,-1.9073,-1.9029,-1.9022,-1.8825,-1.8788,-1.8788,-1.8788,-1.8788,-1.8788,0.0,0.0,0.0,0.0,0.0,0.0,-0.4533,-0.4611,-0.4876,-0.5593,-0.5362,-0.5238,-0.5579,-0.4945,-0.4517,-0.4486,-0.4126,0.0,0.0,0.0,0.0,0.0,0.0,0.0,0.0,0.0,-0.5029,-0.5297,-0.5551,-0.5617,0.0,0.0,0.0,0.0,0.0,0.0,0.0,0.0,0.0,0.0,0.0,0.0,0.0,0.0,0.0,0.0,0.0,0.0,0.0,0.0,0.0,0.0,0.0,0.0,0.0,0.0,-0.8616,-0.9637,-0.9838,-1.0396,-1.0842,-1.0436,-1.0134,-0.9791,0.0,-0.8791,-0.8421,-0.8573,-0.8692,-0.8804,-0.8804,-0.8692,-0.8573,-0.8421,-0.833,-0.8471,-0.9053,0.0,0.0,0.0,0.0,0.0,0.0,0.0,0.0,0.0,0.0,0.0,0.0,0.0,-1.6295,-1.7186,-1.6907,-1.7157,-1.796,-1.7967,-1.7967,-1.7967,-1.8904,-1.9272,-1.9272,-1.9279,0.0,0.0,0.0,0.0,0.0,-1.8628,-1.8404,-1.8368,-1.7846,-1.7626,-1.7626,-1.7626,-1.7626,-1.7626,0.0,0.0,0.0,0.0,0.0,0.0,0.0,-0.4182,-0.4357,-0.4811,-0.4763,-0.484,-0.5231,-0.4793,-0.4486,-0.4486,-0.4097,0.0,0.0,0.0,0.0,0.0,0.0,0.0,0.0,-0.4879,-0.5083,-0.5432,-0.5617,-0.5765,-0.5842,0.0,0.0,0.0,0.0,0.0,0.0,0.0,0.0,0.0,0.0,0.0,0.0,0.0,0.0,0.0,0.0,0.0,0.0,0.0,0.0,0.0,0.0,0.0,0.0,-0.7128,0.0,0.0,-0.9071,-0.9426,-0.9687,-0.9885,-0.9523,-0.918,-0.9297,-0.8825,-0.848,-0.8692,-0.8752,-0.8804,-0.8804,-0.8752,-0.8705,-0.8677,-0.8669,0.0,0.0,0.0,0.0,0.0,0.0,0.0,0.0,0.0,0.0,0.0,0.0,0.0,0.0,0.0,-1.6701,-1.7193,-1.7622,-1.8186,-1.8911,-1.8911,-1.8911,-1.8911,-1.9124,-1.9279,-1.9279,-1.9279,0.0,0.0,0.0,0.0,0.0,-1.7909,-1.7867,-1.786,-1.7654,-1.7619,-1.7619,-1.7619,-1.7619,-1.7619,0.0,0.0,0.0,0.0,0.0,0.0,0.0,-0.4022,-0.409,-0.4208,-0.4268,-0.4418,-0.4768,-0.4486,-0.432,-0.4479,-0.4053,0.0,0.0,0.0,0.0,0.0,0.0,0.0,-0.4688,-0.4758,-0.5034,-0.5546,-0.5785,-0.5996,-0.6139,-0.6137,-0.6025,0.0,0.0,0.0,0.0,0.0,0.0,0.0,0.0,0.0,0.0,0.0,0.0,0.0,0.0,0.0,0.0,0.0,0.0,0.0,0.0,0.0,0.0,0.0,-0.6811,-0.7218,0.0,-0.8747,-0.911,-0.935,-0.9063,-0.8821,-0.8929,-0.8577,-0.8294,-0.8344,-0.8454,-0.8586,-0.8586,-0.8672,-0.8698,-0.8651,-0.8629,0.0,0.0,0.0,0.0,0.0,0.0,0.0,0.0,0.0,0.0,0.0,0.0,0.0,0.0,0.0,-1.6538,-1.7028,-1.7746,-1.8368,-1.8993,-1.8993,-1.9051,-1.9279,-1.9279,-1.9213,-1.8993,0.0,0.0,0.0,0.0,0.0,0.0,-1.7393,-1.7246,-1.7239,-1.7016,-1.6869,-1.6869,-1.6869,-1.6869,-1.6869,0.0,0.0,0.0,0.0,0.0,0.0,0.0,-0.4055,-0.4035,-0.3842,-0.3856,-0.4001,-0.4251,-0.4046,-0.4059,-0.4426,0.0,0.0,0.0,0.0,0.0,0.0,0.0,0.0,-0.4313,-0.4522,-0.4936,-0.5607,-0.6012,-0.6296,-0.6448,-0.6782,-0.6514,-0.5746,-0.5787,0.0,0.0,0.0,0.0,0.0,0.0,0.0,0.0,0.0,0.0,0.0,0.0,0.0,0.0,0.0,0.0,0.0,0.0,0.0,0.0,0.0,0.0,0.0,0.0,-0.8241,0.0,0.0,-0.8632,-0.8593,-0.826,-0.8073,0.0,-0.7647,-0.7911,-0.82,-0.82,-0.8436,-0.858,-0.8447,-0.8312,0.0,0.0,0.0,0.0,0.0,0.0,0.0,0.0,0.0,0.0,0.0,0.0,0.0,0.0,0.0,0.0,-1.6635,-1.7204,-1.771,-1.8361,-1.8361,-1.8621,-1.9242,-1.9242,-1.8882,-1.8397,0.0,0.0,0.0,0.0,0.0,0.0,-1.6856,-1.6642,-1.6614,-1.6034,-1.5832,-1.5832,-1.5832,-1.5832,-1.5832,0.0,0.0,0.0,0.0,0.0,0.0,0.0,0.0,0.0,0.0,-0.3918,-0.392,-0.3994,-0.3934,-0.394,0.0,0.0,0.0,0.0,0.0,0.0,0.0,0.0,0.0,-0.4293,-0.4641,-0.506,-0.5529,-0.6121,-0.6572,-0.6867,-0.7107,-0.6848,-0.6215,-0.6093,-0.5764,0.0,0.0,0.0,0.0,0.0,0.0,0.0,0.0,0.0,0.0,0.0,0.0,0.0,0.0,0.0,0.0,0.0,0.0,0.0,0.0,-0.6937,-0.716,-0.731,0.0,-0.7715,-0.7697,-0.7735,-0.7716,0.0,-0.7637,-0.7563,-0.7608,-0.7911,-0.8156,-0.8056,-0.8333,-0.8592,-0.8551,0.0,0.0,0.0,0.0,0.0,0.0,0.0,0.0,0.0,0.0,0.0,0.0,0.0,0.0,0.0,0.0,0.0,-1.6027,-1.619,-1.6773,-1.7825,-1.7832,-1.8088,-1.8606,-1.8394,-1.8352,-1.8397,0.0,0.0,0.0,0.0,0.0,-1.6224,-1.6061,-1.6034,-1.6027,-1.5858,-1.5832,-1.5832,-1.5832,-1.5832,-1.5832,0.0,0.0,0.0,0.0,0.0,0.0,0.0,0.0,0.0,0.0,0.0,-0.3931,-0.3911,-0.3911,0.0,0.0,0.0,0.0,0.0,0.0,0.0,0.0,0.0,-0.3828,-0.406,-0.4409,-0.492,-0.5591,-0.6134,-0.6656,-0.7134,-0.7251,-0.7033,-0.6523,-0.5982,-0.5543,0.0,0.0,0.0,0.0,0.0,0.0,0.0,0.0,0.0,0.0,0.0,-0.653,0.0,-0.7174,-0.7625,-0.8222,0.0,0.0,0.0,0.0,-0.6933,-0.7063,-0.7137,-0.7386,-0.7639,-0.7768,-0.7749,-0.7643,-0.7513,-0.7487,-0.7456,0.0,0.0,0.0,0.0,0.0,0.0,0.0,0.0,0.0,0.0,0.0,0.0,0.0,0.0,0.0,0.0,0.0,0.0,0.0,0.0,0.0,0.0,0.0,0.0,0.0,-1.5832,-1.6244,-1.7204,-1.7211,-1.7463,-1.8074,-1.7865,-1.7795,-1.7668,-1.7455,0.0,0.0,0.0,0.0,-1.5832,-1.5832,-1.5832,-1.5832,-1.5832,-1.5832,-1.5832,-1.5832,-1.6014,-1.6231,0.0,0.0,0.0,0.0,0.0,0.0,0.0,0.0,0.0,0.0,0.0,0.0,0.0,0.0,0.0,0.0,0.0,0.0,0.0,0.0,0.0,0.0,-0.3478,-0.3709,-0.398,-0.4169,-0.4776,-0.5766,-0.6156,-0.6669,-0.7287,-0.7392,-0.7175,-0.6665,-0.572,-0.5233,0.0,0.0,0.0,0.0,0.0,0.0,0.0,0.0,0.0,0.0,0.0,0.0,0.0,-0.6665,-0.6937,-0.7386,-0.7291,0.0,0.0,0.0,0.0,0.0,-0.7003,-0.7445,-0.7895,-0.8075,-0.8006,-0.7794,-0.7471,0.0,0.0,0.0,0.0,0.0,0.0,0.0,0.0,0.0,0.0,0.0,0.0,0.0,0.0,0.0,0.0,0.0,0.0,0.0,0.0,0.0,0.0,0.0,0.0,0.0,0.0,0.0,-1.5832,-1.6048,-1.6607,-1.6607,-1.6856,-1.7449,-1.7449,-1.7112,-1.6676,-1.6676,0.0,0.0,0.0,0.0,-1.5965,-1.5965,-1.6061,-1.6061,-1.6061,-1.6061,-1.6061,-1.6061,-1.6422,-1.6849,0.0,0.0,0.0,0.0,0.0,0.0,0.0,0.0,0.0,0.0,0.0,0.0,0.0,0.0,0.0,0.0,0.0,0.0,0.0,0.0,0.0,-0.3387,-0.3731,-0.4201,-0.4789,-0.4688,-0.5076,-0.6052,-0.6399,-0.675,-0.7141,-0.789,-0.7663,-0.6571,-0.5819,-0.5253,-0.4914,-0.4922,0.0,0.0,0.0,0.0,0.0,0.0,0.0,0.0,0.0,0.0,0.0,-0.5358,-0.5834,-0.6752,-0.6363,0.0,0.0,0.0,0.0,0.0,-0.7216,-0.722,-0.7146,-0.7392,-0.7367,-0.7333,-0.7392,-0.7338,0.0,0.0,0.0,0.0,0.0,0.0,0.0,0.0,0.0,0.0,0.0,0.0,0.0,0.0,0.0,0.0,0.0,0.0,0.0,0.0,0.0,0.0,0.0,0.0,0.0,0.0,0.0,-1.5852,-1.5899,-1.5899,-1.6244,-1.6842,-1.664,-1.6613,-1.6676,-1.6474,-1.6343,0.0,0.0,-1.6444,-1.6885,-1.6885,-1.7076,-1.7274,-1.7274,-1.7274,-1.7274,-1.7274,-1.7407,-1.7484,0.0,0.0,0.0,0.0,0.0,0.0,0.0,0.0,0.0,0.0,0.0,0.0,0.0,0.0,0.0,0.0,0.0,0.0,0.0,0.0,-0.3737,-0.3927,-0.4164,-0.4518,-0.5035,-0.5459,-0.6018,-0.6746,-0.7098,-0.7356,-0.7573,-0.7738,-0.7229,-0.6143,-0.5661,-0.5212,-0.4796,-0.4719,-0.472,0.0,0.0,0.0,0.0,0.0,0.0,0.0,0.0,0.0,0.0,0.0,-0.519,-0.5683,-0.5945,0.0,0.0,0.0,0.0,0.0,-0.7509,-0.7432,-0.7408,-0.8243,-0.816,-0.7807,-0.7555,-0.8065,0.0,0.0,0.0,0.0,0.0,0.0,0.0,0.0,0.0,0.0,0.0,0.0,0.0,0.0,0.0,0.0,0.0,0.0,0.0,0.0,0.0,0.0,0.0,0.0,0.0,0.0,0.0,-1.5832,-1.5832,-1.5832,-1.5899,-1.6231,-1.6135,-1.6135,-1.6231,-1.6135,-1.6032,-1.6032,0.0,-1.6209,-1.6434,-1.6434,-1.6531,-1.6642,-1.7009,-1.7078,-1.7218,-1.7846,-1.8074,-1.8016,0.0,0.0,0.0,0.0,0.0,0.0,0.0,0.0,0.0,0.0,0.0,0.0,0.0,0.0,0.0,0.0,0.0,0.0,0.0,-0.3765,-0.3908,-0.4394,-0.4562,-0.4856,-0.5354,-0.6013,-0.6665,-0.7282,-0.7562,-0.7787,-0.7964,-0.7512,-0.6786,-0.5792,-0.5473,-0.507,-0.459,-0.4491,-0.452,0.0,0.0,0.0,0.0,0.0,0.0,0.0,0.0,0.0,0.0,0.0,0.0,0.0,0.0,0.0,0.0,-0.6809,-0.6862,-0.6884,-0.7567,-0.7541,-0.7609,-0.8754,-0.8754,-0.8397,-0.83,-0.9082,0.0,0.0,0.0,0.0,0.0,0.0,0.0,0.0,0.0,0.0,0.0,0.0,0.0,0.0,0.0,0.0,0.0,0.0,0.0,0.0,0.0,0.0,0.0,0.0,0.0,0.0,0.0,0.0,-1.5732,-1.5798,-1.5832,-1.5832,-1.5832,-1.5832,-1.5832,-1.5832,-1.5865,-1.5932,-1.5932,-1.5972,-1.6135,-1.6135,-1.6135,-1.6251,-1.6683,-1.6876,-1.7029,-1.7902,-1.8181,-1.8216,0.0,0.0,0.0,0.0,0.0,0.0,0.0,0.0,0.0,0.0,0.0,0.0,0.0,0.0,0.0,0.0,0.0,0.0,0.0,-0.3765,-0.3937,-0.4471,-0.4856,-0.5397,-0.6112,-0.6,-0.6353,-0.7213,-0.7356,-0.7576,-0.7825,-0.752,-0.6827,-0.5764,-0.5333,-0.4822,-0.4326,-0.4321,-0.435,-0.4457,-0.4832,0.0,0.0,0.0,0.0,0.0,0.0,0.0,0.0,0.0,0.0,0.0,0.0,0.0,-0.654,-0.6899,-0.6635,-0.6394,-0.7163,-0.7087,-0.705,-0.7817,-0.8273,-0.8857,-0.9946,-1.0186,0.0,-1.0464,0.0,0.0,0.0,0.0,0.0,0.0,0.0,0.0,0.0,0.0,0.0,0.0,0.0,0.0,0.0,0.0,0.0,0.0,0.0,0.0,0.0,0.0,0.0,0.0,0.0,0.0,-1.5431,-1.5698,-1.5832,-1.5832,-1.5832,-1.5832,-1.5832,-1.5832,-1.5979,-1.6239,-1.6239,-1.6596,-1.7052,-1.7052,-1.7152,-1.7449,-1.7477,-1.7584,-1.7591,-1.7633,-1.7654,-1.7654,0.0,0.0,0.0,0.0,0.0,0.0,0.0,0.0,0.0,0.0,0.0,0.0,0.0,0.0,0.0,0.0,0.0,0.0,0.0,-0.3814,-0.3959,-0.4417,-0.4913,-0.526,-0.5443,-0.665,-0.7457,-0.7866,-0.801,-0.7962,-0.7727,-0.7341,-0.6746,-0.6026,-0.5348,-0.482,-0.4443,-0.4694,-0.4841,-0.4924,-0.5231,0.0,0.0,0.0,0.0,0.0,0.0,0.0,0.0,0.0,-0.4522,-0.4905,-0.4962,-0.568,-0.6507,-0.6559,-0.6553,-0.672,-0.737,-0.7976,-0.8588,-0.9198,-0.9947,0.0,0.0,-1.0796,-1.1516,-1.2042,-1.2751,0.0,0.0,0.0,0.0,0.0,0.0,0.0,0.0,0.0,0.0,0.0,0.0,0.0,0.0,0.0,0.0,0.0,0.0,0.0,0.0,0.0,0.0,0.0,0.0,0.0,0.0,-1.6058,-1.6206,-1.677,-1.6109,-1.5832,-1.5832,-1.5832,-1.5892,-1.5999,-1.5999,-1.6059,-1.6359,-1.6649,-1.6649,-1.6477,-1.6863,-1.7253,-1.7619,-1.7619,-1.7619,-1.7519,0.0,0.0,0.0,0.0,0.0,0.0,0.0,0.0,0.0,0.0,0.0,0.0,0.0,0.0,0.0,0.0,0.0,0.0,-0.3911,-0.3842,-0.4009,-0.4433,-0.478,-0.5047,-0.5299,-0.6917,-0.7772,-0.7837,-0.8434,-0.8351,-0.7673,-0.7349,-0.6811,-0.6062,-0.5399,-0.4933,-0.4642,-0.5037,-0.5274,-0.5443,-0.5675,-0.5549,0.0,0.0,0.0,0.0,0.0,0.0,0.0,0.0,-0.4477,-0.4802,-0.4947,-0.5702,-0.6486,-0.6323,-0.658,-0.6997,-0.7587,-0.8512,-0.9456,-1.0114,0.0,0.0,-1.1102,-1.1936,-1.2981,-1.3731,-1.4388,0.0,0.0,0.0,0.0,0.0,0.0,0.0,0.0,0.0,0.0,0.0,0.0,0.0,0.0,0.0,0.0,0.0,0.0,0.0,0.0,0.0,0.0,0.0,0.0,0.0,0.0,-1.6508,-1.6743,-1.7326,-1.6581,-1.6298,-1.6298,-1.6298,-1.6298,-1.6298,-1.6298,-1.6298,-1.6298,-1.6676,-1.6581,-1.6319,-1.6539,-1.7036,-1.7512,-1.7323,-1.7323,-1.7421,0.0,0.0,0.0,0.0,0.0,0.0,0.0,0.0,0.0,0.0,0.0,0.0,0.0,0.0,0.0,0.0,0.0,0.0,-0.3911,-0.3842,-0.4045,-0.4564,-0.4471,-0.4905,-0.5951,-0.6655,-0.6966,-0.6892,-0.8459,-0.866,-0.7586,-0.7652,-0.7037,-0.58,-0.5534,-0.5238,-0.4927,-0.526,-0.5611,-0.5927,-0.606,-0.5904,0.0,0.0,0.0,0.0,0.0,0.0,0.0,0.0,-0.5268,-0.5502,-0.6087,-0.6386,-0.6479,-0.6344,-0.6659,-0.7115,-0.7662,-0.8456,-0.9323,0.0,0.0,0.0,-1.3022,-1.3765,-1.4601,-1.5565,0.0,-1.6606,0.0,0.0,0.0,0.0,0.0,0.0,0.0,0.0,0.0,0.0,0.0,0.0,0.0,0.0,0.0,0.0,0.0,0.0,0.0,0.0,0.0,0.0,0.0,0.0,0.0,-1.7172,-1.7326,-1.7326,-1.7326,-1.7333,-1.7326,-1.7326,-1.7326,-1.7326,-1.7326,-1.7326,-1.7326,-1.7326,-1.7326,-1.7232,-1.677,-1.6864,-1.7239,-1.677,-1.6784,-1.6979,0.0,0.0,0.0,0.0,0.0,0.0,0.0,0.0,0.0,0.0,0.0,0.0,0.0,0.0,0.0,0.0,0.0,0.0,-0.3911,-0.3869,-0.3921,-0.4045,-0.435,-0.4633,-0.4857,-0.5668,-0.6576,-0.7584,-0.8359,-0.8273,-0.7458,-0.7446,-0.7104,-0.6513,-0.6481,-0.6149,-0.564,-0.6202,-0.6498,-0.6534,-0.6622,-0.6263,-0.5727,0.0,0.0,0.0,0.0,0.0,0.0,0.0,0.0,0.0,-0.5582,-0.6221,-0.6794,-0.6777,-0.7178,-0.7713,-0.8164,-0.9367,0.0,0.0,0.0,0.0,0.0,-1.4649,0.0,0.0,0.0,0.0,0.0,0.0,0.0,0.0,0.0,0.0,0.0,0.0,0.0,0.0,0.0,0.0,0.0,0.0,0.0,0.0,0.0,0.0,0.0,0.0,0.0,0.0,0.0,0.0,0.0,-1.7956,-1.7842,-1.8357,-1.8357,-1.7986,-1.7326,-1.7326,-1.7326,-1.7333,-1.7153,-1.7066,-1.7066,-1.6871,-1.6958,-1.7232,-1.677,-1.6676,-1.677,-1.6676,-1.6683,-1.6683,0.0,0.0,0.0,0.0,0.0,0.0,0.0,0.0,0.0,0.0,-0.4684,-0.4552,0.0,0.0,0.0,0.0,0.0,0.0,0.0,-0.3911,-0.3877,-0.3808,-0.4111,-0.451,-0.5033,-0.5755,-0.6543,-0.7416,-0.7671,-0.7552,-0.7138,-0.7317,-0.7274,-0.7044,-0.7277,-0.6947,-0.6288,-0.6704,-0.6863,-0.6882,-0.6907,-0.6635,-0.6242,0.0,0.0,0.0,0.0,0.0,0.0,0.0,0.0,0.0,-0.5326,0.0,-0.6414,-0.6907,-0.7644,-0.8406,-0.9164,0.0,0.0,0.0,0.0,0.0,0.0,0.0,0.0,0.0,0.0,0.0,0.0,0.0,0.0,0.0,0.0,0.0,0.0,0.0,0.0,0.0,0.0,0.0,0.0,0.0,0.0,0.0,0.0,0.0,0.0,0.0,0.0,0.0,0.0,0.0,0.0,-1.9569,-1.9315,-1.9363,-1.9363,-1.8904,-1.7893,-1.7893,-1.7893,-1.7893,-1.7807,-1.7628,-1.7542,-1.734,-1.7333,-1.7613,-1.7052,-1.7052,-1.7145,-1.6958,-1.6958,-1.7059,0.0,0.0,0.0,0.0,0.0,0.0,0.0,0.0,0.0,0.0,-0.4803,-0.4584,0.0,0.0,0.0,0.0,0.0,0.0,0.0,-0.3911,-0.3877,-0.38,-0.39,-0.4587,-0.5979,-0.6428,-0.664,-0.6572,-0.6635,-0.6652,-0.6661,-0.7291,-0.7525,-0.7445,-0.7904,-0.7612,-0.6803,-0.6827,-0.6836,-0.6897,-0.6868,-0.6839,-0.6821,-0.6583,0.0,0.0,0.0,0.0,0.0,0.0,0.0,0.0,-0.5305,-0.5419,-0.5644,-0.6917,-0.7999,-0.91,-1.0395,0.0,0.0,0.0,0.0,0.0,0.0,0.0,0.0,0.0,0.0,0.0,0.0,0.0,0.0,0.0,0.0,0.0,0.0,0.0,0.0,0.0,0.0,0.0,0.0,0.0,0.0,0.0,0.0,0.0,0.0,0.0,0.0,0.0,0.0,0.0,-2.1872,-2.1695,-2.1239,0.0,-2.0439,-1.9985,-1.9096,-1.892,-1.8827,-1.8735,-1.8735,-1.8651,-1.8473,-1.8179,-1.8087,-1.8087,-1.752,-1.7707,-1.8087,-1.7613,-1.7621,-1.7815,0.0,0.0,0.0,0.0,0.0,0.0,0.0,0.0,0.0,0.0,0.0,0.0,0.0,0.0,0.0,0.0,0.0,0.0,0.0,-0.3911,-0.389,-0.3869,-0.4626,-0.538,-0.606,-0.5778,-0.5644,-0.5679,-0.609,-0.6319,-0.6336,-0.7129,-0.7516,-0.7575,-0.7998,-0.7659,-0.6802,-0.6924,-0.6582,-0.602,-0.6428,-0.6207,-0.5706,-0.6113,-0.595,0.0,0.0,0.0,0.0,0.0,0.0,0.0,-0.5588,-0.5656,-0.5724,-0.7346,-0.8442,-0.9343,0.0,-1.1756,0.0,0.0,0.0,0.0,0.0,0.0,0.0,0.0,0.0,0.0,0.0,0.0,0.0,0.0,0.0,0.0,0.0,0.0,0.0,0.0,0.0,0.0,0.0,0.0,0.0,0.0,0.0,0.0,0.0,0.0,0.0,0.0,0.0,0.0,-2.2833,-2.205,-2.1606,0.0,-2.1427,-2.1248,-2.0979,-1.9455,-1.8743,-1.8574,-1.8574,-1.8381,-1.8179,-1.8087,-1.8087,-1.8087,-1.7994,-1.7994,-1.8179,-1.8635,-1.8819,-1.8912,0.0,0.0,0.0,0.0,0.0,0.0,0.0,0.0,0.0,0.0,0.0,0.0,0.0,0.0,0.0,0.0,0.0,0.0,0.0,-0.3973,-0.3965,-0.3911,-0.4679,-0.5225,-0.5482,-0.525,-0.5209,-0.5457,-0.534,-0.5609,-0.6207,-0.7085,-0.7743,-0.8218,-0.8193,-0.783,-0.716,-0.6881,-0.6491,-0.611,-0.6421,-0.6286,-0.5941,-0.6033,-0.5819,-0.5469,-0.5491,0.0,0.0,0.0,0.0,0.0,0.0,0.0,-0.5687,-0.7067,-0.8298,-0.9412,0.0,0.0,0.0,0.0,0.0,0.0,0.0,0.0,0.0,0.0,0.0,0.0,0.0,0.0,0.0,0.0,0.0,0.0,0.0,0.0,0.0,0.0,0.0,0.0,0.0,0.0,0.0,0.0,0.0,0.0,0.0,0.0,0.0,0.0,0.0,-2.3287,-2.3584,-2.3071,-2.265,-2.2394,-2.2394,-2.2129,-2.1606,-2.0175,-1.9729,-2.0002,-1.9546,-1.9446,-1.9604,-1.9604,-1.9604,-1.9422,-1.9422,-1.9422,-1.9513,-1.9795,-1.9894,-1.9894,0.0,0.0,0.0,0.0,0.0,0.0,0.0,0.0,0.0,0.0,0.0,0.0,0.0,0.0,0.0,0.0,0.0,0.0,0.0,-0.4076,-0.412,-0.4119,-0.4566,-0.4888,-0.4977,-0.4943,-0.5139,-0.5575,-0.4777,-0.5146,-0.6615,-0.7173,-0.797,-0.8911,-0.8272,-0.7854,-0.7569,-0.6643,-0.6251,-0.6278,-0.6295,-0.6277,-0.6213,-0.5891,-0.5548,-0.5294,-0.5352,-0.5177,-0.4984,-0.5334,0.0,0.0,0.0,0.0,-0.5537,-0.66,-0.7933,-0.9268,0.0,0.0,0.0,0.0,0.0,0.0,0.0,0.0,0.0,0.0,0.0,0.0,0.0,0.0,0.0,0.0,0.0,0.0,0.0,0.0,0.0,0.0,0.0,0.0,0.0,0.0,0.0,0.0,0.0,0.0,0.0,0.0,0.0,0.0,0.0,-2.3533,-2.4166,-2.4012,-2.3709,-2.3258,-2.3327,-2.2931,-2.2138,-2.1239,-2.115,-2.1695,-2.0881,-2.0872,-2.1391,-2.1391,-2.1212,-2.1033,-2.1033,-2.1033,-2.1033,-2.0953,-2.0953,-2.0863,0.0,0.0,0.0,0.0,0.0,0.0,0.0,0.0,0.0,0.0,-0.5,-0.4793,-0.4793,-0.4742,0.0,0.0,0.0,0.0,-0.4252,0.0,0.0,-0.4916,-0.4975,-0.5191,-0.5656,-0.5208,-0.5272,-0.5851,-0.5159,-0.5969,-0.8173,-0.7476,-0.7843,-0.9004,-0.7797,-0.7449,-0.7662,-0.5917,-0.5261,-0.5354,-0.5197,-0.4978,-0.4807,-0.5107,-0.5208,-0.5218,-0.5218,-0.5482,-0.5715,-0.5038,-0.4884,0.0,0.0,0.0,0.0,0.0,-0.7655,-0.8721,0.0,0.0,0.0,0.0,0.0,0.0,0.0,0.0,0.0,0.0,0.0,0.0,0.0,0.0,0.0,0.0,0.0,0.0,0.0,0.0,0.0,0.0,0.0,0.0,0.0,0.0,0.0,0.0,0.0,0.0,0.0,0.0,-2.2961,-2.2898,-2.3297,-2.3619,-2.3833,-2.3843,-2.3903,-2.4044,-2.4258,-2.4272,-2.41,-2.3193,-2.2394,-2.1695,-2.1606,-2.1596,-2.1686,-2.1686,-2.1596,-2.1596,-2.1596,-2.1596,-2.1596,-2.2041,-2.2129,-2.2217,0.0,0.0,0.0,0.0,0.0,0.0,0.0,0.0,0.0,0.0,0.0,-0.4793,-0.4793,-0.4773,0.0,0.0,0.0,0.0,-0.4435,-0.4423,0.0,-0.4709,-0.4752,-0.4894,-0.5112,-0.4902,-0.5042,-0.5553,-0.5006,-0.5898,-0.8172,-0.7675,-0.8394,-1.0054,-0.8658,-0.8108,-0.8115,-0.6827,-0.5852,-0.5177,-0.5456,-0.5719,-0.5862,-0.5112,-0.5462,-0.6276,-0.5471,-0.5424,-0.5685,-0.5497,-0.5468,0.0,0.0,0.0,0.0,0.0,0.0,0.0,0.0,0.0,0.0,0.0,0.0,0.0,0.0,0.0,0.0,0.0,0.0,0.0,0.0,0.0,0.0,0.0,0.0,0.0,0.0,0.0,0.0,0.0,0.0,0.0,0.0,0.0,0.0,0.0,0.0,0.0,0.0,-2.2552,-2.2766,-2.2569,-2.2537,0.0,-2.3266,-2.3277,-2.3429,-2.3822,-2.42,-2.4251,-2.4178,-2.3978,-2.3647,-2.3202,-2.2755,-2.2755,-2.3299,-2.3299,-2.3299,-2.3299,-2.3299,-2.3299,-2.329,-2.3387,-2.3299,-2.3212,0.0,0.0,0.0,0.0,0.0,0.0,0.0,0.0,0.0,0.0,0.0,0.0,-0.4882,0.0,0.0,0.0,0.0,0.0,-0.4595,0.0,0.0,0.0,-0.4552,-0.4613,-0.4613,-0.4613,-0.4838,-0.5348,-0.4978,-0.5966,-0.8159,-0.7903,-0.9004,-1.1101,-0.9636,-0.8884,-0.8625,-0.766,-0.6693,-0.587,-0.6211,-0.6675,-0.7007,-0.5974,-0.6385,-0.7381,-0.6035,-0.5709,-0.5911,0.0,0.0,0.0,0.0,0.0,0.0,0.0,0.0,0.0,0.0,0.0,0.0,0.0,0.0,0.0,0.0,0.0,0.0,0.0,0.0,0.0,0.0,0.0,0.0,0.0,0.0,0.0,0.0,0.0,0.0,0.0,0.0,0.0,0.0,0.0,0.0,0.0,0.0,0.0,-2.2046,-2.236,-2.2468,-2.2338,-2.2025,-2.2126,-2.2703,-2.2751,-2.2982,-2.3408,-2.3801,-2.3929,-2.3971,-2.4219,-2.4436,-2.4454,-2.3734,-2.382,-2.454,-2.454,-2.454,-2.454,-2.454,-2.454,-2.4454,-2.4282,-2.411,-2.3841,0.0,0.0,0.0,0.0,0.0,0.0,0.0,0.0,0.0,0.0,0.0,0.0,-0.5088,-0.502,-0.499,-0.499,0.0,0.0,0.0,0.0,0.0,0.0,0.0,0.0,-0.4613,-0.4613,-0.488,-0.5491,-0.541,-0.6559,-0.8848,-0.8317,-0.9446,-1.1853,-1.0252,-0.9437,-0.9169,-0.7644,-0.7327,-0.7788,-0.7266,-0.7109,-0.7269,-0.7954,-0.823,-0.8096,-0.6948,-0.6775,0.0,0.0,0.0,0.0,0.0,-0.6387,-0.715,0.0,0.0,0.0,0.0,0.0,0.0,0.0,0.0,0.0,0.0,0.0,0.0,0.0,0.0,0.0,0.0,0.0,0.0,0.0,0.0,0.0,0.0,0.0,0.0,0.0,0.0,0.0,0.0,0.0,0.0,0.0,0.0,0.0,-2.1807,-2.1828,-2.1904,-2.2111,-2.2101,-2.2187,-2.2445,-2.2661,-2.2892,-2.3158,-2.3238,-2.3617,-2.421,-2.3981,-2.4146,-2.454,-2.4454,-2.4454,-2.454,-2.454,-2.454,-2.454,-2.454,-2.454,-2.4454,-2.4282,-2.4206,-2.411,0.0,0.0,0.0,0.0,0.0,0.0,0.0,0.0,0.0,0.0,0.0,0.0,0.0,-0.501,-0.497,-0.4872,-0.4832,0.0,0.0,0.0,0.0,0.0,0.0,0.0,-0.4733,-0.4682,-0.4784,-0.5052,-0.499,-0.5846,-0.7537,-0.7448,-0.8332,-0.9973,-0.94,-0.9373,-0.9687,-0.8521,-0.7899,-0.7715,-0.8005,-0.8496,-0.9043,-0.8771,-0.915,-0.9647,0.0,0.0,0.0,0.0,0.0,0.0,-0.7405,-0.732,-0.7282,-0.7715,-0.8279,0.0,0.0,0.0,0.0,0.0,0.0,0.0,0.0,0.0,0.0,0.0,0.0,0.0,0.0,0.0,0.0,0.0,0.0,0.0,0.0,0.0,0.0,0.0,0.0,0.0,0.0,0.0,0.0,0.0,0.0,0.0,-2.1578,-2.1731,-2.1807,-2.1883,-2.1883,-2.2025,-2.2176,-2.2268,-2.2352,-2.2439,-2.2757,-2.2981,-2.3158,-2.346,-2.3846,-2.4115,-2.4284,-2.4355,-2.454,-2.454,-2.454,-2.454,-2.454,-2.454,-2.4454,-2.4454,-2.4292,-2.4206,0.0,0.0,0.0,0.0,0.0,0.0,0.0,0.0,-0.5273,-0.5205,0.0,0.0,0.0,0.0,-0.501,-0.4921,-0.4872,-0.4872,-0.4872,-0.4843,0.0,0.0,0.0,0.0,-0.4793,-0.4762,-0.4762,-0.4793,-0.4938,-0.5552,-0.663,-0.7046,-0.7862,-0.9018,-0.8588,-0.9032,-1.0021,-0.9374,-0.886,-0.8512,-0.9188,-0.9801,-1.0359,-1.0116,-1.0593,-1.1122,0.0,0.0,0.0,0.0,0.0,0.0,-0.842,-0.8036,-0.7588,-0.7966,-0.8439,-0.8865,-0.8861,0.0,0.0,0.0,0.0,0.0,0.0,0.0,0.0,0.0,0.0,0.0,0.0,0.0,0.0,0.0,0.0,0.0,0.0,0.0,0.0,0.0,0.0,0.0,0.0,0.0,0.0,0.0,0.0,0.0,-2.1362,-2.1416,-2.1489,-2.1569,-2.1725,-2.1883,-2.2035,-2.2035,-2.2025,-2.2111,-2.2349,-2.2501,-2.2579,-2.297,-2.3366,-2.3815,-2.3971,-2.421,-2.454,-2.454,-2.454,-2.454,-2.454,-2.454,-2.454,-2.454,-2.4464,-2.4292,0.0,0.0,0.0,0.0,0.0,0.0,0.0,0.0,-0.5473,-0.5407,0.0,0.0,0.0,0.0,0.0,-0.5107,-0.5058,-0.5029,-0.501,-0.4941,-0.4873,0.0,0.0,0.0,-0.4812,-0.4812,-0.4812,-0.4812,-0.5331,-0.5823,-0.6294,-0.7188,-0.8196,-0.9183,-0.7939,-0.8403,-1.0128,-1.006,-1.0118,-1.0312,0.0,-1.0918,-1.1042,0.0,0.0,0.0,-1.0756,-1.0206,0.0,-0.9059,0.0,0.0,0.0,-0.84,-0.8064,-0.7869,-0.8098,-0.8389,0.0,0.0,0.0,0.0,0.0,0.0,0.0,0.0,0.0,0.0,0.0,0.0,0.0,0.0,0.0,0.0,0.0,0.0,0.0,0.0,0.0,0.0,0.0,0.0,0.0,0.0,0.0,0.0,0.0,-2.096,-2.0949,-2.0786,-2.0843,-2.1083,-2.1538,-2.1787,-2.1787,-2.1797,-2.1883,-2.2111,-2.1883,-2.2122,-2.2783,-2.2548,-2.2887,-2.3507,-2.3722,-2.4095,-2.4519,-2.454,-2.454,-2.454,-2.454,-2.454,-2.454,-2.454,-2.454,-2.4454,0.0,0.0,0.0,0.0,0.0,-0.5473,-0.5407,-0.5378,-0.5349,0.0,0.0,0.0,-0.5195,-0.538,-0.5544,-0.5532,-0.5553,-0.5437,-0.5087,-0.5068,-0.503,-0.502,-0.502,-0.502,-0.502,-0.502,-0.5,-0.4951,-0.5043,-0.5336,-0.5782,-0.5615,-0.6261,-0.755,-0.6979,-0.7538,-0.88,-0.8295,0.0,-1.0293,-1.0322,-1.0984,0.0,0.0,0.0,0.0,0.0,-1.2493,-1.2292,0.0,-1.1361,-1.0716,0.0,-0.8773,-0.8285,-0.8146,-0.8319,-0.848,-0.8192,0.0,0.0,0.0,0.0,0.0,0.0,0.0,0.0,0.0,0.0,0.0,0.0,0.0,0.0,0.0,0.0,0.0,0.0,0.0,0.0,0.0,0.0,0.0,0.0,0.0,0.0,0.0,0.0,-2.0502,-2.037,-2.0431,-2.0483,-2.0617,-2.1062,-2.13,-2.13,-2.1631,-2.1807,-2.1883,-2.1807,-2.1869,-2.207,-2.2147,-2.2397,-2.2777,-2.3298,-2.3724,-2.4084,-2.4405,-2.454,-2.454,-2.454,-2.454,-2.454,-2.454,-2.454,-2.4454,0.0,0.0,0.0,-0.5625,-0.5528,-0.5572,-0.5784,-0.5513,-0.5382,0.0,0.0,0.0,-0.5462,-0.6059,-0.6301,-0.59,-0.5902,-0.5711,-0.5176,-0.5127,-0.5108,-0.5108,-0.5078,-0.5059,-0.5108,-0.5108,-0.5068,-0.499,-0.499,-0.5093,-0.5296,-0.4987,-0.5298,-0.6111,-0.5938,-0.6548,-0.7675,-0.713,0.0,0.0,-1.0516,0.0,0.0,-1.2317,-1.2715,0.0,0.0,0.0,-1.3429,-1.342,-1.2829,0.0,0.0,0.0,-0.9067,-0.8583,-0.8872,-0.9261,-0.8755,-0.9159,0.0,0.0,0.0,0.0,0.0,0.0,0.0,0.0,0.0,0.0,0.0,0.0,0.0,0.0,0.0,0.0,0.0,0.0,0.0,0.0,0.0,0.0,0.0,0.0,0.0,0.0,-1.9931,-2.0,-1.9802,-1.9862,-1.9931,-1.9862,-2.012,-2.0265,-2.0265,-2.0907,-2.1228,-2.1238,-2.1621,-2.1807,-2.1807,-2.2101,-2.2324,-2.2597,-2.3262,-2.3581,-2.3756,-2.4242,-2.4449,-2.454,-2.454,-2.454,-2.454,-2.454,-2.454,-2.454,0.0,0.0,-0.6063,-0.5851,-0.5674,-0.5773,-0.6372,-0.5926,-0.5684,0.0,-0.5827,-0.5714,-0.6286,-0.7096,-0.727,-0.6395,-0.623,-0.5929,-0.5333,-0.5186,-0.5137,-0.5137,-0.5088,-0.5078,-0.5127,-0.5127,-0.5107,-0.5029,-0.5088,-0.5039,-0.4912,-0.4961,-0.4999,-0.4989,-0.4992,-0.5688,-0.6845,-0.6569,0.0,-0.9736,-1.093,-1.1508,0.0,0.0,-1.3046,0.0,-1.3349,-1.3585,-1.4057,-1.4253,-1.3641,0.0,0.0,0.0,0.0,-0.9274,-0.9639,-1.0219,-0.9629,-0.9956,-1.0484,0.0,0.0,0.0,0.0,-1.1444,0.0,0.0,0.0,0.0,0.0,0.0,0.0,0.0,0.0,0.0,0.0,0.0,0.0,0.0,0.0,0.0,0.0,0.0,0.0,-1.9208,-1.9407,-1.9483,-1.9274,-1.9285,-1.9208,-1.9075,-1.9116,-1.9127,-1.9075,-1.9924,-2.0277,-2.0287,-2.1238,-2.1683,-2.1735,-2.2155,-2.2478,-2.2724,-2.3384,-2.3525,-2.349,-2.4089,-2.4409,-2.4478,-2.4519,-2.454,-2.454,-2.454,-2.454,-2.454,0.0,-0.6091,-0.5944,-0.6426,-0.6265,-0.6243,-0.6808,-0.6806,-0.6773,-0.6849,-0.7093,-0.7591,-0.84,-0.8344,-0.8098,-0.7746,-0.7026,-0.6409,-0.5949,-0.5552,-0.535,-0.535,-0.5331,-0.5331,-0.5341,-0.5341,-0.5273,-0.5156,-0.5176,-0.5117,-0.499,-0.499,-0.5008,-0.4995,-0.495,-0.5526,-0.6607,0.0,0.0,-0.9923,-0.9987,0.0,-1.2272,-1.2395,-1.3102,-1.4043,-1.4356,-1.4834,-1.5328,0.0,-1.457,-1.3599,0.0,0.0,0.0,0.0,0.0,-1.0047,-0.987,-1.008,-1.0232,0.0,0.0,0.0,0.0,-1.0145,0.0,0.0,0.0,0.0,0.0,0.0,0.0,0.0,0.0,0.0,0.0,0.0,0.0,0.0,0.0,0.0,0.0,0.0,-1.8875,-1.8875,-1.9075,-1.9208,-1.9142,-1.9142,-1.9075,-1.8875,-1.9233,-1.9243,-1.8875,-1.9418,-1.9694,-1.9694,-2.037,-2.0897,-2.1364,-2.1868,-2.2252,-2.2478,-2.3099,-2.3372,-2.3436,-2.4084,-2.4212,-2.4043,-2.4405,-2.454,-2.454,-2.454,-2.454,-2.454,-0.652,-0.623,-0.6169,-0.6675,-0.7193,-0.7633,-0.7868,-0.7593,-0.7467,-0.7772,-0.8374,-0.8869,-0.9115,-0.9126,-0.8904,-0.8453,-0.7729,-0.6981,-0.6254,-0.5993,-0.5743,-0.5456,-0.5378,-0.534,-0.534,-0.5388,-0.5331,-0.5195,-0.5224,-0.5185,-0.5059,-0.5088,-0.5441,-0.6027,-0.5629,-0.6146,-0.7293,0.0,-0.8298,-0.9757,-1.038,0.0,-1.2447,-1.2712,-1.3298,-1.4104,-1.4666,-1.5388,-1.5925,-1.5265,-1.477,0.0,0.0,-1.2938,-1.2476,0.0,-1.1595,-1.1556,-1.1191,-1.1296,0.0,-1.1226,0.0,0.0,0.0,0.0,0.0,0.0,0.0,0.0,0.0,0.0,0.0,0.0,0.0,0.0,0.0,0.0,0.0,0.0,0.0,0.0,0.0,0.0,-1.8209,-1.8145,-1.8534,-1.8733,-1.8678,-1.8733,-1.8723,-1.8592,-1.8678,-1.8575,-1.8284,-1.8802,-1.9019,-1.8952,-1.9768,-2.0479,-2.1021,-2.1839,-2.2402,-2.2703,-2.3224,-2.3442,-2.3383,-2.3939,-2.4017,-2.3811,-2.4262,-2.4502,-2.454,-2.454,-2.454,-2.454,-0.6522,-0.6359,-0.6391,-0.6758,-0.7821,-0.863,-0.8661,-0.8219,-0.8138,-0.8882,-0.9624,-1.0004,-0.9874,-1.008,-0.9994,-0.9451,-0.8634,-0.7791,-0.6906,-0.6562,-0.6202,-0.5754,-0.544,-0.5351,-0.5442,-0.541,-0.5331,-0.5195,-0.5263,-0.5214,-0.5108,-0.5166,-0.5785,-0.684,-0.635,-0.6919,-0.8241,0.0,0.0,-1.0098,0.0,-1.1836,-1.2273,-1.2886,-1.3417,-1.3942,-1.4842,-1.567,-1.6224,-1.5154,0.0,-1.48,-1.3806,-1.3676,0.0,0.0,0.0,0.0,0.0,0.0,0.0,0.0,0.0,-1.2635,0.0,0.0,0.0,-1.2809,0.0,0.0,0.0,0.0,0.0,0.0,0.0,0.0,0.0,0.0,0.0,0.0,0.0,0.0,0.0,0.0,-1.741,-1.7523,-1.7833,-1.8018,-1.8076,-1.8286,-1.8382,-1.8317,-1.8249,-1.8124,-1.7854,-1.8417,-1.8553,-1.8257,-1.9389,-2.0096,-2.0534,-2.1761,-2.2499,-2.2944,-2.3338,-2.3446,-2.3331,-2.3729,-2.3798,-2.3743,-2.4121,-2.4273,-2.4291,-2.4385,-2.432,-2.4341,-0.6706,-0.643,-0.6366,-0.6805,-0.7266,-0.7702,-0.8127,-0.8567,-0.9204,-1.0247,-1.0742,-1.1327,-1.2132,-1.1875,-1.1726,-1.1877,-1.0146,-0.9001,-0.8883,-0.7529,-0.6694,-0.6582,-0.5755,-0.5502,-0.5917,-0.5512,-0.5282,-0.5195,-0.5215,-0.5166,-0.5108,-0.5108,-0.5441,-0.6064,-0.6398,0.0,0.0,0.0,-0.9827,0.0,-1.15,-1.1357,0.0,-1.2511,-1.316,-1.381,-1.5152,-1.5939,-1.6312,0.0,-1.5492,-1.5411,0.0,-1.432,0.0,0.0,0.0,0.0,0.0,0.0,0.0,0.0,-1.2907,0.0,0.0,0.0,-1.2718,-1.2212,0.0,0.0,0.0,0.0,0.0,0.0,0.0,0.0,0.0,0.0,0.0,0.0,0.0,0.0,0.0,0.0,0.0,-1.7606,-1.7036,-1.6904,-1.7574,-1.8101,-1.8243,-1.7995,-1.8702,-1.8898,-1.8309,-1.8574,-1.8396,-1.7781,-1.9038,-1.9645,-1.9807,-2.148,-2.2418,-2.2639,-2.3121,-2.3298,-2.3309,-2.3586,-2.3641,-2.371,-2.3849,-2.3773,-2.3635,-2.3888,-2.3782,-2.3739,-0.6841,-0.6638,-0.6637,-0.7113,-0.7217,-0.747,-0.8172,-0.942,-1.0289,-1.0371,-1.1329,-1.2163,-1.2552,0.0,0.0,0.0,0.0,-1.0543,0.0,0.0,-0.8268,-0.7945,-0.6948,-0.6466,-0.6634,-0.6171,-0.5733,-0.5311,-0.5311,-0.5273,-0.5166,-0.5108,-0.5813,-0.7064,-0.7277,0.0,-1.0019,0.0,0.0,0.0,0.0,0.0,0.0,-1.2603,-1.3515,-1.4128,-1.4976,-1.5587,-1.598,0.0,-1.5421,0.0,0.0,0.0,0.0,0.0,0.0,0.0,0.0,0.0,0.0,0.0,0.0,0.0,0.0,0.0,-1.2872,0.0,0.0,0.0,0.0,0.0,0.0,0.0,0.0,0.0,0.0,0.0,0.0,0.0,0.0,0.0,0.0,0.0,0.0,0.0,0.0,-1.6203,-1.6644,-1.7421,-1.7986,-1.8178,-1.8687,-1.8952,-1.8916,-1.8977,-1.887,-1.8594,-1.92,-1.9663,-2.0074,-2.1272,-2.1904,-2.2192,-2.2678,-2.2889,-2.2889,-2.325,-2.3494,-2.363,-2.3384,-2.3573,-2.3849,-2.3564,-2.3474,-2.3525,-0.6974,-0.6858,-0.6851,-0.7162,-0.7197,-0.7536,-0.8619,-0.9944,-1.0806,-1.0801,-1.1752,0.0,-1.3002,-1.2617,0.0,0.0,-1.3062,-1.2363,0.0,0.0,-0.9977,-0.9584,-0.8301,0.0,0.0,-0.69,-0.6276,-0.5612,-0.5449,-0.5391,-0.5402,-0.5205,-0.6048,-0.7786,-0.8007,-0.9164,-1.0964,0.0,0.0,-1.1157,-1.1172,-1.1346,-1.1789,-1.2832,-1.3772,-1.4542,-1.4883,-1.537,-1.5842,-1.5675,-1.5391,0.0,-1.5356,0.0,0.0,0.0,0.0,0.0,-1.3609,0.0,0.0,0.0,0.0,0.0,0.0,0.0,0.0,0.0,0.0,0.0,0.0,0.0,0.0,0.0,0.0,0.0,0.0,0.0,0.0,0.0,0.0,0.0,0.0,0.0,0.0,0.0,0.0,0.0,-1.5833,-1.6685,-1.7369,-1.7873,-1.8501,-1.8923,-1.9141,-1.9319,-1.9338,-1.9208,-1.9476,-1.9777,-2.0125,-2.0985,-2.1464,-2.1661,-2.2181,-2.2468,-2.2529,-2.2893,-2.3187,-2.3372,-2.315,-2.3362,-2.3837,-2.3345,-2.3238,-2.3301,-0.712,-0.6977,-0.6858,-0.6732,-0.7099,-0.7935,-0.9503,-0.9805,-1.0438,0.0,0.0,0.0,0.0,0.0,0.0,0.0,0.0,-1.4479,-1.465,0.0,-1.1598,-1.1517,-0.9675,-0.8629,0.0,-0.7596,-0.6767,-0.617,-0.5592,-0.5533,-0.5957,-0.5382,-0.5938,-0.7456,-0.8218,-0.9672,-1.148,-1.1444,-1.2467,-1.3982,-1.2816,-1.304,-1.3989,0.0,-1.3786,-1.4976,-1.4987,0.0,0.0,-1.5679,-1.5563,0.0,0.0,0.0,0.0,0.0,0.0,0.0,0.0,0.0,0.0,-1.3654,0.0,0.0,0.0,0.0,-1.4089,0.0,0.0,0.0,0.0,0.0,-1.2223,-1.1675,-1.1509,0.0,0.0,0.0,0.0,0.0,0.0,0.0,0.0,0.0,0.0,0.0,0.0,0.0,-1.5269,-1.592,-1.6379,-1.6638,-1.83,-1.903,-1.8722,-1.9598,-1.9791,-1.9219,-1.9802,-1.9856,-1.9473,-2.0775,-2.1275,-2.1152,-2.165,-2.2006,-2.2313,-2.2335,-2.2597,-2.3001,-2.3001,-2.3172,-2.3334,-2.3197,-2.2981,-2.2898,0.0,-0.8041,0.0,0.0,0.0,-0.8108,-0.9414,-1.0731,0.0,0.0,0.0,0.0,0.0,0.0,-1.5335,0.0,0.0,-1.5127,-1.489,-1.3651,0.0,0.0,0.0,-1.0873,0.0,0.0,-0.8383,-0.7381,-0.6868,-0.665,-0.6709,-0.6417,-0.6876,-0.7962,0.0,-1.0246,0.0,0.0,0.0,0.0,0.0,-1.3169,-1.4035,0.0,0.0,-1.5089,-1.5297,-1.5871,0.0,-1.6575,-1.6435,-1.6176,-1.6362,-1.6084,-1.5765,-1.5967,-1.5701,0.0,0.0,0.0,-1.5001,-1.3993,0.0,0.0,0.0,0.0,0.0,0.0,0.0,0.0,0.0,-1.2725,-1.2296,-1.2138,-1.1514,-1.0758,0.0,0.0,0.0,0.0,0.0,0.0,0.0,0.0,0.0,0.0,0.0,0.0,0.0,-1.5321,-1.5946,-1.6465,-1.7653,-1.8459,-1.8829,-1.962,-1.9976,-2.0028,-2.0182,-2.0311,-2.0306,-2.0705,-2.0915,-2.0861,-2.1208,-2.1382,-2.1523,-2.204,-2.2411,-2.2575,-2.2881,-2.3075,-2.3097,-2.2735,-2.2713,-2.2787,-0.8539,0.0,0.0,0.0,0.0,0.0,0.0,0.0,0.0,0.0,-1.4311,0.0,-1.5455,0.0,-1.6087,0.0,-1.6411,-1.6291,-1.6011,-1.5147,0.0,-1.5007,-1.3786,0.0,0.0,-1.1385,-1.0094,-0.8615,-0.8093,-0.7686,-0.7379,-0.7063,-0.7398,-0.8343,0.0,-1.0534,-1.188,0.0,-1.3173,0.0,0.0,-1.3647,0.0,0.0,-1.4785,-1.5322,0.0,-1.6351,-1.6874,-1.7102,-1.6972,-1.6754,-1.7092,-1.6765,-1.633,-1.6699,-1.6342,-1.5786,-1.5627,-1.5647,0.0,-1.4718,-1.4811,0.0,-1.4024,0.0,0.0,0.0,0.0,0.0,0.0,0.0,-1.2533,-1.2365,-1.1611,-1.0719,0.0,0.0,0.0,0.0,0.0,0.0,0.0,0.0,-1.1851,-1.2981,0.0,0.0,0.0,0.0,-1.5464,-1.6171,-1.7172,-1.7912,-1.8341,-1.936,-1.9878,-2.0017,-2.0257,-2.041,-2.0475,-2.054,-2.0604,-2.0627,-2.0852,-2.1019,-2.1163,-2.1853,-2.2221,-2.2368,-2.2826,-2.3001,-2.3001,-2.2703,-2.2703,-2.2821,0.0,0.0,0.0,0.0,-0.9931,0.0,0.0,0.0,-1.4318,0.0,-1.5569,-1.5847,-1.6545,-1.6533,-1.6771,-1.7422,-1.7747,0.0,-1.7948,-1.7154,0.0,0.0,-1.5582,-1.4651,-1.3564,-1.3035,0.0,0.0,-0.9181,-0.8567,-0.7977,-0.7314,-0.7542,-0.8542,-0.9424,0.0,-1.1882,-1.3072,-1.397,-1.4581,-1.4477,-1.4477,-1.4682,-1.5325,0.0,-1.5726,-1.6372,-1.6885,-1.7266,-1.7267,-1.7268,-1.7224,-1.7224,-1.7245,-1.7245,-1.7245,-1.7123,-1.6903,-1.6504,-1.6235,-1.6074,-1.575,0.0,0.0,0.0,0.0,-1.4675,0.0,0.0,0.0,0.0,0.0,0.0,-1.2407,-1.1875,-1.1143,0.0,0.0,0.0,0.0,0.0,0.0,0.0,0.0,-1.1562,-1.3185,-1.2034,0.0,0.0,0.0,0.0,-1.5737,-1.6853,-1.7408,-1.7332,-1.8844,-1.9522,-1.943,-2.0017,-2.0248,-2.0085,-2.0281,-2.041,-2.041,-2.0604,-2.0796,-2.1107,-2.1559,-2.1985,-2.2335,-2.2815,-2.3001,-2.3001,-2.3001,-2.3001,-2.3001,-1.0056,-1.0669,-1.1301,0.0,-1.1286,-1.1257,0.0,0.0,0.0,0.0,-1.615,-1.6701,-1.7062,-1.7491,-1.7678,-1.7503,-1.7462,0.0,0.0,0.0,0.0,-1.6935,-1.6296,-1.579,-1.5568,-1.4237,0.0,-1.2015,0.0,0.0,-0.9215,-0.8666,-0.8469,-0.8616,0.0,0.0,-1.186,-1.2873,-1.3795,-1.4627,-1.4673,-1.473,0.0,0.0,-1.626,-1.6277,-1.6845,-1.7404,-1.7888,-1.7865,-1.7854,-1.7897,-1.7854,-1.7865,-1.7865,-1.7865,-1.7634,-1.7335,-1.7203,-1.6838,-1.6343,-1.5836,-1.5612,-1.5434,0.0,0.0,0.0,0.0,0.0,0.0,0.0,0.0,0.0,-1.3032,-1.2423,-1.1774,0.0,0.0,0.0,0.0,0.0,0.0,0.0,0.0,-1.1211,-1.1995,0.0,0.0,0.0,0.0,0.0,-1.5311,-1.6276,-1.6974,-1.7429,-1.8194,-1.8862,-1.9419,-1.955,-1.9801,-2.0085,-2.014,-2.0281,-2.041,-2.0281,-2.0412,-2.0654,-2.1369,-2.1728,-2.1854,-2.2673,-2.3001,-2.3001,-2.3001,-2.3001,-2.3001,-1.0988,0.0,0.0,-1.3714,0.0,0.0,-1.3866,0.0,0.0,-1.5951,-1.6803,0.0,-1.7368,-1.7944,-1.8228,-1.7975,-1.7882,0.0,0.0,0.0,0.0,-1.7557,-1.7256,-1.7029,-1.6836,-1.5905,0.0,-1.3239,0.0,0.0,-0.985,-0.9142,-0.8784,-0.8773,0.0,-1.0945,0.0,-1.3331,-1.4216,-1.4673,-1.4787,0.0,0.0,-1.6227,-1.666,-1.682,-1.7383,-1.7801,-1.8084,-1.8084,-1.8084,-1.8084,-1.8084,-1.8084,-1.8084,-1.803,-1.781,-1.759,-1.7523,-1.72,-1.6856,-1.6533,-1.6358,-1.6121,-1.5605,-1.5645,-1.5706,0.0,0.0,0.0,0.0,0.0,0.0,-1.299,-1.2408,0.0,0.0,0.0,0.0,0.0,0.0,0.0,0.0,0.0,0.0,0.0,0.0,0.0,0.0,0.0,0.0,-1.5599,-1.617,-1.6778,-1.742,-1.8013,-1.8611,-1.9102,-1.9383,-1.9734,-2.0085,-2.0085,-2.0216,-2.041,-2.0281,-2.0281,-2.0466,-2.1083,-2.1465,-2.168,-2.263,-2.3001,-2.3001,-2.3001,-2.3001,-2.3001,0.0,0.0,0.0,0.0,0.0,0.0,0.0,-1.5813,0.0,-1.6712,0.0,-1.7879,-1.7642,-1.8156,-1.8517,-1.8517,0.0,-1.8464,-1.8319,-1.8425,-1.8347,-1.8042,-1.8161,-1.8042,-1.7529,-1.745,0.0,0.0,0.0,-1.1883,-0.9939,-0.9119,-0.875,0.0,0.0,0.0,0.0,-1.3957,-1.4754,0.0,-1.4877,-1.5204,-1.5736,-1.652,-1.7053,-1.7409,-1.8009,-1.8193,-1.8084,-1.8084,-1.8084,-1.8084,-1.8084,-1.8084,-1.8084,-1.7963,-1.781,-1.7645,-1.7534,-1.7368,-1.7267,-1.7423,-1.7179,-1.6903,-1.6504,-1.6245,-1.6027,-1.6027,-1.5657,-1.5605,0.0,0.0,0.0,0.0,0.0,0.0,0.0,0.0,0.0,0.0,0.0,0.0,0.0,0.0,0.0,0.0,0.0,0.0,0.0,0.0,0.0,0.0,-1.628,0.0,-1.7169,0.0,-1.8422,-1.86,-1.9276,-1.9698,-1.9987,-2.0053,-2.0216,-2.0346,-2.0346,-2.0346,-2.0379,-2.0908,-2.1314,-2.1767,-2.2663,-2.3001,-2.3001,-2.3001,-2.3001,-2.3001,0.0,0.0,0.0,0.0,0.0,-1.6592,-1.7,-1.6803,-1.6796,-1.7418,-1.8031,0.0,-1.831,-1.8408,-1.8517,-1.8517,-1.8517,0.0,0.0,0.0,0.0,-1.8149,-1.8029,-1.7868,-1.7679,-1.7183,-1.5981,0.0,-1.3659,-1.1958,-0.9107,-0.895,-0.8572,0.0,0.0,0.0,-1.3022,-1.3672,0.0,-1.5359,-1.5359,-1.5796,-1.6543,-1.7532,-1.7972,-1.8088,-1.8637,-1.8506,-1.8084,-1.8084,-1.8084,-1.8084,-1.8084,-1.8084,-1.8084,-1.7963,-1.781,-1.7645,-1.7534,-1.7301,-1.7078,-1.7067,-1.6965,-1.6842,-1.6768,-1.669,-1.6623,-1.6623,-1.657,-1.6433,-1.609,0.0,0.0,0.0,0.0,0.0,0.0,0.0,0.0,0.0,0.0,0.0,0.0,0.0,0.0,0.0,0.0,0.0,0.0,0.0,0.0,0.0,0.0,0.0,0.0,0.0,0.0,-1.7943,-1.8589,-1.9069,-1.9349,-1.9889,-2.0151,-2.014,-2.014,-2.014,-2.0183,-2.0731,-2.1454,-2.2248,-2.2783,-2.3001,-2.3001,-2.3001,-2.3001,-2.3001,0.0,0.0,0.0,0.0,0.0,0.0,0.0,-1.7539,0.0,-1.7502,-1.7843,-1.8064,-1.8002,-1.8655,-1.8908,-1.8545,-1.9188,-1.9327,-1.8559,-1.8773,-1.8775,-1.8375,-1.8282,0.0,-1.8242,-1.786,-1.6824,-1.5066,-1.464,-1.2698,-0.9399,-0.8637,-0.8524,-0.9029,0.0,-1.2607,0.0,0.0,0.0,-1.6396,-1.6315,-1.692,-1.7896,-1.84,-1.877,-1.9066,-1.9297,-1.9239,-1.8869,-1.8302,-1.8084,-1.8084,-1.8084,-1.8084,-1.803,-1.7865,-1.7755,-1.7656,-1.7434,-1.7256,-1.7145,-1.7145,-1.7099,-1.7043,-1.7043,-1.7043,-1.7043,-1.7043,-1.7043,-1.6837,-1.6201,-1.5563,0.0,0.0,0.0,0.0,0.0,0.0,0.0,0.0,0.0,0.0,0.0,0.0,0.0,0.0,0.0,0.0,0.0,0.0,0.0,0.0,0.0,0.0,0.0,0.0,0.0,-1.7988,-1.8458,-1.8938,-1.9304,-1.9857,-2.0085,-2.0085,-2.0085,-2.0085,-2.0118,-2.0664,-2.1286,-2.1985,-2.2466,-2.2794,-2.3001,-2.3001,-2.3001,-2.3001,0.0,-1.6816,0.0,0.0,-1.7586,0.0,0.0,-1.8207,-1.8266,-1.7592,-1.7735,-1.789,-1.7932,-1.8934,-1.9369,-1.8796,-1.9804,-1.9961,-1.8824,-1.9284,-1.9397,-1.8965,-1.8951,-1.888,-1.8793,-1.8714,-1.7782,0.0,0.0,-1.3683,-1.0351,-0.9098,-0.9274,0.0,0.0,0.0,0.0,0.0,-1.6658,-1.756,-1.7433,-1.8111,-1.9157,-1.9306,-1.9598,-1.9952,-1.9952,-1.9952,-1.9798,-1.8815,-1.841,-1.8247,-1.8139,-1.8084,-1.803,-1.7767,-1.7711,-1.7656,-1.739,-1.7278,-1.7278,-1.7278,-1.7278,-1.7278,-1.7278,-1.7278,-1.7278,-1.7278,-1.7278,-1.7081,-1.6331,-1.5839,0.0,0.0,0.0,0.0,0.0,0.0,0.0,0.0,0.0,0.0,0.0,0.0,0.0,0.0,0.0,0.0,-1.1886,-1.2242,0.0,0.0,0.0,0.0,-1.6856,0.0,-1.7723,0.0,-1.8305,-1.8735,-1.9152,-1.964,-1.9912,-2.0074,-2.0009,-2.0009,-2.0118,-2.0664,-2.109,-2.1494,-2.2084,-2.2542,-2.2859,-2.2968,-2.3001,-2.3001,0.0,0.0,0.0,0.0,0.0,0.0,0.0,-1.91,-1.8986,-1.8305,-1.8327,-1.8683,-1.9327,-1.9523,-1.9579,-1.9523,-1.9622,-1.9636,-1.9523,-1.9565,-1.982,-2.0288,-2.0302,-1.9922,-1.9073,-1.9182,-1.8173,0.0,0.0,0.0,0.0,-1.1374,0.0,0.0,0.0,0.0,0.0,-1.612,-1.7103,-1.8734,-1.8734,-1.9133,-1.9774,-2.0268,-2.0458,-2.051,-2.051,-2.051,-2.0459,-1.985,-1.9344,-1.8827,-1.8247,-1.8084,-1.803,-1.7767,-1.7711,-1.7656,-1.739,-1.7278,-1.7278,-1.7278,-1.7278,-1.7278,-1.7278,-1.7278,-1.7278,-1.7278,-1.7278,-1.7081,-1.6331,-1.671,-1.6688,0.0,0.0,0.0,0.0,0.0,0.0,0.0,0.0,0.0,0.0,0.0,0.0,0.0,0.0,0.0,0.0,-1.1712,0.0,-1.4649,0.0,-1.6092,-1.6249,-1.7122,0.0,-1.7132,-1.764,-1.8056,-1.8337,-1.8817,-1.9329,-1.9933,-1.9747,-1.9736,-1.9976,-2.0664,-2.0961,-2.1013,-2.1953,-2.2346,-2.2433,-2.2848,-2.3001,-2.3001,0.0,0.0,0.0,0.0,0.0,0.0,0.0,-1.9809,-1.9628,-1.91,-1.9432,-1.9836,-2.0215,-2.0655,-2.0741,-2.0314,-2.1055,-2.1212,-2.0328,-2.0669,-2.0826,-2.0613,-2.0613,-2.0415,-1.995,-1.9627,-1.8803,0.0,0.0,0.0,0.0,0.0,0.0,0.0,0.0,-1.5951,-1.682,-1.773,-1.8806,-1.9808,-1.9808,-2.021,-2.0759,-2.1019,-2.1068,-2.1068,-2.1068,-2.1068,-2.1019,-2.0459,-1.9901,-1.9448,-1.9186,-1.9121,-1.9069,-1.8898,-1.8536,-1.817,-1.7941,-1.7634,-1.7278,-1.7278,-1.7278,-1.7278,-1.7278,-1.7278,-1.7278,-1.7278,-1.7278,-1.7213,-1.6917,-1.6753,-1.6493,0.0,0.0,0.0,0.0,0.0,0.0,0.0,0.0,0.0,0.0,0.0,0.0,0.0,0.0,0.0,0.0,0.0,0.0,-1.4015,0.0,-1.5968,-1.6069,-1.6938,-1.7368,-1.7301,-1.7507,-1.7922,-1.8516,-1.8815,-1.9222,-1.9736,-1.9605,-1.9671,-1.9758,-2.0138,-2.0465,-2.079,-2.1544,-2.2062,-2.2379,-2.2826,-2.3001,-2.3001,-2.0077,0.0,-1.9141,0.0,-1.988,-1.9782,-2.0396,-2.048,-2.045,-2.0362,-2.0779,-2.104,-2.0941,-2.1413,-2.1542,-2.1012,-2.1916,-2.2104,-2.1026,-2.147,-2.1657,-2.1312,-2.1312,0.0,-2.0841,-2.0415,-1.9765,-1.8953,-1.8808,0.0,0.0,0.0,0.0,0.0,-1.7027,-1.7903,-1.8229,-1.936,-2.0165,-2.0752,-2.0705,-2.0996,-2.1423,-2.1423,-2.1423,-2.1423,-2.1423,-2.1423,-2.1313,-2.0957,-2.056,-2.0207,-1.9901,-1.9798,-1.9798,-1.9619,-1.9254,-1.878,-1.8661,-1.8267,-1.7909,-1.7865,-1.7865,-1.781,-1.759,-1.7534,-1.7479,-1.7334,-1.7278,-1.7278,-1.7278,-1.6765,-1.6289,-1.6233,0.0,0.0,0.0,0.0,0.0,0.0,0.0,-1.2861,0.0,0.0,0.0,0.0,0.0,0.0,0.0,0.0,0.0,0.0,0.0,0.0,0.0,-1.6896,-1.7256,-1.7357,-1.7299,-1.7723,-1.8588,-1.8955,-1.9221,-1.9473,-1.9473,-1.9473,-1.955,-1.9736,-2.0072,-2.0439,-2.1203,-2.1729,-2.2171,-2.2783,-2.3001,-2.3001,-1.9404,-1.9838,-2.0158,-2.0041,-2.0128,-2.041,-2.098,-2.1077,-2.1377,-2.2257,-2.2388,-2.2147,-2.1552,-2.1554,-2.1582,-2.1568,-2.1597,-2.1597,-2.1568,-2.1714,-2.2104,0.0,0.0,-2.2419,-2.1582,-2.1568,-2.114,-2.0188,0.0,0.0,-1.8622,0.0,-1.8099,-1.9252,-1.903,-1.9678,-2.0822,-2.0653,-2.0961,-2.1541,-2.1458,-2.141,-2.1423,-2.1423,-2.1423,-2.1423,-2.1423,-2.1423,-2.1423,-2.1375,-2.1375,-2.1215,-2.0156,-1.9798,-1.9798,-1.9619,-1.9619,-1.9567,-1.9423,-1.9371,-1.9319,-1.9239,-1.9186,-1.8963,-1.8255,-1.8093,-1.7941,-1.7434,-1.7278,-1.7278,-1.7278,-1.6863,-1.6319,-1.5696,0.0,0.0,0.0,0.0,0.0,0.0,0.0,-1.1734,-1.1794,0.0,0.0,0.0,0.0,0.0,0.0,0.0,0.0,-1.5028,-1.5524,0.0,-1.6863,-1.6983,-1.7011,-1.7011,-1.674,-1.718,-1.8222,-1.9169,-1.9396,-1.9131,-1.9285,-1.9285,-1.9351,-1.9539,-1.9736,-1.9975,-2.0935,-2.1452,-2.1712,-2.2652,-2.3001,-2.3001,-2.1541,-2.1366,-2.1191,-2.1569,-2.1685,-2.171,-2.1815,-2.1843,-2.1959,-2.2249,-2.2324,-2.2346,-2.2133,-2.2209,-2.2269,0.0,-2.2269,-2.2269,0.0,-2.2433,-2.2579,-2.2795,-2.2826,-2.2725,-2.2403,-2.1842,-2.1326,-2.0897,0.0,0.0,0.0,-1.9614,-1.9529,-1.9864,-2.0137,-2.0521,-2.0923,-2.1244,-2.1485,-2.1616,-2.1664,-2.1616,-2.1568,-2.1568,-2.1568,-2.152,-2.1423,-2.1423,-2.1423,-2.1423,-2.1583,-2.182,-2.1467,-2.1088,-2.0772,-2.0709,-2.0295,-1.9876,-1.9837,-1.9527,-1.9226,-1.9081,-1.9133,-1.9133,-1.8815,-1.8375,-1.8038,-1.7886,-1.7843,-1.7843,-1.7843,-1.7436,-1.6949,-1.6441,0.0,0.0,0.0,0.0,0.0,0.0,0.0,-1.2925,0.0,-1.205,0.0,0.0,0.0,0.0,0.0,0.0,0.0,0.0,-1.5139,0.0,-1.662,-1.6784,-1.6909,-1.7011,-1.6637,-1.6957,-1.7874,-1.905,-1.9407,-1.9142,-1.9208,-1.9285,-1.9208,-1.9473,-1.9671,-1.9801,-2.0704,-2.1297,-2.1669,-2.2302,-2.2739,-2.3001,-2.2232,-2.2098,-2.1962,-2.2406,-2.2417,-2.237,-2.2278,-2.2231,-2.2184,-2.2184,-2.2278,-2.2324,-2.2324,-2.2417,0.0,-2.2509,-2.2509,-2.2509,-2.2509,-2.2629,-2.2735,-2.2735,-2.2766,-2.2766,-2.2735,0.0,0.0,-2.1839,-2.0726,-2.0571,-2.137,-2.0969,-2.0895,-2.1119,-2.1349,-2.1471,-2.1485,-2.1782,-2.1841,-2.1746,-2.1746,-2.1746,-2.1746,-2.1712,-2.1746,-2.1835,-2.1911,-2.1944,-2.1972,-2.2218,-2.2446,-2.2709,-2.2709,-2.2349,-2.1847,-2.1519,-2.1101,-2.0681,-2.0423,-2.0156,-1.9862,-1.972,-1.9772,-1.972,-1.9396,-1.8857,-1.8429,-1.8429,-1.8255,-1.8093,-1.8093,-1.7395,-1.6683,-1.6418,-1.5443,-1.4616,-1.4323,0.0,0.0,0.0,0.0,0.0,0.0,-1.2765,0.0,0.0,0.0,0.0,0.0,0.0,0.0,-1.4612,-1.5196,0.0,-1.6798,-1.677,-1.6864,-1.6909,-1.7053,-1.7301,-1.7761,-1.8996,-1.9407,-1.9075,-1.9208,-1.9208,-1.9142,-1.9341,-1.9473,-1.9658,-2.0396,-2.0978,-2.1396,-2.2073,-2.2499,-2.2772,-2.1815,-2.2169,0.0,0.0,-2.2523,0.0,-2.2417,-2.2278,-2.2231,-2.2184,-2.2184,-2.2184,-2.2184,-2.2184,-2.2231,-2.237,0.0,0.0,0.0,-2.2509,-2.2615,-2.2615,-2.2615,-2.2615,-2.2615,-2.2601,-2.2689,-2.2913,-2.2878,-2.2585,-2.2062,-2.1932,-2.2205,-2.2809,-2.2523,-2.2417,-2.237,-2.2137,-2.2058,-2.2052,-2.1815,-2.189,-2.2122,-2.1979,-2.2122,-2.2381,-2.2811,-2.2972,-2.3055,-2.3553,-2.3723,-2.3765,-2.3765,-2.3453,-2.299,-2.2203,-2.1965,-2.1794,-2.1262,-2.1076,-2.1014,-2.0941,-2.0914,-2.0725,-2.0016,-1.9448,-1.904,-1.904,-1.859,-1.8201,-1.8201,-1.6976,-1.5928,-1.5928,-1.5055,-1.4419,-1.4373,0.0,0.0,0.0,0.0,0.0,0.0,-1.3149,-1.3361,0.0,0.0,0.0,0.0,0.0,-1.3183,-1.5318,-1.559,-1.6158,-1.7267,-1.6987,-1.6818,-1.6772,-1.7754,-1.8017,-1.7761,-1.8986,-1.9407,-1.9075,-1.9142,-1.9131,-1.9131,-1.9131,-1.9341,-1.9647,-2.0094,-2.0557,-2.1037,-2.192,-2.2291,-2.239,0.0,0.0,-2.2766,-2.2735,-2.2749,-2.2644,-2.2417,-2.237,-2.2324,-2.2231,-2.2184,-2.2184,-2.2184,-2.2184,-2.2231,-2.2231,-2.2231,-2.2231,-2.2231,-2.237,-2.2463,-2.2463,-2.2555,-2.2615,-2.2615,-2.2512,-2.2601,-2.2896,-2.2768,-2.2682,-2.2698,-2.2579,-2.2651,-2.2795,-2.2629,-2.2509,-2.2417,-2.2324,-2.2451,-2.2679,-2.2824,-2.3133,-2.3468,-2.3417,-2.3468,-2.3482,-2.3534,-2.3525,-2.3553,-2.3654,-2.3882,-2.4147,-2.4147,-2.4314,-2.4312,-2.3084,-2.2512,-2.2233,-2.2101,-2.1786,-2.1508,-2.1367,-2.104,-2.0712,-2.0549,-2.0016,-1.9604,-1.9604,-1.9488,-1.9371,-1.9371,-1.8449,-1.7472,-1.7046,-1.5751,-1.4686,-1.4316,-1.4233,0.0,0.0,-1.4117,-1.4074,-1.3807,-1.3868,-1.3886,0.0,0.0,0.0,0.0,0.0,-1.4591,-1.536,-1.5902,-1.6483,-1.7067,-1.6864,-1.6705,-1.6498,-1.7415,-1.7791,-1.7761,-1.8866,-1.9274,-1.9142,-1.9208,-1.9274,-1.9274,-1.9407,-1.9605,-1.9813,-1.9931,-2.04,-2.0937,-2.1398,-2.1854,-2.239,-2.283,-2.2888,-2.2902,-2.2872,-2.2841,-2.2749,-2.2598,-2.2523,-2.2449,-2.2328,-2.2296,-2.2263,-2.2189,-2.2203,-2.2184,-2.2184,-2.2184,-2.2184,-2.2184,-2.2278,-2.2324,-2.2324,-2.237,-2.2417,-2.2417,-2.2342,-2.2402,-2.2686,-2.2555,-2.2601,-2.2764,-2.2749,-2.2833,-2.3105,-2.2744,-2.2712,-2.289,-2.2843,-2.2932,-2.3126,-2.3421,-2.3744,-2.4039,-2.3988,-2.4039,-2.4132,-2.4325,-2.4385,-2.4427,-2.464,-2.4841,-2.5037,-2.5037,-2.5122,-2.5065,-2.4341,-2.3581,-2.292,-2.2643,-2.2299,-2.1957,-2.1577,-2.1276,-2.0976,-2.0764,-2.0448,-2.022,-2.022,-2.0016,-1.9798,-1.9798,-1.8734,-1.7713,-1.7327,-1.6115,-1.504,-1.449,-1.4444,0.0,-1.414,-1.4617,-1.4796,-1.4451,-1.4849,-1.493,-1.4462,0.0,0.0,-1.4355,-1.5157,-1.5607,-1.5496,-1.602,-1.6493,-1.7,-1.6797,-1.6591,-1.6394,-1.7355,-1.7791,-1.7771,-1.8802,-1.9208,-1.9075,-1.9208,-1.9208,-1.9208,-1.9341,-1.9539,-1.9736,-1.9736,-2.0106,-2.0598,-2.0942,-2.1501,-2.2051,-2.2888,-2.2888,-2.2888,-2.2888,-2.2872,-2.2795,-2.2809,-2.2675,-2.2586,-2.2423,-2.2434,-2.2402,-2.2225,-2.2235,-2.2231,-2.2184,-2.2269,-2.2283,-2.2184,-2.2184,-2.2184,-2.2184,-2.2184,-2.2184,-2.2184,-2.2184,-2.2278,-2.237,-2.236,-2.2452,-2.2555,-2.2655,-2.2983,-2.3469,-2.304,-2.3093,-2.3592,-2.3433,-2.3406,-2.3533,-2.3881,-2.4184,-2.4394,-2.4292,-2.4408,-2.4682,-2.5133,-2.5331,-2.5364,-2.5779,-2.5893,-2.5893,-2.5893,-2.5743,-2.555,-2.555,-2.4791,-2.3821,-2.3299,-2.2842,-2.2428,-2.1734,-2.1511,-2.1303,-2.078,-2.0662,-2.0662,-2.0662,-2.0283,-1.9965,-1.9965,-1.8685,-1.7509,-1.723,-1.6359,-1.5445,-1.4755,0.0,-1.4697,-1.4378,-1.5166,-1.5541,-1.5023,-1.5892,-1.6103,-1.5074,-1.5542,-1.5596,0.0,-1.6038,-1.6362,-1.5739,-1.6074,-1.6502,-1.6955,-1.674,-1.6524,-1.6394,-1.7476,-1.7853,-1.7771,-1.8802,-1.9208,-1.9075,-1.9075,-1.9131,-1.9131,-1.9131,-1.9341,-1.9605,-1.9539,-1.9747,-2.014,-2.0619,-2.1166,-2.1658,-2.2888,-2.2888,-2.2888,-2.2888,-2.2902,-2.2872,-2.2795,-2.2721,-2.2632,-2.2409,-2.254,-2.2523,-2.2225,-2.2282,-2.2324,-2.2231,-2.2662,-2.2732,-2.2212,-2.2184,-2.2184,-2.2184,-2.2184,-2.2184,-2.2184,-2.2184,-2.2231,-2.2231,-2.2217,-2.231,-2.2431,-2.2956,-2.3302,-2.3512,-2.3724,-2.3828,-2.3912,-2.3761,-2.3951,-2.4318,-2.4535,-2.4922,-2.5436,-2.5436,-2.5544,-2.5666,-2.5765,-2.5807,-2.5821,-2.5865,-2.5893,-2.5893,-2.5893,-2.5839,-2.5853,-2.5853,-2.5522,-2.5162,-2.4761,-2.4091,-2.3243,-2.2166,-2.1629,-2.1212,-2.0641,-2.0511,-2.0511,-2.0511,-2.0562,-2.0549,-2.0549,-1.9538,-1.8329,-1.7254,-1.6611,-1.5788,-1.4674,0.0,-1.5519,-1.5881,-1.6209,-1.6338,-1.623,-1.6394,-1.6435,-1.621,-1.6266,-1.6276,-1.6242,-1.6841,-1.6929,-1.6373,-1.6841,-1.7024,-1.6807,-1.6694,-1.6524,-1.6394,-1.7295,-1.7729,-1.7698,-1.8661,-1.9142,-1.9075,-1.9075,-1.9142,-1.9285,-1.9285,-1.9407,-1.9605,-1.9407,-1.9605,-1.9998,-2.0283,-2.0892,-2.1658,-2.3377,-2.3142,-2.2888,-2.2888,-2.2992,-2.2992,-2.2872,-2.2902,-2.2843,-2.2709,-2.2735,-2.2764,-2.2569,-2.2879,-2.3075,-2.3027,-2.3392,-2.3505,-2.3259,-2.3245,-2.3245,-2.3245,-2.3245,-2.3245,-2.3245,-2.2521,-2.2339,-2.2676,-2.2594,-2.2474,-2.2292,-2.3119,-2.3518,-2.3681,-2.3825,-2.4096,-2.4351,-2.4298,-2.4399,-2.4637,-2.4983,-2.5342,-2.5592,-2.5592,-2.5647,-2.5702,-2.5798,-2.5784,-2.5784,-2.5893,-2.5893,-2.5893,-2.5893,-2.5893,-2.5893,-2.5893,-2.5702,-2.5439,-2.5075,-2.4703,-2.4092,-2.2843,-2.2391,-2.193,-2.0794,-2.0536,-2.0536,-2.0511,-2.0562,-2.0612,-2.0712,-1.9956,-1.918,-1.8532,-1.7664,0.0,0.0,-1.6028,-1.6214,-1.6174,-1.7135,-1.7678,-1.7361,-1.7897,-1.7899,-1.6938,-1.7089,-1.7122,-1.6897,-1.7038,-1.7147,-1.7233,-1.7181,-1.6976,-1.6694,-1.6627,-1.6524,-1.6394,-1.7305,-1.7729,-1.7884,-1.8726,-1.9142,-1.9208,-1.9131,-1.9142,-1.9208,-1.9208,-1.9274,-1.9407,-1.9351,-1.9473,-1.9768,-1.986,-2.054,-2.1485,-2.3794,-2.3436,-2.3068,-2.2992,-2.3201,-2.329,-2.3008,-2.3009,-2.3024,-2.3023,-2.2991,-2.2975,-2.29,-2.3285,-2.3622,-2.3928,-2.3921,-2.4019,-2.4315,-2.4329,-2.4272,-2.4118,-2.4118,-2.4118,-2.4118,-2.3202,-2.2949,-2.3322,-2.3294,-2.3007,-2.26,-2.3405,-2.3851,-2.3969,-2.4055,-2.4374,-2.4803,-2.4762,-2.4762,-2.4804,-2.5246,-2.5369,-2.5439,-2.5439,-2.5439,-2.5494,-2.5647,-2.5633,-2.5688,-2.5798,-2.5853,-2.5839,-2.5839,-2.5893,-2.5893,-2.5893,-2.5743,-2.5536,-2.5286,-2.5174,-2.4817,-2.3675,-2.3137,-2.2603,-2.1257,-2.0814,-2.0673,-2.0549,-2.0562,-2.0612,-2.0712,-2.0191,-1.9703,-1.9484,0.0,0.0,0.0,-1.7168,-1.7125,-1.6931,-1.8166,-1.8871,-1.8467,-1.928,-1.9211,-1.7722,-1.7951,-1.8009,-1.7658,-1.7519,-1.7611,-1.7952,-1.7335,-1.6842,-1.657,-1.6627,-1.6581,-1.6394,-1.7355,-1.7853,-1.7946,-1.8791,-1.9208,-1.9285,-1.9142,-1.9075,-1.9075,-1.9075,-1.9142,-1.9274,-1.9274,-1.9341,-1.955,-1.955,-2.0204,-2.107,-2.3879,-2.3767,-2.3625,-2.3216,-2.3538,-2.3709,-2.3275,-2.3024,-2.2993,-2.3231,-2.3201,-2.3097,-2.2906,-2.2963,-2.3397,-2.4557,-2.3865,-2.3823,-2.4878,-2.491,-2.4709,-2.4132,-2.4118,-2.4118,-2.4118,-2.4368,-2.434,-2.4047,-2.4179,-2.41,-2.3673,-2.4182,-2.4433,-2.446,-2.4902,-2.512,-2.5161,-2.505,-2.4993,-2.4993,-2.5048,-2.5118,-2.523,-2.523,-2.5369,-2.5494,-2.5494,-2.5494,-2.5494,-2.555,-2.5592,-2.5729,-2.5729,-2.5784,-2.5893,-2.5893,-2.5893,-2.5839,-2.5839,-2.5633,-2.5329,-2.4652,-2.3621,-2.2671,-2.2018,-2.1446,-2.0885,-2.066,-2.0785,-2.0898,-2.0749,-2.0191,-1.9594,-1.9032,0.0,0.0,-1.7877,-1.8185,-1.8669,-1.9278,-1.9468,-1.9579,-1.9685,-1.9722,-1.9527,-1.8927,-1.891,-1.8922,-1.8874,-1.8857,-1.8602,-1.8093,-1.739,-1.6842,-1.657,-1.6694,-1.6648,-1.6394,-1.7476,-1.7915,-1.7761,-1.8802,-1.9208,-1.9131,-1.9075,-1.9075,-1.9075,-1.9075,-1.9142,-1.9131,-1.9131,-1.9208,-1.9351,-1.9351,-1.98,-2.0371,-2.4997,-2.4533,-2.4051,-2.3897,-2.4254,-2.4487,-2.4374,-2.4088,-2.4036,-2.4384,-2.4223,-2.3937,-2.355,-2.3807,-2.4058,-2.4253,-2.4431,-2.4582,-2.4631,-2.5279,-2.5497,-2.5098,-2.4615,-2.4549,-2.4952,-2.4323,-2.4114,-2.4368,-2.4332,-2.4086,-2.3671,-2.4436,-2.4627,-2.4422,-2.4845,-2.5061,-2.5061,-2.5005,-2.5005,-2.5005,-2.5005,-2.5005,-2.5061,-2.5061,-2.5118,-2.5188,-2.5272,-2.5369,-2.5522,-2.5619,-2.5689,-2.5813,-2.5798,-2.5839,-2.5893,-2.5893,-2.5839,-2.5784,-2.5893,-2.5729,-2.548,-2.4761,-2.4148,-2.3406,-2.219,-2.1739,-2.1422,-2.0838,-2.0809,-2.0871,-2.0898,-2.0713,-2.0483,-2.0187,0.0,-1.9188,-1.8559,-1.8896,-1.9206,-1.9089,-1.9794,-2.0302,-2.0359,-2.0334,-2.0067,-1.9423,-1.9371,-1.9371,-1.9371,-1.9371,-1.915,-1.8596,-1.7972,-1.739,-1.6751,-1.6751,-1.6648,-1.6384,-1.7064,-1.7622,-1.8038,-1.8553,-1.9002,-1.9407,-1.9208,-1.9075,-1.9075,-1.9075,-1.9075,-1.9075,-1.9075,-1.9131,-1.9208,-1.9208,-1.9634,-2.017,-2.5749,-2.5201,-2.463,-2.4614,-2.4894,-2.506,-2.4947,-2.4838,-2.4867,-2.5123,-2.4854,-2.4692,-2.4813,-2.4729,-2.4817,-2.5077,-2.5047,-2.4999,-2.4907,-2.5654,-2.5991,-2.5879,-2.5148,-2.5025,-2.5592,-2.472,-2.4378,-2.4791,-2.4682,-2.4409,-2.4132,-2.4736,-2.4844,-2.4518,-2.4885,-2.5005,-2.5005,-2.5005,-2.5005,-2.5005,-2.5005,-2.5005,-2.5005,-2.5005,-2.5005,-2.5005,-2.509,-2.5244,-2.5341,-2.5453,-2.555,-2.5702,-2.5688,-2.5729,-2.5743,-2.5674,-2.5535,-2.5369,-2.5618,-2.5535,-2.5285,-2.4995,-2.4693,-2.4067,-2.2908,-2.2533,-2.2172,-2.1356,-2.1223,-2.1232,-2.1023,-2.0997,-2.0997,-2.0924,-2.0518,-2.0,-1.9504,-1.9812,-1.9904,-1.9504,-2.024,-2.0799,-2.0799,-2.0762,-2.0549,-2.0055,-1.9952,-1.994,-2.0003,-1.9888,-1.9658,-1.9334,-1.8768,-1.8201,-1.7545,-1.7067,-1.6853,-1.6807,-1.6994,-1.7455,-1.8027,-1.8375,-1.8835,-1.9407,-1.9208,-1.9075,-1.9075,-1.9075,-1.9075,-1.9075,-1.9075,-1.9075,-1.9075,-1.9075,-1.9406,-1.9813,-2.595,-2.5637,-2.5301,-2.5291,-2.5427,-2.5287,-2.4626,-2.5026,-2.5394,-2.5298,-2.4958,-2.5242,-2.6646,-2.5543,-2.546,-2.734,-2.5623,-2.4863,-2.5939,-2.5998,-2.6112,-2.6312,-2.5701,-2.5467,-2.5893,-2.5647,-2.5494,-2.5494,-2.53,-2.5174,-2.5174,-2.5061,-2.5005,-2.5005,-2.5005,-2.5005,-2.5005,-2.5005,-2.5005,-2.5005,-2.5005,-2.5005,-2.5005,-2.5005,-2.5005,-2.5005,-2.5005,-2.5005,-2.4991,-2.5009,-2.5092,-2.5174,-2.5174,-2.5369,-2.5439,-2.5244,-2.4915,-2.468,-2.5066,-2.4902,-2.4747,-2.5521,-2.516,-2.4555,-2.434,-2.3822,-2.3169,-2.2288,-2.2204,-2.2028,-2.1153,-2.0997,-2.0997,-2.0997,-2.0997,-2.0997,-2.0875,-2.0961,-2.0947,-2.0888,-2.0961,-2.0997,-2.0997,-2.0924,-2.0901,-2.0901,-2.0775,-2.0762,-2.0901,-2.0472,-2.0232,-2.0232,-1.9683,-1.9294,-1.9101,-1.7743,-1.7213,-1.7578,-1.737,-1.7455,-1.775,-1.8396,-1.8846,-1.9075,-1.9075,-1.9075,-1.9075,-1.9075,-1.9075,-1.9075,-1.9075,-1.9075,-1.9075,-1.9075,-1.9075,-1.9142,-2.5791,-2.577,-2.5659,-2.54,-2.5724,-2.581,-2.5281,-2.5627,-2.5945,-2.5942,-2.584,-2.5793,-2.5879,-2.5506,-2.5368,-2.5645,-2.5358,-2.5648,-2.6765,-2.6449,-2.6662,-2.767,-2.6428,-2.5674,-2.5592,-2.555,-2.5369,-2.5131,-2.5061,-2.5061,-2.5061,-2.5005,-2.5005,-2.5005,-2.5005,-2.5005,-2.5005,-2.5005,-2.5005,-2.5005,-2.5005,-2.5005,-2.5005,-2.5005,-2.5005,-2.5005,-2.5005,-2.5032,-2.5129,-2.5145,-2.5256,-2.5381,-2.5397,-2.5369,-2.53,-2.5369,-2.5232,-2.5066,-2.5314,-2.5218,-2.5066,-2.53,-2.5204,-2.4847,-2.4273,-2.4042,-2.3689,-2.3026,-2.2566,-2.22,-2.1974,-2.156,-2.1229,-2.118,-2.1131,-2.0997,-2.05,-2.0744,-2.0837,-2.0452,-2.0744,-2.0997,-2.0997,-2.0997,-2.0961,-2.0961,-2.0947,-2.0947,-2.1095,-2.0885,-2.0822,-2.0921,-2.0359,-2.0245,-2.0584,-1.8967,-1.8178,-1.8244,-1.7578,-1.7705,-1.8527,-1.8175,-1.8478,-1.9208,-1.9142,-1.9075,-1.9075,-1.9075,-1.9075,-1.9075,-1.9075,-1.9075,-1.9075,-1.9075,-1.9075,-1.9142,-2.5901,-2.5881,-2.5844,-2.568,-2.5875,-2.6015,-2.5754,-2.5959,-2.6151,-2.6184,-2.622,-2.6178,-2.6188,-2.5938,-2.5875,-2.6172,-2.639,-2.6814,-2.7548,-2.7257,-2.741,-2.8258,-2.7348,-2.6602,-2.6165,-2.6056,-2.5729,-2.5188,-2.5188,-2.5131,-2.5005,-2.5005,-2.5005,-2.5005,-2.5005,-2.5005,-2.5005,-2.5005,-2.5005,-2.5005,-2.5005,-2.5005,-2.5005,-2.5005,-2.4948,-2.4892,-2.4905,-2.4932,-2.4959,-2.4986,-2.507,-2.5141,-2.5116,-2.5075,-2.5005,-2.5089,-2.4749,-2.4422,-2.4778,-2.4545,-2.4285,-2.4654,-2.4996,-2.5024,-2.4259,-2.4299,-2.4299,-2.3662,-2.3105,-2.259,-2.2346,-2.1817,-2.1375,-2.1277,-2.1277,-2.1108,-2.0649,-2.0917,-2.0997,-2.0649,-2.0917,-2.118,-2.118,-2.1082,-2.1033,-2.0997,-2.1033,-2.1082,-2.118,-2.118,-2.118,-2.1277,-2.097,-2.097,-2.1277,-2.0181,-1.9451,-1.915,-1.8178,-1.8238,-1.9147,-1.8758,-1.8967,-1.963,-1.9629,-1.9639,-1.9704,-1.9704,-1.9824,-2.0074,-1.9835,-1.9704,-1.9639,-1.9264,-1.9075,-1.9075,-2.6168,-2.6043,-2.5917,-2.599,-2.5954,-2.5934,-2.6026,-2.601,-2.6043,-2.6267,-2.6217,-2.6485,-2.7234,-2.6634,-2.6693,-2.8003,-2.8083,-2.8127,-2.822,-2.8287,-2.8381,-2.8465,-2.8432,-2.811,-2.7357,-2.7004,-2.6443,-2.5702,-2.5702,-2.5481,-2.5078,-2.5077,-2.5077,-2.498,-2.4978,-2.5005,-2.5005,-2.5005,-2.4964,-2.498,-2.4991,-2.4964,-2.498,-2.4991,-2.4892,-2.4848,-2.4832,-2.4717,-2.4647,-2.4585,-2.4616,-2.4563,-2.4607,-2.462,-2.4563,-2.4607,-2.3928,-2.3246,-2.3782,-2.3377,-2.2906,-2.3784,-2.4504,-2.4901,-2.4299,-2.4625,-2.4842,-2.4313,-2.3676,-2.308,-2.2495,-2.1898,-2.1477,-2.1423,-2.1423,-2.1375,-2.1229,-2.1326,-2.1375,-2.1229,-2.1326,-2.1423,-2.1423,-2.1277,-2.118,-2.1033,-2.1131,-2.1229,-2.1229,-2.1326,-2.1423,-2.1423,-2.1423,-2.1423,-2.1423,-2.118,-2.0772,-2.0232,-1.915,-1.9,-1.9665,-1.9806,-1.998,-2.0305,-2.0366,-2.0515,-2.0707,-2.0707,-2.1078,-2.1569,-2.0951,-2.0707,-2.059,-1.9639,-1.933,-1.9264,-2.6026,-2.597,-2.597,-2.6132,-2.6007,-2.597,-2.6132,-2.6007,-2.6167,-2.6817,-2.6389,-2.6379,-2.7197,-2.6634,-2.6531,-2.7278,-2.8183,-2.863,-2.8511,-2.9157,-2.9548,-2.956,-2.956,-2.9446,-2.9328,-2.8232,-2.7419,-2.6983,-2.6983,-2.6579,-2.5872,-2.5905,-2.557,-2.4843,-2.4955,-2.5005,-2.5005,-2.5005,-2.4942,-2.4856,-2.4969,-2.4929,-2.487,-2.4983,-2.5005,-2.4962,-2.4855,-2.4767,-2.4767,-2.4611,-2.4487,-2.4421,-2.4549,-2.4492,-2.4421,-2.4549,-2.4433,-2.4259,-2.4393,-2.4023,-2.3582,-2.3326,-2.342,-2.3838,-2.4639,-2.4924,-2.4964,-2.4842,-2.434,-2.3689,-2.3094,-2.2536,-2.1966,-2.1505,-2.1423,-2.1375,-2.1375,-2.1375,-2.1375,-2.1375,-2.1375,-2.1423,-2.1423,-2.1375,-2.1326,-2.1326,-2.1326,-2.1375,-2.1375,-2.1375,-2.1423,-2.1423,-2.1423,-2.1423,-2.1423,-2.1326,-2.1131,-2.0835,-1.9952,-1.9812,-2.0333,-2.0181,-2.0417,-2.1009,-2.1334,-2.1545,-2.172,-2.172,-2.1782,-2.1906,-2.172,-2.1557,-2.1381,-2.1129,-2.0899,-2.0613,-2.6258,-2.617,-2.6134,-2.6222,-2.6026,-2.597,-2.6079,-2.5917,-2.5975,-2.648,-2.6184,-2.6138,-2.6627,-2.6607,-2.6944,-2.7896,-2.8828,-2.9345,-2.9237,-2.9659,-2.9918,-2.9918,-2.9918,-2.9895,-2.9894,-2.9215,-2.8465,-2.7655,-2.7655,-2.7325,-2.6733,-2.677,-2.6497,-2.6038,-2.5678,-2.5547,-2.5494,-2.5092,-2.4852,-2.4751,-2.4856,-2.4838,-2.4736,-2.4815,-2.4856,-2.4792,-2.4639,-2.453,-2.4437,-2.4398,-2.43,-2.4203,-2.4332,-2.4274,-2.4203,-2.4332,-2.4191,-2.4023,-2.4023,-2.371,-2.3299,-2.3058,-2.303,-2.3298,-2.396,-2.4381,-2.4666,-2.4951,-2.453,-2.3947,-2.3297,-2.2726,-2.2101,-2.1518,-2.1423,-2.1423,-2.1423,-2.1423,-2.1423,-2.1423,-2.1423,-2.1423,-2.1423,-2.1423,-2.1423,-2.1423,-2.1423,-2.1423,-2.1423,-2.1423,-2.1423,-2.1423,-2.1423,-2.1423,-2.1423,-2.1423,-2.1326,-2.118,-2.0623,-2.0564,-2.0965,-2.1247,-2.1456,-2.1724,-2.227,-2.2615,-2.2737,-2.2724,-2.2892,-2.3144,-2.2832,-2.2603,-2.2421,-2.1818,-2.1404,-2.1071,-2.6485,-2.6382,-2.6295,-2.6295,-2.6099,-2.597,-2.6026,-2.5864,-2.5824,-2.6061,-2.5963,-2.6016,-2.6299,-2.6864,-2.7662,-2.8786,-2.9524,-2.9918,-2.9918,-2.9918,-2.9918,-2.9918,-2.9918,-2.9918,-2.9918,-2.9918,-2.938,-2.824,-2.824,-2.7987,-2.7497,-2.7584,-2.7584,-2.7482,-2.6664,-2.6302,-2.6253,-2.5558,-2.512,-2.4912,-2.4981,-2.4897,-2.4675,-2.4693,-2.4639,-2.4612,-2.444,-2.4368,-2.4275,-2.4173,-2.4253,-2.4363,-2.4155,-2.4137,-2.4144,-2.4097,-2.3839,-2.3537,-2.3537,-2.3239,-2.291,-2.3018,-2.3004,-2.3004,-2.3257,-2.3635,-2.4137,-2.4734,-2.4462,-2.3974,-2.3432,-2.2823,-2.2214,-2.1667,-2.1442,-2.1375,-2.1423,-2.1423,-2.1423,-2.1423,-2.1423,-2.1423,-2.1423,-2.1423,-2.1423,-2.1423,-2.1423,-2.1423,-2.1423,-2.1423,-2.1423,-2.1423,-2.1423,-2.1423,-2.1423,-2.1423,-2.1423,-2.1423,-2.118,-2.118,-2.1415,-2.219,-2.2432,-2.2323,-2.3051,-2.3482,-2.367,-2.3748,-2.4079,-2.4523,-2.3962,-2.3715,-2.3539,-2.2384,-2.1655,-2.1376,-2.633,-2.6295,-2.6295,-2.6295,-2.6222,-2.6168,-2.6168,-2.6007,-2.611,-2.6749,-2.629,-2.6335,-2.7532,-2.82,-2.8647,-2.8884,-2.9524,-2.9918,-2.9918,-2.9918,-2.9918,-2.9918,-2.9918,-2.9918,-2.9918,-2.9918,-2.9814,-2.9621,-2.9621,-2.9054,-2.7921,-2.8264,-2.8264,-2.7921,-2.7446,-2.7225,-2.724,-2.7075,-2.6553,-2.574,-2.584,-2.5349,-2.4548,-2.465,-2.4681,-2.4654,-2.4462,-2.4745,-2.5137,-2.4395,-2.4792,-2.5384,-2.4463,-2.4334,-2.4416,-2.4243,-2.4083,-2.3995,-2.3995,-2.3664,-2.3316,-2.3316,-2.3069,-2.2951,-2.3512,-2.346,-2.3473,-2.4123,-2.4177,-2.4096,-2.4015,-2.3393,-2.2719,-2.2278,-2.1664,-2.1277,-2.1375,-2.1423,-2.1423,-2.1423,-2.1423,-2.1423,-2.1423,-2.1423,-2.1423,-2.1423,-2.1423,-2.1423,-2.1423,-2.1423,-2.1423,-2.1423,-2.1423,-2.1423,-2.1423,-2.1423,-2.1423,-2.1423,-2.1375,-2.1375,-2.1402,-2.1914,-2.2224,-2.2342,-2.3379,-2.3901,-2.4052,-2.4619,-2.4821,-2.4935,-2.4821,-2.4637,-2.4279,-2.3603,-2.2919,-2.2359,-2.6399,-2.6399,-2.6399,-2.6399,-2.631,-2.622,-2.622,-2.6023,-2.6012,-2.6323,-2.6094,-2.6253,-2.7183,-2.8126,-2.8823,-2.921,-2.9548,-2.9802,-2.9895,-2.9891,-2.9918,-2.9918,-2.9918,-2.9918,-2.9918,-2.9918,-2.9918,-2.9918,-2.9918,-2.9604,-2.907,-2.9262,-2.923,-2.901,-2.8338,-2.8,-2.8,-2.7546,-2.7057,-2.6588,-2.6732,-2.6428,-2.5901,-2.5454,-2.5287,-2.5364,-2.5154,-2.5214,-2.5394,-2.5507,-2.5869,-2.6121,-2.5322,-2.5368,-2.5506,-2.4773,-2.4733,-2.4844,-2.4365,-2.4109,-2.3811,-2.3555,-2.3271,-2.3175,-2.3163,-2.3058,-2.3138,-2.3838,-2.3798,-2.3581,-2.3581,-2.3351,-2.292,-2.2299,-2.1938,-2.1605,-2.1331,-2.1277,-2.1326,-2.1375,-2.1423,-2.1423,-2.1423,-2.1423,-2.1423,-2.1423,-2.1423,-2.1423,-2.1423,-2.1423,-2.1375,-2.1277,-2.1375,-2.1375,-2.1277,-2.1375,-2.1423,-2.1423,-2.1326,-2.1326,-2.1437,-2.1934,-2.2255,-2.2373,-2.3487,-2.4068,-2.4177,-2.4761,-2.5005,-2.5005,-2.5005,-2.4821,-2.4452,-2.4176,-2.3813,-2.3386]},{"header":{"parameterUnit":"m.s-1","parameterCategory":1,"la1":30.6,"la2":28.766,"lo1":-90.7593,"lo2":-88.6598,"dy":0.0162,"dx":0.0183,"nx":116,"ny":114,"refTime":"2024-05-25T12:00:00:Z","depth":0,"parameterNumber":3,"parameterNumberName":"V-component_of_WINDS"},"data":[0.0,0.0,0.0,0.0,0.0,0.0,0.0,0.0,0.0,0.0,0.0,0.0,0.0,0.0,0.0,0.0,0.0,0.0,0.0,0.0,0.0,0.0,0.0,0.0,0.0,0.0,0.0,0.0,0.0,0.0,0.0,0.0,0.0,0.0,0.0,0.0,0.0,0.0,0.0,0.0,0.0,0.0,0.0,0.0,0.0,0.0,0.0,0.0,0.0,0.0,0.0,0.0,0.0,0.0,0.0,0.0,0.0,0.0,0.0,0.0,0.0,0.0,0.0,0.0,0.0,0.0,0.0,0.0,0.0,0.0,0.0,0.0,0.0,0.0,0.0,0.0,0.0,0.0,0.0,0.0,0.0,0.0,0.0,0.0,0.0,0.0,0.0,0.0,0.0,0.0,0.0,0.0,0.0,0.0,0.0,0.0,0.0,0.0,0.0,0.0,0.0,0.0,0.0,0.0,0.0,0.0,0.0,0.0,0.0,0.0,0.0,0.0,0.0,0.0,0.0,0.0,0.0,0.0,0.0,0.0,0.0,0.0,0.0,0.0,0.0,0.0,0.0,0.0,0.0,0.0,0.0,0.0,0.0,0.0,0.0,0.0,0.0,0.0,0.0,0.0,0.0,0.0,0.0,0.0,0.0,0.0,0.0,0.0,0.0,0.0,0.0,0.0,0.0,0.0,0.0,0.0,0.0,0.0,0.0,0.0,0.0,0.0,0.0,0.0,0.0,0.0,0.0,0.0,0.0,0.0,0.0,0.0,0.0,0.0,0.0,0.0,0.0,0.0,0.0,0.0,0.0,0.0,0.0,0.0,0.0,0.0,0.0,0.0,0.0,0.0,0.0,0.0,0.0,0.0,0.0,0.0,0.0,0.0,0.0,0.0,0.0,0.0,0.0,0.0,0.0,0.0,0.0,0.0,0.0,0.0,0.0,0.0,0.0,0.0,0.0,0.0,0.0,0.0,0.0,0.0,0.0,0.0,0.0,0.0,0.0,0.0,0.0,0.0,0.0,0.0,0.0,0.0,0.0,0.0,0.0,0.0,0.0,0.0,0.0,0.0,0.0,0.0,0.0,0.0,0.0,0.0,0.0,0.0,0.0,0.0,0.0,0.0,0.0,0.0,0.0,0.0,0.0,0.0,0.0,0.0,0.0,0.0,0.0,0.0,0.0,0.0,0.0,0.0,0.0,0.0,0.0,0.0,0.0,0.0,0.0,0.0,0.0,0.0,0.0,0.0,0.0,0.0,0.0,0.0,0.0,0.0,0.0,0.0,0.0,0.0,0.0,0.0,0.0,0.0,0.0,0.0,0.0,0.0,0.0,0.0,0.0,0.0,0.0,0.0,0.0,0.0,0.0,0.0,0.0,0.0,0.0,0.0,0.0,0.0,0.0,0.0,0.0,0.0,0.0,0.0,0.0,0.0,0.0,0.0,0.0,0.0,0.0,0.0,0.0,0.0,0.0,0.0,0.0,0.0,0.0,0.0,0.0,0.0,0.0,0.0,0.0,0.0,0.0,0.0,0.0,0.0,0.0,0.0,0.0,0.0,0.0,0.0,0.0,0.0,0.0,0.0,0.0,0.0,0.0,0.0,0.0,0.0,0.0,0.0,0.0,0.0,0.0,0.0,0.0,0.0,0.0,0.0,0.0,0.0,0.0,0.0,0.0,0.0,0.0,0.0,0.0,0.0,0.0,0.0,0.0,0.0,0.0,0.0,0.0,0.0,0.0,0.0,0.0,0.0,0.0,0.0,0.0,0.0,0.0,0.0,0.0,0.0,0.0,0.0,0.0,0.0,0.0,0.0,0.0,0.0,0.0,0.0,0.0,0.0,0.0,0.0,0.0,0.0,0.0,0.0,0.0,0.0,0.0,0.0,0.0,0.0,0.0,0.0,0.0,0.0,0.0,0.0,0.0,0.0,0.0,0.0,0.0,0.0,0.0,0.0,0.0,0.0,0.0,0.0,0.0,0.0,0.0,0.0,0.0,0.0,0.0,0.0,0.0,0.0,0.0,0.0,0.0,0.0,0.0,0.0,0.0,0.0,0.0,0.0,0.0,0.0,0.0,0.0,0.0,0.0,0.0,0.0,0.0,0.0,0.0,0.0,0.0,0.0,0.0,0.0,0.0,0.0,0.0,0.0,0.0,0.0,0.0,0.0,0.0,0.0,0.0,0.0,0.0,0.0,0.0,0.0,0.0,0.0,0.0,0.0,0.0,0.0,0.0,0.0,0.0,0.0,0.0,0.0,0.0,0.0,0.0,0.0,0.0,0.0,0.0,0.0,0.0,0.0,0.0,0.0,0.0,0.0,0.0,0.0,0.0,0.0,0.0,0.0,0.0,0.0,0.0,0.0,0.0,0.0,0.0,0.0,0.0,0.0,0.0,0.0,0.0,0.0,0.0,0.0,0.0,0.0,0.0,0.0,0.0,0.0,0.0,0.0,0.0,0.0,0.0,0.0,0.0,0.0,0.0,0.0,0.0,0.0,0.0,0.0,0.0,0.0,0.0,0.0,0.0,0.0,0.0,0.0,0.0,0.0,0.0,0.0,0.0,0.0,0.0,0.0,0.0,0.0,0.0,0.0,0.0,0.0,0.0,0.0,0.0,0.0,0.0,0.0,0.0,0.0,0.0,0.0,0.0,0.0,0.0,0.0,0.0,0.0,0.0,0.0,0.0,0.0,0.0,0.0,0.0,0.0,0.0,0.0,0.0,0.0,0.0,0.0,0.0,0.0,0.0,0.0,0.0,0.0,0.0,0.0,0.0,0.0,0.0,0.0,0.0,0.0,0.0,0.0,0.0,0.0,0.0,0.0,0.0,0.0,0.0,0.0,0.0,0.0,0.0,0.0,0.0,0.0,0.0,0.0,0.0,0.0,0.0,0.0,0.0,0.0,0.0,0.0,0.0,0.0,0.0,0.0,0.0,0.0,0.0,0.0,0.0,0.0,0.0,0.0,0.0,0.0,0.0,0.0,0.0,0.0,0.0,0.0,0.0,0.0,0.0,0.0,0.0,0.0,0.0,0.0,0.0,0.0,0.0,0.0,0.0,0.0,0.0,0.0,0.0,0.0,0.0,0.0,0.0,0.0,0.0,0.0,0.0,0.0,0.0,0.0,0.0,0.0,0.0,0.0,0.0,0.0,0.0,0.0,0.0,0.0,0.0,0.0,0.0,0.0,0.0,0.0,0.0,0.0,0.0,0.0,0.0,0.0,0.0,0.0,0.0,0.0,0.0,0.0,0.0,0.0,0.0,0.0,0.0,0.0,0.0,0.0,0.0,0.0,0.0,0.0,0.0,0.0,0.0,0.0,0.0,0.0,0.0,0.0,0.0,0.0,0.0,0.0,0.0,0.0,0.0,0.0,0.0,0.0,0.0,0.0,0.0,0.0,0.0,0.0,0.0,0.0,0.0,0.0,0.0,0.0,0.0,0.0,0.0,0.0,0.0,0.0,0.0,0.0,0.0,0.0,0.0,0.0,0.0,0.0,0.0,0.0,0.0,0.0,0.0,0.0,0.0,0.0,0.0,0.0,0.0,0.0,0.0,0.0,0.0,0.0,0.0,0.0,0.0,0.0,0.0,0.0,0.0,0.0,0.0,0.0,0.0,0.0,0.0,0.0,0.0,0.0,0.0,0.0,0.0,0.0,0.0,0.0,0.0,0.0,0.0,0.0,0.0,0.0,0.0,0.0,0.0,0.0,0.0,0.0,0.0,0.0,0.0,0.0,0.0,0.0,0.0,0.0,0.0,0.0,0.0,0.0,0.0,0.0,0.0,0.0,0.0,0.0,0.0,0.0,0.0,0.0,0.0,0.0,0.0,0.0,0.0,0.0,0.0,0.0,0.0,0.0,0.0,0.0,0.0,0.0,0.0,0.0,0.0,0.0,0.0,0.0,0.0,0.0,0.0,0.0,0.0,0.0,0.0,0.0,0.0,0.0,0.0,0.0,0.0,0.0,0.0,0.0,0.0,0.0,0.0,0.0,0.0,0.0,0.0,0.0,0.0,0.0,0.0,0.0,0.0,0.0,0.0,0.0,0.0,0.0,0.0,0.0,0.0,0.0,0.0,0.0,0.0,0.0,0.0,0.0,0.0,0.0,0.0,0.0,0.0,0.0,0.0,0.0,0.0,0.0,0.0,0.0,0.0,0.0,0.0,0.0,0.0,0.0,0.0,0.0,0.0,0.0,0.0,0.0,0.0,0.0,0.0,0.0,0.0,0.0,0.0,0.0,0.0,0.0,0.0,0.0,0.0,0.0,0.0,0.0,0.0,0.0,0.0,0.0,0.0,0.0,0.0,0.0,0.0,0.0,0.0,0.0,0.0,0.0,0.0,0.0,0.0,0.0,0.0,0.0,0.0,0.0,0.0,0.0,0.0,0.0,0.0,0.0,0.0,0.0,0.0,0.0,0.0,0.0,0.0,0.0,0.0,0.0,0.0,0.0,0.0,0.0,0.0,0.0,0.0,0.0,0.0,0.0,0.0,0.0,0.0,0.0,0.0,0.0,0.0,0.0,0.0,0.0,0.0,0.0,0.0,0.0,0.0,0.0,0.0,0.0,0.0,0.0,0.0,0.0,0.0,0.0,0.0,0.0,0.0,0.0,0.0,0.0,0.0,0.0,0.0,0.0,0.0,0.0,0.0,0.0,0.0,0.0,0.0,0.0,0.0,0.0,0.0,0.0,0.0,0.0,0.0,0.0,0.0,0.0,0.0,0.0,0.0,0.0,0.0,0.0,0.0,0.0,0.0,0.0,0.0,0.0,0.0,0.0,0.0,0.0,0.0,0.0,0.0,0.0,0.0,0.0,0.0,0.0,0.0,0.0,0.0,0.0,0.0,0.0,0.0,0.0,0.0,0.0,0.0,0.0,0.0,0.0,0.0,0.0,0.0,0.0,0.0,0.0,0.0,0.0,0.0,0.0,0.0,0.0,0.0,0.0,0.0,0.0,0.0,0.0,0.0,0.0,0.0,0.0,0.0,0.0,0.0,0.0,0.0,0.0,0.0,0.0,0.0,0.0,0.0,0.0,0.0,0.0,0.0,0.0,0.0,0.0,0.0,0.0,0.0,0.0,0.0,0.0,0.0,0.0,0.0,0.0,0.0,0.0,0.0,0.0,0.0,0.0,0.0,0.0,0.0,0.0,0.0,0.0,0.0,0.0,0.0,0.0,0.0,0.0,0.0,0.0,0.0,0.0,0.0,0.0,0.0,0.0,0.0,0.0,0.0,0.0,0.0,0.0,0.0,0.0,0.0,0.0,0.0,0.0,0.0,0.0,0.0,0.0,0.0,0.0,0.0,0.0,0.0,0.0,0.0,0.0,0.0,0.0,0.0,0.0,0.0,0.0,0.0,0.0,0.0,0.0,0.0,0.0,0.0,0.0,0.0,0.0,0.0,0.0,0.0,0.0,0.0,0.0,0.0,0.0,0.0,0.0,0.0,0.0,0.0,0.0,0.0,0.0,0.0,0.0,0.0,0.0,0.0,0.0,0.0,0.0,0.0,0.0,0.0,0.0,0.0,0.0,0.0,0.0,0.0,0.0,0.0,0.0,0.0,0.0,0.0,0.0,0.0,0.0,0.0,0.0,0.0,0.0,0.0,0.0,0.0,0.0,0.0,0.0,0.0,0.0,0.0,0.0,0.0,0.0,0.0,0.0,0.0,0.0,0.0,0.0,0.0,0.0,0.0,0.0,0.0,0.0,0.0,0.0,0.0,0.0,0.0,0.0,0.0,0.0,0.0,0.0,0.0,0.0,0.0,0.0,0.0,0.0,0.0,0.0,0.0,0.0,0.0,0.0,0.0,0.0,0.0,0.0,0.0,0.0,0.0,0.0,0.0,0.0,0.0,0.0,0.0,0.0,0.0,0.0,0.0,0.0,0.0,0.0,0.0,0.0,0.0,0.0,0.0,0.0,0.0,0.0,0.0,0.0,0.0,0.0,0.0,0.0,0.0,0.0,0.0,0.0,0.0,0.0,0.0,0.0,0.0,0.0,0.0,0.0,0.0,0.0,0.0,0.0,0.0,0.0,0.0,0.0,0.0,0.0,0.0,0.0,0.0,0.0,0.0,0.0,0.0,0.0,0.0,0.0,0.0,0.0,0.0,0.0,-1.818,0.0,0.0,0.0,0.0,0.0,0.0,0.0,0.0,0.0,0.0,0.0,0.0,0.0,0.0,0.0,0.0,0.0,0.0,0.0,0.0,0.0,0.0,0.0,0.0,-1.0091,-1.0125,-1.0199,-1.0136,-1.0117,-1.0157,0.0,0.0,0.0,0.0,0.0,-1.0205,-1.0224,-1.0615,-1.135,-1.1393,-1.2185,-1.365,-1.3232,-1.244,-1.1357,0.0,0.0,0.0,0.0,0.0,0.0,0.0,0.0,0.0,0.0,0.0,0.0,0.0,0.0,0.0,0.0,0.0,0.0,0.0,0.0,0.0,0.0,0.0,0.0,0.0,0.0,0.0,0.0,0.0,0.0,0.0,0.0,0.0,0.0,0.0,0.0,0.0,0.0,0.0,0.0,0.0,0.0,0.0,0.0,0.0,0.0,0.0,0.0,0.0,0.0,0.0,0.0,0.0,0.0,0.0,0.0,0.0,0.0,0.0,0.0,0.0,0.0,0.0,0.0,0.0,0.0,0.0,0.0,0.0,0.0,0.0,-2.1451,0.0,0.0,0.0,0.0,0.0,0.0,0.0,0.0,0.0,0.0,0.0,0.0,0.0,0.0,0.0,0.0,0.0,0.0,0.0,0.0,0.0,-0.9987,-1.0054,-1.0063,-1.0157,-1.0364,-1.0166,-1.0102,-1.0328,-1.0146,0.0,0.0,0.0,-1.0196,-1.0196,-1.0392,-1.1172,-1.2603,-1.3227,-1.4566,-1.6557,-1.6753,-1.581,-1.3942,-1.3643,0.0,0.0,0.0,0.0,0.0,0.0,0.0,0.0,0.0,0.0,0.0,0.0,0.0,0.0,0.0,0.0,0.0,0.0,0.0,0.0,0.0,0.0,0.0,0.0,0.0,0.0,0.0,0.0,0.0,0.0,0.0,0.0,0.0,0.0,0.0,0.0,0.0,0.0,0.0,0.0,0.0,0.0,0.0,0.0,0.0,0.0,0.0,0.0,0.0,0.0,0.0,0.0,0.0,0.0,0.0,0.0,0.0,0.0,0.0,0.0,0.0,0.0,0.0,0.0,-2.845,-2.9116,-2.9142,-2.9823,-3.0803,-2.7749,-2.647,-2.6395,0.0,0.0,0.0,0.0,0.0,0.0,0.0,0.0,0.0,0.0,0.0,0.0,0.0,0.0,0.0,0.0,0.0,0.0,0.0,0.0,-0.985,-0.9908,-0.9922,-1.0255,-1.1085,-1.0498,-1.0445,-1.1257,-1.0602,0.0,0.0,-1.0102,-1.0148,-1.0203,-1.0891,-1.1705,-1.2603,-1.5463,-1.7376,-1.8365,-1.9076,-1.9261,-1.8878,-1.7377,-1.6685,-1.6602,0.0,0.0,0.0,0.0,0.0,0.0,0.0,0.0,0.0,0.0,0.0,0.0,0.0,0.0,0.0,0.0,0.0,0.0,0.0,0.0,0.0,0.0,0.0,0.0,0.0,0.0,0.0,0.0,0.0,0.0,0.0,0.0,0.0,0.0,0.0,0.0,0.0,0.0,0.0,0.0,0.0,-1.58,-1.673,0.0,0.0,0.0,0.0,0.0,0.0,0.0,0.0,0.0,0.0,0.0,0.0,0.0,0.0,-2.8176,-2.9191,-3.0368,-3.1727,-3.268,-3.3161,-3.3229,-3.3351,-3.351,-3.3709,-3.3937,0.0,-2.9724,-2.8122,0.0,0.0,0.0,0.0,0.0,0.0,0.0,0.0,0.0,0.0,0.0,0.0,0.0,0.0,0.0,0.0,0.0,0.0,0.0,0.0,0.0,-1.0993,-1.1648,-1.2627,-1.2793,-1.264,-1.2155,-1.1763,-1.1111,-1.014,-1.0094,-1.0325,-1.0799,-1.1631,-1.3376,-1.6022,-1.8873,-2.0653,-2.1405,-2.1811,-2.2209,-2.2556,-2.1806,-2.0446,-1.8661,-1.7082,0.0,0.0,0.0,0.0,0.0,0.0,0.0,0.0,0.0,0.0,0.0,0.0,0.0,0.0,0.0,0.0,0.0,0.0,0.0,0.0,0.0,0.0,0.0,0.0,0.0,0.0,0.0,0.0,0.0,0.0,0.0,0.0,0.0,0.0,0.0,0.0,0.0,0.0,0.0,-1.5697,-1.7941,-1.9291,-1.9713,-1.9788,0.0,0.0,0.0,0.0,0.0,0.0,0.0,0.0,0.0,-2.658,-2.7938,-2.9537,-3.1298,-3.2617,-3.3815,-3.4929,-3.5742,-3.6565,-3.7348,-3.7433,-3.7691,-3.8095,-3.8483,-3.7331,-3.5021,-3.2506,-3.0283,-2.8339,0.0,0.0,0.0,0.0,0.0,-2.7662,0.0,0.0,0.0,0.0,0.0,0.0,0.0,0.0,0.0,0.0,0.0,0.0,-1.1436,-1.2215,-1.3146,-1.4332,-1.4775,-1.4575,-1.3626,-1.2952,-1.2036,-1.0797,-1.0526,-1.077,-1.1556,-1.3257,-1.5946,-1.9654,-2.1696,-2.3093,-2.3827,-2.3889,-2.4195,-2.4738,-2.4738,-2.3361,-2.0979,-1.9404,-1.8088,-1.6857,0.0,0.0,0.0,0.0,0.0,0.0,0.0,0.0,0.0,0.0,0.0,0.0,0.0,0.0,0.0,0.0,0.0,0.0,0.0,0.0,0.0,0.0,0.0,0.0,0.0,0.0,0.0,0.0,0.0,0.0,0.0,0.0,0.0,0.0,0.0,0.0,0.0,-1.7787,-2.0007,-2.1512,-2.1995,-2.214,0.0,0.0,0.0,0.0,0.0,0.0,-2.4776,-2.7287,-2.9137,-3.0091,-3.2075,-3.3518,-3.4393,-3.5888,-3.7017,-3.7775,-3.8385,-3.928,-4.0382,-4.021,-4.0419,-4.0909,-4.0707,-4.0087,-3.9013,-3.6194,-3.4049,-3.2477,-3.1102,-3.0702,-3.0872,-3.0974,-3.1492,-3.2414,0.0,0.0,0.0,0.0,0.0,0.0,0.0,0.0,0.0,0.0,0.0,-1.1381,-1.2326,-1.3142,-1.4327,-1.6039,-1.5396,-1.5277,0.0,-1.3876,-1.2503,-1.2475,-1.1689,-1.159,-1.2332,-1.626,-1.9574,-2.22,-2.3101,-2.3949,-2.4737,-2.4737,-2.4756,-2.4794,-2.4794,-2.4595,-2.4174,-2.2694,-2.1041,-1.9219,-1.6923,0.0,0.0,0.0,0.0,0.0,0.0,0.0,0.0,0.0,0.0,0.0,0.0,0.0,0.0,0.0,0.0,0.0,0.0,0.0,0.0,0.0,0.0,0.0,0.0,0.0,0.0,0.0,0.0,0.0,0.0,0.0,0.0,0.0,0.0,0.0,0.0,0.0,0.0,-2.318,-2.4582,0.0,0.0,0.0,0.0,-2.6747,-2.8147,-2.902,-2.9177,-3.1408,-3.2669,-3.2613,-3.5055,-3.7036,-3.849,-3.9416,-4.0246,-4.0964,-4.1194,-4.1359,-4.1415,-4.0696,-4.042,-4.0372,-3.9556,-3.9565,-3.9997,-3.8229,-3.6636,-3.5219,-3.4375,-3.4605,-3.5352,-3.5304,-3.5875,-3.6662,0.0,0.0,0.0,0.0,0.0,-0.9725,-0.9769,-0.9725,-0.9724,-0.9782,-1.0968,-1.218,-1.311,-1.4809,-1.6434,-1.7797,-1.8041,-1.7869,-1.7271,-1.5797,-1.493,-1.4912,-1.4046,-1.4686,-1.7102,-1.9661,-2.1698,-2.3161,-2.4025,-2.4842,-2.5638,-2.5635,-2.5884,-2.633,-2.6298,-2.6199,-2.5911,-2.3877,-2.2304,-2.1036,-1.91,-1.6892,0.0,0.0,0.0,0.0,0.0,0.0,0.0,0.0,0.0,0.0,0.0,0.0,0.0,0.0,0.0,0.0,0.0,0.0,0.0,0.0,0.0,0.0,0.0,0.0,0.0,0.0,0.0,0.0,0.0,0.0,0.0,0.0,0.0,0.0,0.0,0.0,0.0,-2.6261,-2.6972,0.0,0.0,-2.8367,-2.8717,-2.85,-3.0423,-3.164,-3.1689,-3.3981,-3.5766,-3.6749,-3.7664,-3.8923,-4.051,-4.0378,-4.0933,-4.2174,-4.2236,-4.2514,-4.2968,-4.2704,-4.2606,-4.2588,-4.2273,-4.1995,-4.1767,-4.1144,-3.9941,-3.8386,-3.7627,-3.7198,-3.7102,-3.7607,-3.7997,-3.8422,0.0,0.0,0.0,0.0,-0.9721,-0.9739,-0.9758,-0.9743,-0.9858,-1.0163,-1.1656,-1.3141,-1.4345,-1.6355,-1.8034,-1.9116,-1.9598,-1.9466,-1.854,-1.7339,-1.6671,-1.6681,-1.6281,-1.7493,-2.0552,-2.199,-2.3135,-2.4038,-2.4894,-2.5433,-2.571,-2.6239,-2.6588,-2.6822,-2.7035,-2.7063,-2.6823,-2.5254,-2.3929,-2.275,-2.1334,-1.9332,-1.7127,0.0,0.0,0.0,0.0,0.0,0.0,0.0,0.0,0.0,0.0,0.0,0.0,0.0,0.0,0.0,0.0,0.0,0.0,0.0,0.0,0.0,0.0,0.0,0.0,0.0,0.0,0.0,0.0,0.0,0.0,0.0,0.0,0.0,0.0,0.0,-2.5819,-2.8332,-2.9054,-2.9551,-3.0153,-3.1106,-3.1446,-3.0868,-3.3358,-3.467,-3.4134,-3.6453,-3.8164,-3.897,-3.9563,-4.0526,-4.1897,-4.1698,-4.2106,-4.3119,-4.3132,-4.3378,-4.3883,-4.3606,-4.3444,-4.3458,-4.3198,-4.2952,-4.2724,-4.2724,-4.2045,-4.0959,-4.0481,-4.0111,-3.9962,-4.0481,-4.0685,-4.0852,0.0,0.0,0.0,-0.971,-0.9751,-0.978,-0.9717,-0.9754,-1.0079,-1.0904,-1.2535,-1.4288,-1.6008,-1.7658,-1.9012,-1.9912,-1.9884,-1.9854,-2.0001,-1.8383,-1.7482,-1.764,-1.838,-1.9882,-2.2229,-2.3121,-2.3992,-2.4946,-2.5691,-2.5691,-2.4998,-2.6513,-2.6803,-2.611,-2.6906,-2.7193,-2.7083,-2.6991,-2.6024,-2.4449,-2.3614,-2.1894,-1.9638,0.0,0.0,0.0,0.0,0.0,0.0,0.0,0.0,0.0,0.0,0.0,0.0,0.0,0.0,0.0,0.0,0.0,0.0,0.0,0.0,0.0,0.0,0.0,0.0,0.0,0.0,0.0,0.0,0.0,0.0,0.0,0.0,0.0,-2.3534,-2.6264,-2.8533,-2.9312,-3.0847,-3.1779,-3.1713,-3.3167,-3.4109,-3.4083,-3.6998,-3.8122,-3.662,-3.8818,-3.9838,-3.911,-4.0674,-4.1915,-4.273,-4.3489,-4.3878,-4.3897,-4.3992,-4.4005,-4.3968,-4.3188,-4.2835,-4.2797,-4.1999,-4.211,-4.2835,-4.2835,-4.2835,-4.2835,-4.2816,-4.3262,-4.3931,-4.3968,-4.3968,-4.4005,0.0,0.0,-0.9787,-0.9772,-0.9784,-0.9784,-0.9721,-0.9761,-1.0101,-1.096,-1.3066,-1.4893,-1.6023,-1.8121,-1.9609,-1.9969,-1.993,-1.9952,-2.0136,-1.8383,-1.7842,-1.899,-2.1545,-2.3285,-2.4001,-2.4298,-2.4873,-2.5767,-2.5404,-2.571,-2.6645,-2.7013,-2.7358,-2.7698,-2.8408,-2.8702,-2.866,-2.8598,-2.7988,-2.6952,-2.5467,-2.3819,-2.2139,0.0,0.0,0.0,0.0,0.0,0.0,0.0,0.0,0.0,0.0,0.0,0.0,0.0,0.0,0.0,0.0,0.0,0.0,0.0,0.0,0.0,0.0,0.0,0.0,0.0,0.0,0.0,0.0,0.0,0.0,0.0,0.0,-2.6135,-2.6805,-2.8524,-3.0272,-3.1751,-3.3334,-3.4301,-3.4275,-3.5752,-3.6454,-3.5882,-3.77,-3.8449,-3.7479,-3.9774,-4.1045,-4.0892,-4.1853,-4.278,-4.3639,-4.333,-4.349,-4.4123,-4.4153,-4.4153,-4.4135,-4.3813,-4.367,-4.3652,-4.3448,-4.3466,-4.367,-4.367,-4.367,-4.3615,-4.302,-4.2575,-4.2333,-4.2951,-4.3595,-4.4153,0.0,-0.9801,-0.9794,-0.9798,-0.9798,-0.978,-0.971,-0.9761,-1.0238,-1.1445,-1.3187,-1.4893,-1.6429,-1.7896,-1.8922,-1.9374,-1.9379,-1.926,-1.904,-1.8631,-1.9224,-2.1105,-2.3146,-2.4392,-2.4734,-2.4813,-2.5087,-2.5597,-2.5446,-2.5846,-2.6798,-2.7411,-2.7903,-2.8334,-2.906,-2.9372,-2.9347,-2.9307,-2.9052,-2.8554,-2.7193,-2.5876,-2.4705,-2.3835,-2.2736,-2.157,-2.0769,-2.0073,-1.9488,-1.897,0.0,0.0,0.0,0.0,0.0,0.0,0.0,0.0,0.0,0.0,0.0,0.0,0.0,0.0,0.0,0.0,0.0,0.0,0.0,0.0,0.0,0.0,0.0,0.0,-2.6709,-2.8355,-2.9898,-3.0868,-3.2127,-3.4127,-3.4877,-3.5541,-3.6251,-3.7156,-3.7525,-3.7045,-3.8865,-3.9634,-3.8859,-4.0841,-4.205,-4.2151,-4.2556,-4.3218,-4.4128,-4.3692,-4.3741,-4.4184,-4.4184,-4.4184,-4.4104,-4.4055,-4.4005,0.0,-4.4005,-4.4005,-4.4005,-4.4005,-4.4005,0.0,0.0,0.0,0.0,0.0,-4.3755,-4.4184,0.0,-0.9801,-0.9801,-0.9798,-0.9794,-0.9775,-0.9717,-0.9761,-1.0398,-1.2076,-1.3073,-1.4523,-1.6913,-1.7248,-1.767,-1.8542,-1.8598,-1.8337,0.0,-1.9249,-2.1104,-2.3172,-2.3625,-2.4129,-2.4779,-2.4865,-2.4927,-2.5026,-2.5684,-2.6098,-2.6264,-2.7711,-2.8353,-2.8353,-2.9138,-2.9453,-2.9412,-2.9412,-2.9453,-2.9436,-2.8669,-2.7848,-2.7047,-2.6117,-2.5319,-2.4576,-2.3781,-2.2603,-2.1442,-2.1353,0.0,0.0,0.0,0.0,0.0,0.0,0.0,0.0,0.0,0.0,0.0,0.0,0.0,0.0,0.0,0.0,0.0,0.0,0.0,0.0,0.0,0.0,0.0,0.0,-2.8867,-3.0236,-3.2718,-3.3142,-3.3956,-3.6012,-3.5883,-3.6168,-3.7552,-3.7784,-3.7876,-3.7968,-4.0089,-4.1063,-4.0378,0.0,0.0,0.0,0.0,-4.3431,-4.4285,-4.4285,-4.4274,-4.4184,-4.4184,-4.4135,-4.4005,-4.4005,-4.4005,-4.4005,-4.4005,-4.4005,-4.4005,-4.4005,-4.4005,-4.4005,-4.4005,-4.4085,-4.4214,-4.4184,-4.4214,0.0,0.0,-0.9801,-0.9801,-0.9801,-0.9801,-0.9801,-0.9775,-0.9784,-1.039,-1.2085,-1.3107,-1.4372,-1.6146,-1.6947,-1.7723,-1.8596,-1.8631,-1.8812,0.0,-2.0915,-2.2017,-2.2407,-2.3766,-2.4603,-2.4798,-2.4798,-2.5137,-2.5781,-2.5982,-2.6434,-2.7081,-2.7938,-2.8352,-2.8408,-2.9099,-2.9453,-2.9472,-2.9472,-2.9531,-2.9569,-2.9324,-2.8725,-2.7885,-2.7103,-2.6637,-2.6321,-2.5557,-2.5123,-2.4767,-2.4164,-2.2899,-2.154,-2.1466,0.0,0.0,0.0,0.0,0.0,0.0,0.0,0.0,0.0,0.0,0.0,0.0,0.0,0.0,0.0,0.0,0.0,0.0,0.0,0.0,-2.8581,-3.0134,-3.1942,-3.4408,-3.4784,-3.4969,-3.5386,-3.7063,-3.805,-3.7661,-3.8272,-3.8976,-3.9663,-4.0163,-4.0733,-4.1398,-4.2348,0.0,-4.2996,-4.3599,-4.4046,-4.4214,-4.4214,-4.4214,-4.4184,0.0,0.0,-4.4153,-4.4055,-4.4005,-4.4005,-4.4005,-4.4005,-4.4005,-4.4005,-4.4005,-4.4005,-4.4005,-4.4097,-4.4255,-4.4214,-4.4244,-4.4255,-0.9758,-0.978,-0.9801,-0.9801,-0.9801,-0.9801,-0.9805,-0.9796,-1.0233,-1.1438,-1.2387,-1.356,-1.5221,-1.5743,-1.6306,-1.7213,-1.7302,0.0,-2.0255,-2.123,-2.2227,-2.3396,-2.4313,-2.4794,-2.4798,-2.4827,-2.5242,-2.6042,-2.6042,-2.6666,-2.7909,-2.8236,-2.8613,-2.9008,-2.9382,-2.955,-2.955,-2.9589,-2.9626,-2.9645,-2.9608,-2.9307,-2.8857,-2.8389,-2.7922,-2.7399,-2.6637,-2.6115,-2.5682,-2.4912,-2.4139,-2.348,-2.3385,-2.254,-2.1269,0.0,0.0,0.0,0.0,0.0,0.0,0.0,0.0,0.0,0.0,0.0,0.0,0.0,0.0,-2.4947,0.0,0.0,-2.9211,-3.1218,-3.2232,-3.3504,-3.5524,-3.6196,-3.663,-3.7007,-3.7763,-3.8272,-3.8301,-3.905,-3.9756,-4.0269,-4.1078,-4.1768,-4.2265,-4.3085,-4.3591,-4.3631,-4.402,-4.4214,-4.4244,-4.4244,-4.4244,-4.4184,-4.4184,-4.4165,-4.4104,-4.4036,-4.4005,-4.4005,-4.4005,-4.4005,-4.4005,-4.4005,-4.4005,-4.4005,-4.4005,-4.4116,-4.4244,-4.4214,-4.4214,-4.4244,-0.9713,-0.9758,-0.9801,-0.9761,-0.9794,-0.9794,-0.9798,-0.9812,-1.0063,-1.0822,-1.1549,-1.2557,-1.4061,-1.4148,-1.4508,-1.5617,-1.6049,0.0,-2.0803,-2.1217,-2.2356,-2.4623,-2.4827,-2.4927,-2.5028,-2.5087,-2.5502,-2.629,-2.639,-2.7125,-2.846,-2.8629,-2.9044,-2.9626,-2.9645,-2.9664,-2.9626,-2.9683,-2.9701,-2.9701,-2.9701,-2.9683,-2.9589,-2.9246,-2.8702,-2.8032,-2.7213,-2.6451,-2.5682,-2.4877,-2.4666,-2.465,-2.4551,-2.4104,-2.3316,-2.176,-2.1168,0.0,0.0,0.0,0.0,0.0,0.0,0.0,0.0,0.0,-2.394,-2.517,-2.6692,-2.8472,-3.0557,-3.103,-3.1776,-3.388,-3.4242,-3.4805,-3.6445,-3.7247,-3.7977,-3.877,-3.828,-3.8132,-3.8894,-3.9719,-4.0333,-4.0634,-4.205,-4.3003,-4.3152,-4.3841,-4.4244,-4.4285,-4.4244,-4.4214,-4.4285,-4.4255,-4.4226,-4.4153,-4.4153,-4.4085,-4.4005,-4.4005,-4.4005,-4.4005,-4.4005,-4.4005,-4.4005,-4.4005,-4.4005,-4.4005,-4.4005,-4.4055,-4.4153,-4.4153,-4.4184,-4.4184,0.0,-0.9758,-0.9761,-0.9635,-0.9732,-0.9794,-0.9798,-0.9812,-1.0086,-1.0885,-1.1125,-1.1577,-1.2466,-1.256,-1.3211,-1.4868,-1.6376,-1.835,-2.0929,-2.1758,-2.2951,-2.4723,-2.4794,-2.5137,-2.5844,-2.5863,-2.6244,-2.6985,-2.7715,-2.8146,-2.8352,-2.912,-2.9551,-2.9701,-2.9626,-2.9626,-2.9701,-2.9701,-2.9701,-2.9701,-2.9701,-2.9701,-2.9589,-2.8802,-2.8409,-2.8147,-2.7289,-2.6486,-2.5699,-2.4942,-2.4645,-2.4615,-2.4599,-2.4491,-2.4213,-2.3353,0.0,-2.1693,-2.0868,-2.0606,-2.1786,-2.6868,-2.5551,-2.3761,0.0,0.0,-2.6878,-2.8376,-3.0002,-3.1441,-3.2274,-3.3073,-3.3935,-3.4897,-3.5108,-3.5707,-3.7312,-3.7598,-3.7919,-3.873,-3.8759,-3.8799,-3.8892,-3.969,-4.0585,-4.1501,-4.2377,-4.3245,-4.4098,-4.4248,-4.4285,-4.4285,-4.4244,-4.4184,-4.4214,-4.4085,-4.4036,-4.4005,-4.4005,-4.4005,-4.4005,-4.4005,-4.4005,-4.4005,-4.4005,-4.4005,-4.4005,-4.4005,-4.4005,-4.4005,-4.4005,-4.4005,-4.4005,-4.4005,-4.4104,-4.4184,0.0,-0.9633,-0.9695,-0.9575,-0.9677,-0.9801,-0.9794,-0.9808,-0.9926,-1.0265,-1.0733,-1.1161,-1.1453,-1.1911,-1.2687,-1.3968,-1.5611,-1.7662,-2.0231,-2.1626,-2.3097,-2.4727,-2.487,-2.5069,-2.5337,-2.5861,-2.6472,-2.7219,-2.7975,-2.8577,-2.9008,-2.942,-2.9569,-2.9531,-2.9531,-2.955,-2.9589,-2.9589,-2.9589,-2.9589,-2.9589,-2.9589,-2.9476,-2.8652,-2.8035,-2.7494,-2.6616,-2.6093,0.0,0.0,-2.4647,-2.465,-2.4601,-2.4549,-2.4439,-2.4141,-2.4038,0.0,-2.3895,-2.4301,0.0,0.0,-2.88,-2.831,-2.8722,-2.9993,-3.1095,-3.1107,-3.2533,-3.3954,-3.4723,-3.5174,-3.5873,0.0,-3.7017,-3.7304,-3.8873,-3.8689,-3.8327,-3.814,-3.8615,-3.8921,-3.8892,-4.0133,-4.116,-4.1651,-4.2899,-4.3852,-4.4266,-4.4255,-4.4244,-4.4244,-4.4135,-4.4085,-4.4085,-4.4036,-4.4005,-4.4005,-4.4005,-4.4005,-4.4005,-4.4005,-4.4005,-4.4005,-4.4005,-4.4005,-4.4005,-4.4005,-4.4005,-4.4005,-4.4005,-4.4005,-4.4061,-4.4562,-4.4482,-4.416,0.0,-0.9535,-0.9607,-0.9507,-0.9641,-0.9758,-0.9801,-0.9803,-0.9791,-0.9768,-1.0295,-1.0639,-1.0597,-1.1121,-1.193,-1.3088,-1.4541,-1.6551,-1.9364,-2.1098,-2.2744,-2.4407,-2.4771,-2.504,-2.5239,-2.5878,-2.6533,-2.7219,-2.7733,-2.8185,-2.8663,-2.9004,-2.9096,-2.8996,-2.9359,-2.9492,-2.9492,-2.9492,-2.9492,-2.9474,-2.9288,-2.9194,-2.9044,-2.8035,-2.7138,-2.6336,-2.5665,-2.5291,0.0,0.0,-2.4092,-2.4281,-2.4267,-2.4381,-2.4534,-2.476,-2.5171,-2.5689,-2.6297,0.0,0.0,-2.9683,-3.0816,-3.1403,-3.084,-3.2673,-3.426,-3.3416,-3.4473,-3.5744,-3.6316,-3.6482,0.0,-3.8681,-3.8479,-3.8664,-4.0251,-3.9616,-3.8718,-3.8058,-3.8356,-3.8728,-3.8902,-4.0293,-4.1319,-4.1698,-4.304,-4.3983,-4.4266,-4.4244,-4.4184,-4.4153,-4.4055,-4.4005,-4.4005,-4.4005,-4.4005,-4.4005,-4.4005,-4.4005,-4.4005,-4.4005,-4.4005,-4.4005,-4.4005,-4.4005,-4.4005,-4.4005,-4.4005,-4.4005,-4.4005,-4.4005,-4.4116,-4.4971,-4.4748,-4.4098,0.0,0.0,-0.9506,-0.9506,-0.9568,-0.9644,-0.9787,-0.9798,-0.9773,-0.9706,-0.9789,-0.983,-0.9828,-0.9861,-1.055,-1.2284,-1.3251,-1.5155,-1.8432,-2.0138,-2.1813,-2.3563,-2.4393,-2.5234,-2.6138,-2.6195,-2.6472,-2.7008,-2.6898,-2.6723,-2.6505,-2.7567,-2.7999,-2.7996,-2.902,-2.9492,-2.9492,-2.9492,-2.9492,-2.9436,-2.8727,-2.839,-2.8166,-2.6645,-2.5485,-2.4655,-2.4568,0.0,-2.3244,-2.2451,-2.2648,-2.3275,-2.3393,-2.3917,0.0,-2.543,-2.5671,-2.5987,0.0,0.0,-2.8598,-3.1094,-3.1328,-3.1446,-3.3486,-3.4792,-3.5483,-3.5172,-3.5818,-3.6473,-3.6482,-3.6564,-3.7109,-3.8738,-3.896,-3.9563,-4.123,-3.9986,-3.8892,-3.8873,-3.8208,-3.8071,0.0,-3.9861,-4.0821,-4.1726,-4.2509,-4.3319,-4.4248,-4.4244,-4.4135,-4.4005,-4.4005,-4.4005,-4.4005,-4.4005,-4.4005,-4.4005,-4.4005,-4.4005,-4.4005,-4.4005,-4.4005,-4.4005,-4.4005,-4.4005,-4.4005,-4.4005,-4.4005,-4.4005,-4.4005,-4.4005,-4.4116,-4.4971,-4.4748,-4.4005,0.0,0.0,0.0,-0.9559,-0.9593,-0.9657,-0.9842,-0.9791,-0.9738,-0.9761,-0.9714,0.0,0.0,0.0,0.0,0.0,-1.2778,-1.4492,-1.6781,-1.9268,-2.1194,-2.2365,-2.3694,-2.4551,-2.4864,-2.5475,-2.5889,-2.608,-2.6523,-2.6622,-2.641,-2.6793,-2.6961,-2.6856,-2.7261,-2.7414,-2.7393,-2.7414,-2.7745,-2.8128,-2.7522,-2.7582,-2.7879,-2.6465,-2.5377,-2.4452,0.0,0.0,-2.2473,-2.2237,-2.266,-2.3347,-2.3834,0.0,0.0,-2.5412,-2.6042,-2.6823,0.0,0.0,-3.1815,-3.387,-3.4308,-3.4573,-3.5846,-3.5892,-3.5846,-3.6398,-3.6049,-3.5633,-3.5633,-3.6149,-3.7128,-3.8719,-3.9036,-3.9639,-4.1267,-4.0092,-3.8832,-3.8229,-3.8952,0.0,0.0,0.0,0.0,-4.2406,-4.272,-4.3241,-4.4188,-4.4135,-4.4055,-4.4005,-4.4005,-4.4005,-4.4005,-4.4005,-4.4005,-4.4005,-4.4005,-4.4005,-4.4005,-4.4005,-4.4005,-4.4005,-4.4005,-4.4005,-4.4005,-4.4005,-4.4005,-4.4005,-4.4005,-4.4005,-4.4042,-4.4321,-4.4568,-4.48,0.0,0.0,0.0,0.0,0.0,0.0,0.0,0.0,0.0,0.0,0.0,0.0,0.0,0.0,0.0,0.0,0.0,0.0,-1.5448,-1.7861,-1.9748,-2.0926,-2.1985,-2.2689,-2.2949,-2.3291,-2.3685,-2.4173,-2.4634,-2.5027,-2.5419,-2.5798,-2.5903,-2.5837,-2.622,-2.637,-2.6308,-2.637,-2.6662,-2.7,-2.6098,-2.6031,-2.6364,-2.5,-2.3934,0.0,0.0,-2.1508,-2.1251,-2.1283,-2.2006,-2.2952,-2.3386,-2.4132,-2.5023,-2.5801,-2.6655,-2.7787,-2.9909,-3.1691,-3.3499,-3.574,-3.6325,-3.651,-3.7069,-3.6701,-3.6122,-3.5699,-3.4942,-3.4201,-3.361,-3.4018,-3.5273,-3.7748,-3.8192,-3.8999,-4.1234,-4.0131,-3.8888,-3.8313,-3.9259,0.0,0.0,0.0,0.0,-4.2377,-4.269,-4.3199,-4.4147,-4.4085,-4.4005,-4.4005,-4.4005,-4.4005,-4.4005,-4.4005,-4.4005,-4.4005,-4.4005,-4.4005,-4.4005,-4.4005,-4.4005,-4.4005,-4.4005,-4.4005,-4.4005,-4.4005,-4.4005,-4.4005,-4.4005,-4.4005,-4.4042,-4.4308,-4.467,-4.5175,0.0,0.0,0.0,0.0,0.0,0.0,0.0,0.0,0.0,0.0,0.0,0.0,0.0,0.0,0.0,0.0,0.0,0.0,-1.4357,-1.5943,-1.7564,-1.9272,-1.9485,-1.989,-2.0581,-1.9926,-2.0218,-2.1514,-2.1461,-2.2128,-2.3477,-2.4392,-2.4779,-2.4748,-2.5717,-2.6071,-2.6027,-2.6111,-2.6107,-2.5954,-2.4472,-2.389,-2.3781,-2.2401,0.0,0.0,0.0,0.0,0.0,0.0,0.0,0.0,0.0,0.0,0.0,-2.6654,-2.7563,-2.8955,-3.1985,-3.297,-3.3845,-3.6721,-3.7345,-3.729,-3.729,-3.7032,-3.6039,-3.3345,-3.2736,-3.2167,0.0,0.0,-3.1853,-3.5773,-3.6586,-3.7801,-4.1014,-4.0104,-3.912,0.0,0.0,0.0,0.0,0.0,0.0,-4.1762,0.0,-4.3199,-4.4147,-4.4055,-4.4005,-4.4005,-4.4005,-4.4005,-4.4005,-4.4005,-4.4005,-4.4005,-4.4005,-4.4005,-4.4005,-4.4005,-4.4005,-4.4005,-4.4005,-4.4005,-4.4005,-4.4005,-4.4005,-4.4005,-4.4005,-4.4023,-4.4141,-4.4856,-4.5156,-4.5197,0.0,0.0,0.0,0.0,0.0,0.0,0.0,0.0,0.0,0.0,0.0,0.0,0.0,0.0,0.0,0.0,0.0,0.0,0.0,-1.4508,-1.6091,-1.7134,-1.8314,-1.9019,-1.9199,-1.9157,-1.9591,-2.0481,-2.048,-2.089,-2.1736,-2.2034,-2.2141,-2.2093,-2.2353,-2.2404,-2.2343,-2.2386,-2.2704,-2.3169,0.0,-2.2423,-2.2861,0.0,0.0,0.0,0.0,0.0,0.0,0.0,0.0,0.0,0.0,0.0,-2.6709,0.0,0.0,-3.1169,-3.2632,-3.4754,-3.6712,-3.7366,-3.8014,-3.844,-3.8327,-3.4706,-3.1598,-3.2404,-3.0839,-2.9198,0.0,0.0,0.0,-3.3542,-3.5428,0.0,-3.9435,-3.9361,0.0,-3.9974,0.0,-4.1119,-4.1274,-4.2653,0.0,0.0,-4.2667,-4.315,-4.4017,-4.4005,-4.4005,-4.4005,-4.4005,-4.4005,-4.4005,-4.4005,-4.4005,-4.4005,-4.4005,-4.4005,-4.4005,-4.4005,-4.4005,-4.4005,-4.4005,-4.4005,-4.4005,-4.4005,-4.4005,-4.4005,-4.4005,-4.43,-4.4776,-4.4994,-4.5743,-4.6562,0.0,0.0,0.0,0.0,0.0,0.0,0.0,0.0,0.0,0.0,0.0,0.0,0.0,0.0,0.0,0.0,0.0,0.0,0.0,-1.3221,-1.4656,-1.5865,-1.6438,-1.6892,-1.725,-1.7385,-1.783,-1.8605,0.0,0.0,-2.0169,-2.0187,-2.0128,-2.0065,-2.0065,-2.0005,-1.9903,-1.9926,0.0,0.0,0.0,0.0,0.0,0.0,0.0,0.0,0.0,0.0,0.0,0.0,0.0,-2.5224,-2.6432,-2.7344,-2.8254,-2.9507,0.0,-3.2743,-3.4204,-3.6128,-3.7738,-3.7624,-3.8198,-3.8339,-3.6555,-3.3375,-3.0612,-3.0105,-2.8693,0.0,0.0,0.0,0.0,0.0,0.0,0.0,-3.8674,-3.9407,-3.9872,0.0,-4.1463,0.0,-4.2169,-4.3341,-4.3899,0.0,-4.3336,-4.3522,-4.3986,-4.4005,-4.4005,-4.4005,-4.4005,-4.4005,-4.4005,-4.4005,-4.4005,-4.4005,-4.4005,-4.4005,-4.4005,-4.4005,-4.4005,-4.4005,0.0,-4.4005,-4.4005,-4.4005,-4.4005,-4.4005,-4.4005,-4.4429,-4.5041,-4.5374,-4.6156,-4.7074,0.0,0.0,0.0,0.0,0.0,0.0,0.0,0.0,0.0,0.0,-0.951,0.0,0.0,0.0,0.0,0.0,0.0,0.0,0.0,0.0,0.0,-1.4862,-1.4358,-1.4373,-1.5062,-1.5243,-1.5723,0.0,0.0,0.0,0.0,0.0,0.0,0.0,0.0,0.0,0.0,0.0,0.0,0.0,0.0,0.0,0.0,0.0,0.0,0.0,0.0,0.0,0.0,0.0,-2.451,-2.6244,-2.7791,-2.8909,-2.9976,-3.1533,-3.2709,-3.3939,-3.5962,-3.7174,-3.7829,-3.7753,-3.7819,-3.6971,-3.3512,-3.2046,-3.0471,-2.7149,0.0,-2.6302,-2.5504,-2.5523,-2.7174,-3.175,0.0,-3.4352,-3.8303,-3.9639,-4.0337,-4.0626,-4.1835,-4.2753,-4.2999,-4.3639,-4.4005,-4.4005,-4.4005,-4.4005,-4.4005,-4.4005,-4.4005,-4.4005,-4.4005,-4.4005,-4.4005,-4.4005,-4.4005,-4.4005,-4.4005,-4.4005,-4.4005,-4.4005,-4.4005,-4.4005,0.0,0.0,-4.4005,-4.4085,-4.4122,-4.4141,-4.422,-4.4646,-4.5289,-4.59,-4.6525,-4.7122,0.0,0.0,0.0,0.0,0.0,0.0,0.0,0.0,0.0,0.0,-0.9897,-0.9483,0.0,0.0,0.0,0.0,0.0,0.0,0.0,0.0,0.0,-1.3,-1.316,-1.3279,-1.3424,0.0,0.0,0.0,0.0,0.0,0.0,0.0,0.0,0.0,0.0,0.0,0.0,0.0,0.0,0.0,0.0,0.0,0.0,0.0,0.0,0.0,0.0,0.0,0.0,0.0,-2.4813,-2.7156,-2.8763,-2.9824,-3.0831,-3.254,-3.3995,-3.5236,-3.6318,-3.7572,-3.8612,-3.8541,-3.5975,-3.3191,-3.209,-2.8621,0.0,0.0,0.0,-2.4635,-2.4524,-2.506,0.0,-3.0313,0.0,0.0,0.0,0.0,-3.9787,0.0,0.0,0.0,0.0,0.0,0.0,0.0,0.0,0.0,-4.4005,-4.4005,-4.4005,-4.4005,-4.4005,-4.4005,-4.4005,-4.4005,-4.4005,-4.4005,-4.4005,-4.4005,-4.4005,-4.4005,-4.4005,-4.4005,0.0,0.0,-4.4061,-4.455,-4.4779,-4.489,-4.5383,-4.5957,-4.6521,-4.6669,-4.7138,-4.7743,0.0,0.0,0.0,0.0,0.0,0.0,0.0,-1.0398,-1.0783,-1.126,-1.1332,-1.1023,-1.0203,-0.9753,-0.9475,0.0,0.0,0.0,0.0,0.0,0.0,0.0,0.0,0.0,0.0,0.0,0.0,0.0,0.0,0.0,0.0,0.0,0.0,0.0,0.0,0.0,0.0,0.0,0.0,0.0,0.0,0.0,0.0,0.0,0.0,0.0,0.0,0.0,0.0,0.0,-2.4152,-2.6783,-2.8818,-3.0348,-3.1542,-3.2288,-3.3915,-3.5528,-3.5803,-3.7294,-3.8601,-3.7765,-3.4504,-3.1334,-3.0604,0.0,0.0,0.0,0.0,-2.4229,-2.4339,0.0,0.0,0.0,0.0,0.0,0.0,0.0,0.0,0.0,0.0,0.0,0.0,0.0,0.0,0.0,0.0,0.0,-4.4104,-4.4085,-4.4055,-4.4005,-4.4005,-4.4005,-4.4005,-4.4005,-4.4005,-4.4005,-4.4355,-4.4508,-4.4457,-4.482,-4.4989,-4.4989,-4.4989,0.0,-4.5026,-4.5291,-4.544,-4.5495,-4.5773,-4.6266,-4.6807,-4.6846,-4.7237,-4.7819,0.0,0.0,0.0,0.0,0.0,0.0,0.0,-1.0805,-1.1255,-1.2237,-1.2717,-1.2508,-1.1326,-1.0464,-0.9843,0.0,0.0,0.0,0.0,0.0,0.0,0.0,0.0,0.0,0.0,0.0,0.0,0.0,0.0,0.0,0.0,0.0,0.0,0.0,0.0,0.0,0.0,0.0,0.0,0.0,0.0,0.0,0.0,0.0,0.0,0.0,0.0,0.0,0.0,0.0,-2.2996,-2.5503,-2.7641,-2.9748,-3.1507,-3.1775,-3.3292,-3.5008,-3.5399,-3.686,-3.8066,-3.7184,-3.4134,-3.0827,-2.8815,-2.6294,0.0,0.0,-2.4266,-2.421,-2.434,0.0,0.0,0.0,0.0,0.0,0.0,0.0,0.0,0.0,0.0,0.0,0.0,0.0,0.0,0.0,0.0,0.0,0.0,-4.4184,-4.4178,-4.4202,-4.4066,-4.4048,-4.4202,-4.4202,-4.4202,-4.4202,-4.489,-4.5176,-4.5139,-4.5662,-4.5902,-4.5902,0.0,0.0,0.0,-4.6048,-4.6103,-4.6103,-4.623,-4.6572,-4.7001,-4.7001,-4.728,-4.7717,0.0,0.0,0.0,0.0,0.0,0.0,0.0,-1.1137,-1.2097,-1.3685,-1.3276,-1.2814,-1.2783,-1.2077,-1.1018,0.0,0.0,0.0,0.0,0.0,0.0,0.0,0.0,0.0,0.0,0.0,0.0,0.0,0.0,0.0,0.0,0.0,0.0,0.0,0.0,0.0,0.0,0.0,0.0,0.0,0.0,0.0,0.0,0.0,0.0,0.0,0.0,0.0,0.0,0.0,0.0,-2.3177,-2.4376,-2.7046,-3.0032,-3.1544,0.0,0.0,-3.5903,-3.6565,-3.6859,-3.8181,-3.5999,-3.2009,-2.6258,0.0,0.0,-2.4229,-2.4153,-2.4133,-2.4209,-2.4284,0.0,0.0,0.0,0.0,0.0,0.0,0.0,0.0,0.0,0.0,0.0,0.0,0.0,0.0,0.0,0.0,0.0,-4.4135,-4.4426,-4.489,-4.43,-4.4294,-4.4909,-4.4927,-4.489,-4.482,-4.5513,-4.581,-4.581,-4.5847,-4.5902,-4.5902,0.0,0.0,0.0,-4.6483,-4.6697,-4.677,-4.7316,-4.7578,-4.7591,-4.7591,-4.7645,-4.7717,0.0,0.0,0.0,0.0,0.0,0.0,-1.0538,-1.0893,-1.1649,-1.3292,-1.3551,-1.3436,-1.3034,-1.2699,-1.1707,-0.9681,0.0,0.0,0.0,0.0,0.0,0.0,0.0,0.0,0.0,0.0,0.0,0.0,0.0,0.0,0.0,0.0,0.0,0.0,0.0,0.0,0.0,0.0,0.0,0.0,0.0,0.0,0.0,0.0,0.0,0.0,0.0,0.0,0.0,0.0,0.0,0.0,-2.197,-2.3989,0.0,0.0,-3.0064,-3.177,-3.3198,-3.4197,-3.5146,-3.6385,-3.4303,-3.1158,-2.8064,0.0,-2.434,-2.4229,-2.4153,-2.4113,-2.419,-2.4209,-2.4541,-2.5633,-2.6097,-2.7468,0.0,0.0,0.0,0.0,0.0,0.0,0.0,0.0,0.0,0.0,0.0,0.0,0.0,-4.4475,-4.4832,-4.4949,-4.5065,-4.5289,-4.555,-4.555,-4.555,-4.5496,-4.6139,-4.6448,-4.6466,-4.6822,-4.6983,-4.6983,0.0,0.0,0.0,-4.7248,-4.7352,-4.7389,-4.7632,-4.7717,-4.7717,-4.7717,-4.7717,-4.7717,0.0,0.0,0.0,0.0,0.0,-0.9762,-1.0547,-1.0663,-1.1237,-1.2831,-1.3261,-1.3295,-1.3034,-1.2586,-1.1646,-0.9997,-0.9644,0.0,0.0,0.0,0.0,0.0,0.0,0.0,0.0,0.0,0.0,0.0,-1.4324,0.0,0.0,0.0,0.0,0.0,0.0,0.0,0.0,0.0,0.0,0.0,0.0,0.0,0.0,0.0,0.0,0.0,0.0,0.0,0.0,0.0,0.0,0.0,0.0,0.0,0.0,0.0,-2.8044,-3.0086,-3.1298,-3.2404,-3.3331,-3.3901,-3.2609,-3.0631,0.0,-2.6039,-2.434,-2.421,-2.4153,-2.4133,-2.4191,-2.4209,-2.4228,-2.4339,-2.4597,-2.5783,-2.8606,0.0,0.0,0.0,0.0,0.0,0.0,0.0,0.0,0.0,0.0,0.0,0.0,-4.4642,-4.5094,-4.5144,-4.5644,-4.5975,-4.6158,-4.6176,-4.6176,-4.6176,-4.6788,-4.7052,-4.707,-4.7487,-4.7717,0.0,0.0,0.0,0.0,-4.7505,-4.7397,-4.7379,-4.7184,-4.7093,-4.7093,-4.7093,-4.7093,-4.7093,0.0,0.0,0.0,0.0,0.0,0.0,-1.0488,-1.0603,-1.1148,-1.2711,-1.2258,-1.2119,-1.2908,-1.165,-1.0707,-1.0699,-0.9961,0.0,0.0,0.0,0.0,0.0,0.0,0.0,0.0,0.0,-1.2292,-1.3111,-1.3914,-1.435,0.0,0.0,0.0,0.0,0.0,0.0,0.0,0.0,0.0,0.0,0.0,0.0,0.0,0.0,0.0,0.0,0.0,0.0,0.0,0.0,0.0,0.0,0.0,0.0,0.0,0.0,-2.6916,-2.8595,-3.1201,-3.176,-3.1486,-3.0964,-3.166,-3.1052,0.0,-2.4319,-2.4284,-2.421,-2.4209,-2.419,-2.419,-2.4209,-2.421,-2.4284,-2.5078,-2.6265,-2.7863,0.0,0.0,0.0,0.0,0.0,0.0,0.0,0.0,0.0,0.0,0.0,0.0,0.0,-4.5075,-4.5662,-4.5828,-4.6194,-4.6788,-4.6807,-4.6807,-4.6807,-4.7384,-4.7699,-4.7699,-4.7717,0.0,0.0,0.0,0.0,0.0,-4.6989,-4.6721,-4.663,-4.589,-4.5619,-4.5619,-4.5619,-4.5619,-4.5619,0.0,0.0,0.0,0.0,0.0,0.0,0.0,-0.9852,-1.0202,-1.1198,-1.1154,-1.1334,-1.2102,-1.1291,-1.0699,-1.0699,-1.0015,0.0,0.0,0.0,0.0,0.0,0.0,0.0,0.0,-1.1424,-1.227,-1.3034,-1.4538,-1.4921,-1.4281,0.0,0.0,0.0,0.0,0.0,0.0,0.0,0.0,0.0,0.0,0.0,0.0,0.0,0.0,0.0,0.0,0.0,0.0,0.0,0.0,0.0,0.0,0.0,0.0,-2.2102,0.0,0.0,-2.7919,-2.8378,-2.8537,-2.9542,-2.888,-2.7636,-2.6254,-2.5095,-2.4284,-2.4209,-2.4209,-2.419,-2.419,-2.4209,-2.4412,-2.5023,-2.5356,0.0,0.0,0.0,0.0,0.0,0.0,0.0,0.0,0.0,0.0,0.0,0.0,0.0,0.0,0.0,-4.4967,-4.568,-4.6207,-4.6764,-4.7402,-4.7402,-4.7402,-4.7402,-4.7632,-4.7717,-4.7717,-4.7717,0.0,0.0,0.0,0.0,0.0,-4.6054,-4.5945,-4.5927,-4.5692,-4.5601,-4.5601,-4.5601,-4.5601,-4.5601,0.0,0.0,0.0,0.0,0.0,0.0,0.0,-0.9475,-0.9637,-1.0159,-1.024,-1.0537,-1.1301,-1.0699,-1.0366,-1.0681,-1.0032,0.0,0.0,0.0,0.0,0.0,0.0,0.0,-1.0054,-1.0944,-1.1931,-1.2986,-1.4409,-1.5124,-1.5193,-1.5782,-1.5595,0.0,0.0,0.0,0.0,0.0,0.0,0.0,0.0,0.0,0.0,0.0,0.0,0.0,0.0,0.0,0.0,0.0,0.0,0.0,0.0,0.0,0.0,0.0,-2.1936,-2.3609,0.0,-2.6525,-2.7227,-2.7744,-2.6893,-2.5799,-2.539,-2.4561,-2.375,-2.3401,-2.3548,-2.375,-2.375,-2.3988,-2.4394,-2.4949,-2.506,0.0,0.0,0.0,0.0,0.0,0.0,0.0,0.0,0.0,0.0,0.0,0.0,0.0,0.0,0.0,-4.4528,-4.5241,-4.5929,-4.663,-4.7306,-4.7306,-4.7451,-4.7717,-4.7717,-4.7554,-4.7306,0.0,0.0,0.0,0.0,0.0,0.0,-4.5311,-4.5221,-4.5203,-4.4912,-4.4821,-4.4821,-4.4821,-4.4821,-4.4821,0.0,0.0,0.0,0.0,0.0,0.0,0.0,-0.9439,-0.9448,-0.957,-0.9543,-0.978,-1.0521,-0.9951,-0.9798,-1.0555,0.0,0.0,0.0,0.0,0.0,0.0,0.0,0.0,-0.9303,-1.0216,-1.142,-1.2896,-1.3828,-1.5108,-1.6688,-1.6682,-1.6327,-1.568,-1.5685,0.0,0.0,0.0,0.0,0.0,0.0,0.0,0.0,0.0,0.0,0.0,0.0,0.0,0.0,0.0,0.0,0.0,0.0,0.0,0.0,0.0,0.0,0.0,0.0,-2.5744,0.0,0.0,-2.543,-2.5134,-2.3327,-2.2958,0.0,-2.2052,-2.2497,-2.2996,-2.2996,-2.3658,-2.4229,-2.4358,-2.4487,0.0,0.0,0.0,0.0,0.0,0.0,0.0,0.0,0.0,0.0,0.0,0.0,0.0,0.0,0.0,0.0,-4.4492,-4.5112,-4.5838,-4.6612,-4.6612,-4.6971,-4.7627,-4.7627,-4.7329,-4.6702,0.0,0.0,0.0,0.0,0.0,0.0,-4.4784,-4.451,-4.4437,-4.3756,-4.3497,-4.3497,-4.3497,-4.3497,-4.3497,0.0,0.0,0.0,0.0,0.0,0.0,0.0,0.0,0.0,0.0,-0.9518,-0.9581,-0.9762,-0.9617,-0.9572,0.0,0.0,0.0,0.0,0.0,0.0,0.0,0.0,0.0,-0.9312,-1.0803,-1.1707,-1.1925,-1.4778,-1.5966,-1.5607,-1.6949,-1.6845,-1.5479,-1.5569,-1.5214,0.0,0.0,0.0,0.0,0.0,0.0,0.0,0.0,0.0,0.0,0.0,0.0,0.0,0.0,0.0,0.0,0.0,0.0,0.0,0.0,-2.0148,-2.0794,-2.1382,0.0,-2.3225,-2.2839,-2.2785,-2.273,0.0,-2.2179,-2.2122,-2.1941,-2.2497,-2.3032,-2.3067,-2.3695,-2.4432,-2.519,0.0,0.0,0.0,0.0,0.0,0.0,0.0,0.0,0.0,0.0,0.0,0.0,0.0,0.0,0.0,0.0,0.0,-4.3738,-4.3886,-4.4565,-4.5836,-4.5854,-4.6215,-4.6935,-4.6997,-4.6888,-4.6702,0.0,0.0,0.0,0.0,0.0,-4.3978,-4.383,-4.3756,-4.3738,-4.3571,-4.3497,-4.3497,-4.3497,-4.3497,-4.3497,0.0,0.0,0.0,0.0,0.0,0.0,0.0,0.0,0.0,0.0,0.0,-0.9491,-0.95,-0.95,0.0,0.0,0.0,0.0,0.0,0.0,0.0,0.0,0.0,-0.9534,-0.9394,-1.071,-1.1661,-1.2198,-1.49,-1.6269,-1.6407,-1.7397,-1.7191,-1.5944,-1.4899,-1.4253,0.0,0.0,0.0,0.0,0.0,0.0,0.0,0.0,0.0,0.0,0.0,-1.4496,0.0,-1.69,-1.7641,-1.8253,0.0,0.0,0.0,0.0,-1.9715,-2.0083,-2.0016,-2.115,-2.2343,-2.2402,-2.2347,-2.2197,-2.1974,-2.19,-2.1808,0.0,0.0,0.0,0.0,0.0,0.0,0.0,0.0,0.0,0.0,0.0,0.0,0.0,0.0,0.0,0.0,0.0,0.0,0.0,0.0,0.0,0.0,0.0,0.0,0.0,-4.3497,-4.4033,-4.5112,-4.513,-4.5494,-4.6179,-4.6239,-4.6057,-4.5729,-4.5769,0.0,0.0,0.0,0.0,-4.3497,-4.3497,-4.3497,-4.3497,-4.3497,-4.3497,-4.3497,-4.3497,-4.3701,-4.3996,0.0,0.0,0.0,0.0,0.0,0.0,0.0,0.0,0.0,0.0,0.0,0.0,0.0,0.0,0.0,0.0,0.0,0.0,0.0,0.0,0.0,0.0,-0.9687,-0.9727,-0.9851,-1.0449,-1.153,-1.3104,-1.468,-1.62,-1.7593,-1.7846,-1.7429,-1.6392,-1.4246,-1.32,0.0,0.0,0.0,0.0,0.0,0.0,0.0,0.0,0.0,0.0,0.0,0.0,0.0,-1.5991,-1.6851,-1.7722,-1.8749,0.0,0.0,0.0,0.0,0.0,-1.9504,-2.1025,-2.2606,-2.2646,-2.2609,-2.2476,-2.2009,0.0,0.0,0.0,0.0,0.0,0.0,0.0,0.0,0.0,0.0,0.0,0.0,0.0,0.0,0.0,0.0,0.0,0.0,0.0,0.0,0.0,0.0,0.0,0.0,0.0,0.0,0.0,-4.3497,-4.3793,-4.4419,-4.4419,-4.4784,-4.5457,-4.5457,-4.5168,-4.4602,-4.4602,0.0,0.0,0.0,0.0,-4.3864,-4.3864,-4.383,-4.383,-4.383,-4.383,-4.383,-4.383,-4.4217,-4.4766,0.0,0.0,0.0,0.0,0.0,0.0,0.0,0.0,0.0,0.0,0.0,0.0,0.0,0.0,0.0,0.0,0.0,0.0,0.0,0.0,0.0,-0.9699,-0.9593,-1.0141,-1.1419,-1.0911,-1.1743,-1.4002,-1.4894,-1.5806,-1.6723,-1.8037,-1.7518,-1.548,-1.4585,-1.3423,-1.2086,-1.1956,0.0,0.0,0.0,0.0,0.0,0.0,0.0,0.0,0.0,0.0,0.0,-1.4823,-1.5814,-1.7031,-1.8093,0.0,0.0,0.0,0.0,0.0,-2.0236,-2.1269,-2.1993,-2.1168,-2.1549,-2.2076,-2.1932,-2.193,0.0,0.0,0.0,0.0,0.0,0.0,0.0,0.0,0.0,0.0,0.0,0.0,0.0,0.0,0.0,0.0,0.0,0.0,0.0,0.0,0.0,0.0,0.0,0.0,0.0,0.0,0.0,-4.3552,-4.3681,-4.3681,-4.4033,-4.4748,-4.4803,-4.4729,-4.4602,-4.4656,-4.46,0.0,0.0,-4.4875,-4.5462,-4.5462,-4.5369,-4.5294,-4.5294,-4.5294,-4.5294,-4.5294,-4.5348,-4.5548,0.0,0.0,0.0,0.0,0.0,0.0,0.0,0.0,0.0,0.0,0.0,0.0,0.0,0.0,0.0,0.0,0.0,0.0,0.0,0.0,-0.98,-1.0229,-1.0177,-1.0643,-1.1718,-1.2705,-1.3676,-1.4633,-1.6422,-1.7225,-1.711,-1.7379,-1.6237,-1.3962,-1.3256,-1.2279,-1.1162,-1.0662,-1.0726,0.0,0.0,0.0,0.0,0.0,0.0,0.0,0.0,0.0,0.0,0.0,-1.4655,-1.5827,-1.7143,0.0,0.0,0.0,0.0,0.0,-1.9691,-2.0843,-2.1824,-2.1061,-2.1679,-2.2513,-2.2578,-2.2774,0.0,0.0,0.0,0.0,0.0,0.0,0.0,0.0,0.0,0.0,0.0,0.0,0.0,0.0,0.0,0.0,0.0,0.0,0.0,0.0,0.0,0.0,0.0,0.0,0.0,0.0,0.0,-4.3497,-4.3497,-4.3497,-4.3681,-4.3996,-4.4031,-4.4031,-4.3996,-4.4031,-4.4048,-4.4048,0.0,-4.4233,-4.4546,-4.4546,-4.451,-4.451,-4.4894,-4.5076,-4.5148,-4.589,-4.6179,-4.6327,0.0,0.0,0.0,0.0,0.0,0.0,0.0,0.0,0.0,0.0,0.0,0.0,0.0,0.0,0.0,0.0,0.0,0.0,0.0,-0.9559,-0.9922,-1.0674,-1.0879,-1.137,-1.224,-1.3912,-1.497,-1.5353,-1.7392,-1.8125,-1.7577,-1.6774,-1.5151,-1.2857,-1.208,-1.119,-1.025,-0.9521,-0.9637,0.0,0.0,0.0,0.0,0.0,0.0,0.0,0.0,0.0,0.0,0.0,0.0,0.0,0.0,0.0,0.0,-1.9096,-1.9243,-1.9173,-1.9334,-2.0305,-2.134,-2.1531,-2.2225,-2.307,-2.3768,-2.3815,0.0,0.0,0.0,0.0,0.0,0.0,0.0,0.0,0.0,0.0,0.0,0.0,0.0,0.0,0.0,0.0,0.0,0.0,0.0,0.0,0.0,0.0,0.0,0.0,0.0,0.0,0.0,0.0,-4.3222,-4.3406,-4.3497,-4.3497,-4.3497,-4.3497,-4.3497,-4.3497,-4.3589,-4.3773,-4.3773,-4.3883,-4.4031,-4.4031,-4.4031,-4.4051,-4.462,-4.4839,-4.4948,-4.6036,-4.6452,-4.6542,0.0,0.0,0.0,0.0,0.0,0.0,0.0,0.0,0.0,0.0,0.0,0.0,0.0,0.0,0.0,0.0,0.0,0.0,0.0,-0.9559,-0.9932,-1.0663,-1.137,-1.2413,-1.3891,-1.332,-1.4104,-1.6393,-1.6522,-1.6916,-1.7575,-1.6791,-1.5154,-1.287,-1.2121,-1.0895,-0.9383,-0.932,-0.9329,-0.9451,-1.0073,0.0,0.0,0.0,0.0,0.0,0.0,0.0,0.0,0.0,0.0,0.0,0.0,0.0,-1.8341,-1.9084,-1.8867,-1.8703,-2.0089,-2.0013,-2.0047,-2.2385,-2.2886,-2.3378,-2.5576,-2.4743,0.0,-2.7803,0.0,0.0,0.0,0.0,0.0,0.0,0.0,0.0,0.0,0.0,0.0,0.0,0.0,0.0,0.0,0.0,0.0,0.0,0.0,0.0,0.0,0.0,0.0,0.0,0.0,0.0,-4.2396,-4.313,-4.3497,-4.3497,-4.3497,-4.3497,-4.3497,-4.3497,-4.3901,-4.4617,-4.4617,-4.4985,-4.5608,-4.5608,-4.557,-4.5457,-4.553,-4.551,-4.5528,-4.5638,-4.5692,-4.5692,0.0,0.0,0.0,0.0,0.0,0.0,0.0,0.0,0.0,0.0,0.0,0.0,0.0,0.0,0.0,0.0,0.0,0.0,0.0,-0.956,-0.9923,-1.0664,-1.1367,-1.2025,-1.2669,-1.4677,-1.6176,-1.7063,-1.7577,-1.7471,-1.6762,-1.6015,-1.4633,-1.2706,-1.1535,-1.0639,-1.0037,-1.0009,-1.0263,-1.0742,-1.1029,0.0,0.0,0.0,0.0,0.0,0.0,0.0,0.0,0.0,-1.2176,-1.3948,-1.494,-1.6614,-1.8249,-1.8521,-1.8378,-1.8339,-1.9326,-1.9991,-2.0606,-2.1409,-2.221,0.0,0.0,-2.5589,-2.6172,-2.786,-2.8808,0.0,0.0,0.0,0.0,0.0,0.0,0.0,0.0,0.0,0.0,0.0,0.0,0.0,0.0,0.0,0.0,0.0,0.0,0.0,0.0,0.0,0.0,0.0,0.0,0.0,0.0,-4.2664,-4.2775,-4.3123,-4.3375,-4.3497,-4.3497,-4.3497,-4.3663,-4.3956,-4.3956,-4.4121,-4.4344,-4.4236,-4.4236,-4.4363,-4.4803,-4.524,-4.5601,-4.5601,-4.5601,-4.564,0.0,0.0,0.0,0.0,0.0,0.0,0.0,0.0,0.0,0.0,0.0,0.0,0.0,0.0,0.0,0.0,0.0,0.0,-0.95,-0.957,-0.9924,-1.0637,-1.1126,-1.1607,-1.2114,-1.5178,-1.6762,-1.6711,-1.7984,-1.7807,-1.627,-1.5494,-1.4279,-1.271,-1.1447,-1.1016,-1.1206,-1.0926,-1.1247,-1.1943,-1.1965,-1.1505,0.0,0.0,0.0,0.0,0.0,0.0,0.0,0.0,-1.1817,-1.3466,-1.4574,-1.6214,-1.7821,-1.8107,-1.8078,-1.8109,-1.8779,-1.9577,-2.0395,-2.0969,0.0,0.0,-2.4646,-2.5596,-2.6764,-2.8787,-3.0335,0.0,0.0,0.0,0.0,0.0,0.0,0.0,0.0,0.0,0.0,0.0,0.0,0.0,0.0,0.0,0.0,0.0,0.0,0.0,0.0,0.0,0.0,0.0,0.0,0.0,0.0,-4.245,-4.2505,-4.2882,-4.3196,-4.3304,-4.3304,-4.3304,-4.3304,-4.3304,-4.3304,-4.3304,-4.3304,-4.316,-4.3196,-4.3359,-4.3944,-4.4381,-4.4742,-4.4836,-4.4836,-4.4798,0.0,0.0,0.0,0.0,0.0,0.0,0.0,0.0,0.0,0.0,0.0,0.0,0.0,0.0,0.0,0.0,0.0,0.0,-0.95,-0.957,-0.9888,-1.056,-1.0663,-1.1349,-1.2763,-1.4353,-1.5198,-1.5211,-1.7344,-1.7659,-1.6267,-1.5347,-1.4191,-1.2875,-1.2073,-1.2119,-1.2753,-1.2025,-1.2102,-1.271,-1.2776,-1.231,0.0,0.0,0.0,0.0,0.0,0.0,0.0,0.0,-1.3038,-1.3618,-1.7072,-1.7546,-1.699,-1.7914,-1.8049,-1.8063,-1.8728,-1.8662,-1.9009,0.0,0.0,0.0,-2.462,-2.4705,-2.5939,-3.1218,0.0,-3.0743,0.0,0.0,0.0,0.0,0.0,0.0,0.0,0.0,0.0,0.0,0.0,0.0,0.0,0.0,0.0,0.0,0.0,0.0,0.0,0.0,0.0,0.0,0.0,0.0,0.0,-4.2502,-4.2882,-4.2882,-4.2882,-4.29,-4.2882,-4.2882,-4.2882,-4.2882,-4.2882,-4.2882,-4.2882,-4.2882,-4.2882,-4.292,-4.3123,-4.3087,-4.2938,-4.3123,-4.316,-4.3104,0.0,0.0,0.0,0.0,0.0,0.0,0.0,0.0,0.0,0.0,0.0,0.0,0.0,0.0,0.0,0.0,0.0,0.0,-0.95,-0.9517,-0.9644,-0.9888,-1.0375,-1.0849,-1.1305,-1.2806,-1.4346,-1.5901,-1.7045,-1.6869,-1.5377,-1.51,-1.4485,-1.3577,-1.3289,-1.3037,-1.2818,-1.3076,-1.3324,-1.3546,-1.3503,-1.27,-1.1614,0.0,0.0,0.0,0.0,0.0,0.0,0.0,0.0,0.0,-1.4447,-1.642,-1.8416,-1.7315,-1.7765,-1.8622,-1.8664,-1.9205,0.0,0.0,0.0,0.0,0.0,-2.6292,0.0,0.0,0.0,0.0,0.0,0.0,0.0,0.0,0.0,0.0,0.0,0.0,0.0,0.0,0.0,0.0,0.0,0.0,0.0,0.0,0.0,0.0,0.0,0.0,0.0,0.0,0.0,0.0,0.0,-4.1794,-4.2034,-4.2472,-4.2472,-4.2631,-4.2882,-4.2882,-4.2882,-4.29,-4.2994,-4.3049,-4.3049,-4.3105,-4.305,-4.292,-4.3123,-4.316,-4.3123,-4.316,-4.3178,-4.3178,0.0,0.0,0.0,0.0,0.0,0.0,0.0,0.0,0.0,0.0,-0.9143,-0.9231,0.0,0.0,0.0,0.0,0.0,0.0,0.0,-0.95,-0.9535,-0.9605,-0.9988,-1.0625,-1.1506,-1.2702,-1.3952,-1.5289,-1.5729,-1.5483,-1.4555,-1.4837,-1.4749,-1.4362,-1.4595,-1.4322,-1.364,-1.3745,-1.3994,-1.4267,-1.3929,-1.3235,-1.2383,0.0,0.0,0.0,0.0,0.0,0.0,0.0,0.0,0.0,-1.3436,0.0,-1.6387,-1.6884,-1.7271,-1.7824,-1.8999,0.0,0.0,0.0,0.0,0.0,0.0,0.0,0.0,0.0,0.0,0.0,0.0,0.0,0.0,0.0,0.0,0.0,0.0,0.0,0.0,0.0,0.0,0.0,0.0,0.0,0.0,0.0,0.0,0.0,0.0,0.0,0.0,0.0,0.0,0.0,0.0,-4.1258,-4.1421,-4.2002,-4.2002,-4.221,-4.267,-4.267,-4.267,-4.267,-4.2727,-4.2822,-4.2878,-4.2918,-4.29,-4.2786,-4.3013,-4.3013,-4.2975,-4.305,-4.305,-4.3031,0.0,0.0,0.0,0.0,0.0,0.0,0.0,0.0,0.0,0.0,-0.9081,-0.9194,0.0,0.0,0.0,0.0,0.0,0.0,0.0,-0.95,-0.9535,-0.9587,-0.9715,-1.0741,-1.275,-1.3401,-1.3689,-1.3701,-1.3757,-1.3792,-1.381,-1.4544,-1.4929,-1.5013,-1.5766,-1.5606,-1.4757,-1.4076,-1.4094,-1.4541,-1.3926,-1.3569,-1.3315,-1.2713,0.0,0.0,0.0,0.0,0.0,0.0,0.0,0.0,-1.3381,-1.3082,-1.2602,-1.6394,-1.6677,-1.6416,-1.9447,0.0,0.0,0.0,0.0,0.0,0.0,0.0,0.0,0.0,0.0,0.0,0.0,0.0,0.0,0.0,0.0,0.0,0.0,0.0,0.0,0.0,0.0,0.0,0.0,0.0,0.0,0.0,0.0,0.0,0.0,0.0,0.0,0.0,0.0,0.0,-4.0707,-4.0802,-4.1019,0.0,-4.1445,-4.1666,-4.2145,-4.2246,-4.2287,-4.2328,-4.2328,-4.2387,-4.2486,-4.257,-4.2609,-4.2609,-4.2824,-4.2747,-4.2609,-4.2786,-4.2804,-4.2745,0.0,0.0,0.0,0.0,0.0,0.0,0.0,0.0,0.0,0.0,0.0,0.0,0.0,0.0,0.0,0.0,0.0,0.0,0.0,-0.95,-0.9508,-0.9517,-1.0576,-1.1671,-1.2776,-1.2391,-1.2173,-1.2178,-1.2697,-1.2955,-1.299,-1.4298,-1.4912,-1.4948,-1.5697,-1.5278,-1.4023,-1.3811,-1.313,-1.2275,-1.2683,-1.2116,-1.1078,-1.1437,-1.1015,0.0,0.0,0.0,0.0,0.0,0.0,0.0,-1.1984,-1.2854,-1.3992,-1.5062,-1.6479,-1.7948,0.0,-2.0569,0.0,0.0,0.0,0.0,0.0,0.0,0.0,0.0,0.0,0.0,0.0,0.0,0.0,0.0,0.0,0.0,0.0,0.0,0.0,0.0,0.0,0.0,0.0,0.0,0.0,0.0,0.0,0.0,0.0,0.0,0.0,0.0,0.0,0.0,-4.0153,-4.0611,-4.0849,0.0,-4.0943,-4.1036,-4.1174,-4.1959,-4.2346,-4.2463,-4.2463,-4.2526,-4.257,-4.2609,-4.2609,-4.2609,-4.2649,-4.2649,-4.257,-4.2351,-4.2269,-4.2228,0.0,0.0,0.0,0.0,0.0,0.0,0.0,0.0,0.0,0.0,0.0,0.0,0.0,0.0,0.0,0.0,0.0,0.0,0.0,-0.9474,-0.9456,-0.95,-1.0509,-1.1269,-1.1689,-1.1323,-1.1299,-1.1636,-1.1259,-1.1628,-1.2727,-1.4211,-1.5279,-1.5957,-1.5992,-1.5366,-1.4282,-1.3504,-1.2739,-1.2056,-1.2401,-1.2075,-1.1352,-1.1347,-1.0886,-1.0232,-1.022,0.0,0.0,0.0,0.0,0.0,0.0,0.0,-1.2626,-1.387,-1.5363,-1.698,0.0,0.0,0.0,0.0,0.0,0.0,0.0,0.0,0.0,0.0,0.0,0.0,0.0,0.0,0.0,0.0,0.0,0.0,0.0,0.0,0.0,0.0,0.0,0.0,0.0,0.0,0.0,0.0,0.0,0.0,0.0,0.0,0.0,0.0,0.0,-3.8757,-3.9057,-3.9362,-3.9831,-4.04,-4.04,-4.0546,-4.0849,-4.1596,-4.1831,-4.1701,-4.1917,-4.1941,-4.1803,-4.1803,-4.1803,-4.1888,-4.1888,-4.1888,-4.1846,-4.1735,-4.1709,-4.1709,0.0,0.0,0.0,0.0,0.0,0.0,0.0,0.0,0.0,0.0,0.0,0.0,0.0,0.0,0.0,0.0,0.0,0.0,0.0,-0.943,-0.9475,-0.9646,-1.0196,-1.0543,-1.0674,-1.0539,-1.0835,-1.1558,-1.0186,-1.0789,-1.3267,-1.4232,-1.5558,-1.7028,-1.6061,-1.5332,-1.4776,-1.2968,-1.2203,-1.2189,-1.2158,-1.2058,-1.1871,-1.1378,-1.083,-1.0279,-1.0227,-0.9944,-0.9626,-0.9927,0.0,0.0,0.0,0.0,-1.0637,-1.2814,-1.4093,-1.5349,0.0,0.0,0.0,0.0,0.0,0.0,0.0,0.0,0.0,0.0,0.0,0.0,0.0,0.0,0.0,0.0,0.0,0.0,0.0,0.0,0.0,0.0,0.0,0.0,0.0,0.0,0.0,0.0,0.0,0.0,0.0,0.0,0.0,0.0,0.0,-3.7298,-3.7752,-3.7873,-3.85,-3.9682,-3.98,-4.012,-4.0563,-4.1019,-4.1065,-4.0802,-4.1202,-4.1185,-4.0874,-4.0874,-4.0967,-4.1059,-4.1059,-4.1059,-4.1059,-4.1122,-4.1122,-4.1168,0.0,0.0,0.0,0.0,0.0,0.0,0.0,0.0,0.0,0.0,-0.8974,-0.9109,-0.9109,-0.9158,0.0,0.0,0.0,0.0,-0.9331,0.0,0.0,-1.0249,-1.0372,-1.0702,-1.1344,-1.0737,-1.0749,-1.1421,-1.0696,-1.2104,-1.5452,-1.4362,-1.4986,-1.6935,-1.4899,-1.431,-1.464,-1.1868,-1.0668,-1.0622,-1.0656,-1.0263,-0.9694,-1.0243,-1.0389,-1.0296,-1.0296,-1.0644,-1.0919,-0.973,-0.9743,0.0,0.0,0.0,0.0,0.0,-1.3599,-1.5105,0.0,0.0,0.0,0.0,0.0,0.0,0.0,0.0,0.0,0.0,0.0,0.0,0.0,0.0,0.0,0.0,0.0,0.0,0.0,0.0,0.0,0.0,0.0,0.0,0.0,0.0,0.0,0.0,0.0,0.0,0.0,0.0,-3.6042,-3.5943,-3.6569,-3.6896,-3.6875,-3.6891,-3.734,-3.8292,-3.901,-3.9415,-3.952,-3.9969,-4.04,-4.0802,-4.0849,-4.0832,-4.0784,-4.0784,-4.0832,-4.0832,-4.0832,-4.0832,-4.0832,-4.0594,-4.0546,-4.0497,0.0,0.0,0.0,0.0,0.0,0.0,0.0,0.0,0.0,0.0,0.0,-0.9109,-0.9109,-0.912,0.0,0.0,0.0,0.0,-0.9245,-0.9273,0.0,-0.9763,-0.9743,-0.9869,-1.0197,-0.9886,-1.0057,-1.0783,-1.0096,-1.1638,-1.5209,-1.4588,-1.5954,-1.881,-1.6631,-1.5575,-1.5262,-1.3115,-1.1486,-1.0383,-1.0767,-1.1225,-1.1568,-1.0197,-1.072,-1.1992,-1.0737,-1.0476,-1.0692,-1.0504,-1.0673,0.0,0.0,0.0,0.0,0.0,0.0,0.0,0.0,0.0,0.0,0.0,0.0,0.0,0.0,0.0,0.0,0.0,0.0,0.0,0.0,0.0,0.0,0.0,0.0,0.0,0.0,0.0,0.0,0.0,0.0,0.0,0.0,0.0,0.0,0.0,0.0,0.0,0.0,-3.5399,-3.5564,-3.5087,-3.5547,0.0,-3.6171,-3.6188,-3.66,-3.7392,-3.817,-3.8623,-3.8692,-3.932,-3.9747,-3.9986,-4.022,-4.022,-3.9952,-3.9952,-3.9952,-3.9952,-3.9952,-3.9952,-3.9935,-3.9901,-3.9952,-4.0003,0.0,0.0,0.0,0.0,0.0,0.0,0.0,0.0,0.0,0.0,0.0,0.0,-0.9039,0.0,0.0,0.0,0.0,0.0,-0.9167,0.0,0.0,0.0,-0.9231,-0.9201,-0.9201,-0.9201,-0.9547,-1.0273,-0.9717,-1.1339,-1.495,-1.5021,-1.7023,-2.0553,-1.8412,-1.6976,-1.6052,-1.4331,-1.2788,-1.152,-1.1806,-1.2621,-1.3461,-1.1599,-1.2266,-1.3882,-1.1655,-1.0966,-1.1058,0.0,0.0,0.0,0.0,0.0,0.0,0.0,0.0,0.0,0.0,0.0,0.0,0.0,0.0,0.0,0.0,0.0,0.0,0.0,0.0,0.0,0.0,0.0,0.0,0.0,0.0,0.0,0.0,0.0,0.0,0.0,0.0,0.0,0.0,0.0,0.0,0.0,0.0,0.0,-3.4772,-3.5267,-3.5268,-3.4562,-3.4739,-3.5068,-3.5465,-3.5712,-3.6075,-3.6567,-3.736,-3.7926,-3.8176,-3.8758,-3.9106,-3.9325,-3.9696,-3.9644,-3.9272,-3.9272,-3.9272,-3.9272,-3.9272,-3.9272,-3.9325,-3.9432,-3.9537,-3.9677,0.0,0.0,0.0,0.0,0.0,0.0,0.0,0.0,0.0,0.0,0.0,0.0,-0.8902,-0.8964,-0.9002,-0.9002,0.0,0.0,0.0,0.0,0.0,0.0,0.0,0.0,-0.9201,-0.9201,-0.9526,-1.022,-1.0175,-1.2018,-1.5639,-1.5641,-1.7673,-2.1165,-1.908,-1.7656,-1.6713,-1.4605,-1.3999,-1.4418,-1.3811,-1.3584,-1.3743,-1.5038,-1.5643,-1.547,-1.3206,-1.2877,0.0,0.0,0.0,0.0,0.0,-1.1062,-1.22,0.0,0.0,0.0,0.0,0.0,0.0,0.0,0.0,0.0,0.0,0.0,0.0,0.0,0.0,0.0,0.0,0.0,0.0,0.0,0.0,0.0,0.0,0.0,0.0,0.0,0.0,0.0,0.0,0.0,0.0,0.0,0.0,0.0,-3.4899,-3.4932,-3.4885,-3.4707,-3.4691,-3.4659,-3.4562,-3.5399,-3.5761,-3.566,-3.6653,-3.743,-3.8002,-3.8193,-3.8642,-3.9272,-3.9325,-3.9325,-3.9272,-3.9272,-3.9272,-3.9272,-3.9272,-3.9272,-3.9325,-3.9432,-3.9501,-3.9537,0.0,0.0,0.0,0.0,0.0,0.0,0.0,0.0,0.0,0.0,0.0,0.0,0.0,-0.8992,-0.9013,-0.9067,-0.9088,0.0,0.0,0.0,0.0,0.0,0.0,0.0,-0.914,-0.9188,-0.929,-0.9502,-0.9535,-1.0938,-1.3598,-1.4156,-1.5589,-1.7718,-1.7962,-1.791,-1.7475,-1.5776,-1.4624,-1.399,-1.4744,-1.5567,-1.6314,-1.5906,-1.6678,-1.7675,0.0,0.0,0.0,0.0,0.0,0.0,-1.3022,-1.3003,-1.3069,-1.2841,-1.371,0.0,0.0,0.0,0.0,0.0,0.0,0.0,0.0,0.0,0.0,0.0,0.0,0.0,0.0,0.0,0.0,0.0,0.0,0.0,0.0,0.0,0.0,0.0,0.0,0.0,0.0,0.0,0.0,0.0,0.0,0.0,-3.5041,-3.4947,-3.4899,-3.4851,-3.4851,-3.4739,-3.4643,-3.4955,-3.5086,-3.5054,-3.5894,-3.6422,-3.6703,-3.7182,-3.7793,-3.8593,-3.8487,-3.8788,-3.9272,-3.9272,-3.9272,-3.9272,-3.9272,-3.9272,-3.9325,-3.9325,-3.9448,-3.9501,0.0,0.0,0.0,0.0,0.0,0.0,0.0,0.0,-0.8863,-0.8925,0.0,0.0,0.0,0.0,-0.8992,-0.9063,-0.9067,-0.9067,-0.9067,-0.906,0.0,0.0,0.0,0.0,-0.9109,-0.9147,-0.9147,-0.9109,-0.9386,-1.0387,-1.2023,-1.2843,-1.411,-1.5699,-1.5983,-1.6809,-1.7893,-1.6912,-1.5901,-1.5044,-1.6322,-1.7411,-1.8217,-1.8063,-1.8915,-1.9962,0.0,0.0,0.0,0.0,0.0,0.0,-1.4511,-1.3989,-1.3412,-1.3192,-1.4115,-1.5201,-1.5271,0.0,0.0,0.0,0.0,0.0,0.0,0.0,0.0,0.0,0.0,0.0,0.0,0.0,0.0,0.0,0.0,0.0,0.0,0.0,0.0,0.0,0.0,0.0,0.0,0.0,0.0,0.0,0.0,0.0,-3.4187,-3.4107,-3.4223,-3.4518,-3.4767,-3.4851,-3.4756,-3.4756,-3.4739,-3.4707,-3.525,-3.5663,-3.596,-3.6406,-3.7034,-3.7744,-3.7992,-3.8557,-3.9272,-3.9272,-3.9272,-3.9272,-3.9272,-3.9272,-3.9272,-3.9272,-3.9342,-3.9448,0.0,0.0,0.0,0.0,0.0,0.0,0.0,0.0,-0.8717,-0.8781,0.0,0.0,0.0,0.0,0.0,-0.9027,-0.9032,-0.9026,-0.8992,-0.9007,-0.9022,0.0,0.0,0.0,-0.9099,-0.9099,-0.9099,-0.9099,-0.9818,-1.0506,-1.1182,-1.1904,-1.344,-1.5513,-1.3344,-1.4408,-1.781,-1.7781,-1.7793,-1.7862,0.0,-1.891,-1.9222,0.0,0.0,0.0,-2.0228,-1.9502,0.0,-1.6772,0.0,0.0,0.0,-1.3842,-1.3224,-1.3227,-1.3817,-1.453,0.0,0.0,0.0,0.0,0.0,0.0,0.0,0.0,0.0,0.0,0.0,0.0,0.0,0.0,0.0,0.0,0.0,0.0,0.0,0.0,0.0,0.0,0.0,0.0,0.0,0.0,0.0,0.0,0.0,-3.243,-3.2413,-3.2471,-3.2875,-3.374,-3.4468,-3.4866,-3.4866,-3.4883,-3.4851,-3.4707,-3.4851,-3.5232,-3.5762,-3.591,-3.6274,-3.6898,-3.7779,-3.856,-3.9239,-3.9272,-3.9272,-3.9272,-3.9272,-3.9272,-3.9272,-3.9272,-3.9272,-3.9325,0.0,0.0,0.0,0.0,0.0,-0.8717,-0.8781,-0.8776,-0.8771,0.0,0.0,0.0,-0.8863,-0.9365,-0.9699,-0.9728,-0.9716,-0.9513,-0.9038,-0.8959,-0.8936,-0.8964,-0.8964,-0.8964,-0.8964,-0.8964,-0.8974,-0.9024,-0.9241,-0.9726,-1.0484,-1.0729,-1.1713,-1.3209,-1.2656,-1.353,-1.5397,-1.4964,0.0,-1.7828,-1.8059,-1.9121,0.0,0.0,0.0,0.0,0.0,-2.1858,-2.1184,0.0,-1.9579,-1.8283,0.0,-1.4893,-1.3454,-1.4038,-1.5085,-1.5864,-1.4932,0.0,0.0,0.0,0.0,0.0,0.0,0.0,0.0,0.0,0.0,0.0,0.0,0.0,0.0,0.0,0.0,0.0,0.0,0.0,0.0,0.0,0.0,0.0,0.0,0.0,0.0,0.0,0.0,-3.2652,-3.2757,-3.2696,-3.2779,-3.2994,-3.3707,-3.4087,-3.4087,-3.4618,-3.4899,-3.4851,-3.4899,-3.4998,-3.5149,-3.5101,-3.5497,-3.6274,-3.622,-3.7061,-3.8543,-3.9056,-3.9272,-3.9272,-3.9272,-3.9272,-3.9272,-3.9272,-3.9272,-3.9325,0.0,0.0,0.0,-0.862,-0.889,-0.9093,-0.9168,-0.9174,-0.9183,0.0,0.0,0.0,-0.9273,-1.0235,-1.0591,-0.9967,-0.992,-0.9647,-0.901,-0.8925,-0.8891,-0.8891,-0.893,-0.8942,-0.8936,-0.8936,-0.8959,-0.9002,-0.9002,-0.9236,-0.9703,-0.9735,-1.0343,-1.1372,-1.111,-1.1935,-1.3498,-1.2863,0.0,0.0,-1.8398,0.0,0.0,-2.1441,-2.2135,0.0,0.0,0.0,-2.3144,-2.3127,-2.1888,0.0,0.0,0.0,-1.5241,-1.5094,-1.634,-1.7417,-1.5959,-1.6695,0.0,0.0,0.0,0.0,0.0,0.0,0.0,0.0,0.0,0.0,0.0,0.0,0.0,0.0,0.0,0.0,0.0,0.0,0.0,0.0,0.0,0.0,0.0,0.0,0.0,0.0,-3.1742,-3.1698,-3.1845,-3.1785,-3.1742,-3.1785,-3.2199,-3.2431,-3.2431,-3.3458,-3.3972,-3.3988,-3.4601,-3.4899,-3.4899,-3.4691,-3.4873,-3.5301,-3.5312,-3.5967,-3.711,-3.8236,-3.8937,-3.9272,-3.9272,-3.9272,-3.9272,-3.9272,-3.9272,-3.9272,0.0,0.0,-0.8269,-0.8634,-0.9213,-0.9656,-0.9812,-0.9814,-0.9844,0.0,-0.9509,-0.9509,-1.0258,-1.1411,-1.1579,-1.0283,-1.0018,-0.9675,-0.9054,-0.8936,-0.8897,-0.8897,-0.8947,-0.8976,-0.897,-0.897,-0.8981,-0.8981,-0.8993,-0.8998,-0.9001,-0.8996,-0.9353,-0.9952,-0.9291,-1.0156,-1.2037,-1.161,0.0,-1.6864,-1.8836,-1.9833,0.0,0.0,-2.2711,0.0,-2.3595,-2.4134,-2.472,-2.4563,-2.3042,0.0,0.0,0.0,0.0,-1.6475,-1.7569,-1.892,-1.7552,-1.8241,-1.931,0.0,0.0,0.0,0.0,-2.1078,0.0,0.0,0.0,0.0,0.0,0.0,0.0,0.0,0.0,0.0,0.0,0.0,0.0,0.0,0.0,0.0,0.0,0.0,0.0,-3.0443,-3.0316,-3.029,-3.0401,-3.0417,-3.0443,-3.0526,-3.0593,-3.0609,-3.0526,-3.1885,-3.2608,-3.2625,-3.3988,-3.47,-3.4783,-3.461,-3.4448,-3.4333,-3.4832,-3.5207,-3.5489,-3.6918,-3.813,-3.9172,-3.9239,-3.9272,-3.9272,-3.9272,-3.9272,-3.9272,0.0,-0.8346,-0.8689,-0.9306,-0.9555,-0.9894,-1.0483,-1.0531,-1.0529,-1.0597,-1.0974,-1.1745,-1.3059,-1.2909,-1.265,-1.2456,-1.1409,-1.0458,-0.9755,-0.915,-0.8816,-0.8816,-0.8828,-0.8828,-0.8845,-0.8845,-0.8863,-0.8931,-0.892,-0.8953,-0.9002,-0.9002,-0.9082,-0.92,-0.9069,-0.9867,-1.1386,0.0,0.0,-1.6596,-1.7125,0.0,-2.0834,-2.1147,-2.2022,-2.3143,-2.3775,-2.4445,-2.5013,0.0,-2.4011,-2.2521,0.0,0.0,0.0,0.0,0.0,-1.9299,-1.9061,-1.9678,-2.0082,0.0,0.0,0.0,0.0,-1.8783,0.0,0.0,0.0,0.0,0.0,0.0,0.0,0.0,0.0,0.0,0.0,0.0,0.0,0.0,0.0,0.0,0.0,0.0,-3.0651,-3.0651,-3.0526,-3.0443,-3.0485,-3.0485,-3.0526,-3.0651,-3.1233,-3.1249,-3.0651,-3.1532,-3.1981,-3.1981,-3.2757,-3.3442,-3.4024,-3.4492,-3.4594,-3.4448,-3.4246,-3.4651,-3.5407,-3.5372,-3.658,-3.8477,-3.9056,-3.9272,-3.9272,-3.9272,-3.9272,-3.9272,-0.8015,-0.8193,-0.853,-0.9273,-0.9766,-1.0315,-1.1133,-1.1205,-1.1336,-1.1743,-1.2773,-1.3593,-1.3969,-1.3985,-1.371,-1.2955,-1.1958,-1.0906,-0.9864,-0.9452,-0.9101,-0.8774,-0.8776,-0.88,-0.88,-0.8793,-0.8828,-0.8908,-0.8869,-0.8891,-0.8942,-0.8947,-0.933,-0.9982,-0.9605,-1.0434,-1.2138,0.0,-1.4017,-1.608,-1.771,0.0,-2.1026,-2.1368,-2.2132,-2.3129,-2.3815,-2.4746,-2.5609,-2.528,-2.4461,0.0,0.0,-2.2638,-2.1393,0.0,-2.0705,-2.1284,-2.0504,-2.0914,0.0,-2.0463,0.0,0.0,0.0,0.0,0.0,0.0,0.0,0.0,0.0,0.0,0.0,0.0,0.0,0.0,0.0,0.0,0.0,0.0,0.0,0.0,0.0,0.0,-2.957,-2.9609,-2.9805,-2.998,-3.0037,-2.998,-2.9963,-3.0045,-3.0037,-2.9871,-2.9546,-3.0236,-3.0584,-3.0626,-3.1636,-3.2458,-3.3156,-3.3629,-3.4007,-3.43,-3.3949,-3.4108,-3.4667,-3.4832,-3.5606,-3.6842,-3.8084,-3.8834,-3.9272,-3.9272,-3.9272,-3.9272,-0.7912,-0.7994,-0.8291,-0.9091,-0.9876,-1.0705,-1.1546,-1.1793,-1.218,-1.3045,-1.4335,-1.5114,-1.4778,-1.5157,-1.4957,-1.3815,-1.2741,-1.166,-1.0583,-1.0154,-0.9689,-0.9164,-0.8921,-0.8861,-0.9012,-0.8871,-0.8828,-0.8908,-0.8846,-0.8852,-0.8891,-0.8903,-0.958,-1.0788,-1.0311,-1.1291,-1.3252,0.0,0.0,-1.6398,0.0,-2.0093,-2.0629,-2.1446,-2.222,-2.2976,-2.3867,-2.5077,-2.609,-2.5346,0.0,-2.4511,-2.4526,-2.4173,0.0,0.0,0.0,0.0,0.0,0.0,0.0,0.0,0.0,-2.1775,0.0,0.0,0.0,-2.1424,0.0,0.0,0.0,0.0,0.0,0.0,0.0,0.0,0.0,0.0,0.0,0.0,0.0,0.0,0.0,0.0,-2.8135,-2.8455,-2.8677,-2.8976,-2.9353,-2.9407,-2.9417,-2.9457,-2.8923,-2.8586,-2.8572,-2.9048,-2.9263,-2.9218,-3.0582,-3.1545,-3.2077,-3.2722,-3.3356,-3.3856,-3.3799,-3.3797,-3.3947,-3.4526,-3.4952,-3.5367,-3.6967,-3.8101,-3.8874,-3.9023,-3.911,-3.9143,-0.7783,-0.8012,-0.8409,-0.9154,-0.9955,-1.0748,-1.15,-1.2122,-1.2963,-1.4234,-1.5129,-1.6102,-1.7327,-1.6959,-1.6825,-1.7362,-1.5113,-1.3599,-1.342,-1.1761,-1.0764,-1.0741,-0.9484,-0.9112,-0.9751,-0.9129,-0.8834,-0.8908,-0.8897,-0.8903,-0.8891,-0.8891,-0.933,-1.0142,-1.0648,0.0,0.0,0.0,-1.6037,0.0,-1.8952,-1.8901,0.0,-2.0417,-2.1371,-2.2209,-2.4249,-2.5508,-2.6104,0.0,-2.553,-2.5648,0.0,-2.4433,0.0,0.0,0.0,0.0,0.0,0.0,0.0,0.0,-2.2813,0.0,0.0,0.0,-2.1591,-2.0324,0.0,0.0,0.0,0.0,0.0,0.0,0.0,0.0,0.0,0.0,0.0,0.0,0.0,0.0,0.0,0.0,0.0,-2.8312,-2.7263,-2.7184,-2.8538,-2.9108,-2.948,-2.9655,-2.993,-2.9807,-2.9301,-2.9296,-2.9015,-2.8456,-2.9741,-3.0396,-3.05,-3.2299,-3.308,-3.3095,-3.3641,-3.3899,-3.3915,-3.3841,-3.4398,-3.5318,-3.6375,-3.696,-3.7279,-3.8044,-3.8432,-3.855,-0.7665,-0.7841,-0.8196,-0.8942,-0.9406,-1.0095,-1.13,-1.3145,-1.4492,-1.4674,-1.603,-1.721,-1.7844,0.0,0.0,0.0,0.0,-1.5197,0.0,0.0,-1.2375,-1.2003,-1.0648,-1.0053,-1.0363,-0.9639,-0.9131,-0.884,-0.884,-0.8863,-0.8903,-0.8936,-1.0018,-1.1933,-1.217,0.0,-1.6033,0.0,0.0,0.0,0.0,0.0,0.0,-2.0567,-2.184,-2.2609,-2.3967,-2.4944,-2.5574,0.0,-2.5414,0.0,0.0,0.0,0.0,0.0,0.0,0.0,0.0,0.0,0.0,0.0,0.0,0.0,0.0,0.0,-2.1317,0.0,0.0,0.0,0.0,0.0,0.0,0.0,0.0,0.0,0.0,0.0,0.0,0.0,0.0,0.0,0.0,0.0,0.0,0.0,0.0,-2.6057,-2.7161,-2.8289,-2.9065,-2.952,-2.9617,-2.9749,-2.998,-2.9362,-2.8919,-2.8633,-2.9146,-2.9567,-2.9902,-3.1096,-3.187,-3.2289,-3.2997,-3.3303,-3.3303,-3.3671,-3.4024,-3.4381,-3.4996,-3.5785,-3.6725,-3.7347,-3.7566,-3.7649,-0.7544,-0.765,-0.7916,-0.8498,-0.8849,-0.9603,-1.1284,-1.3561,-1.5011,-1.4798,-1.64,0.0,-1.7978,-1.7606,0.0,0.0,-1.7572,-1.6631,0.0,0.0,-1.3923,-1.3436,-1.2022,0.0,0.0,-1.0376,-0.9618,-0.9068,-0.8893,-0.8928,-0.9172,-0.9061,-1.0423,-1.2958,-1.3326,-1.4954,-1.7377,0.0,0.0,-1.7855,-1.8053,-1.8336,-1.8866,-2.0838,-2.2255,-2.3272,-2.3818,-2.4597,-2.5476,-2.5831,-2.5363,0.0,-2.543,0.0,0.0,0.0,0.0,0.0,-2.2538,0.0,0.0,0.0,0.0,0.0,0.0,0.0,0.0,0.0,0.0,0.0,0.0,0.0,0.0,0.0,0.0,0.0,0.0,0.0,0.0,0.0,0.0,0.0,0.0,0.0,0.0,0.0,0.0,0.0,-2.5963,-2.7228,-2.8206,-2.8882,-2.9041,-2.942,-3.0046,-2.9466,-2.9079,-2.8884,-2.901,-2.9184,-2.9419,-3.025,-3.094,-3.1516,-3.2273,-3.2691,-3.2934,-3.3466,-3.3738,-3.3848,-3.4,-3.4799,-3.5844,-3.6469,-3.6653,-3.6752,-0.7406,-0.7514,-0.765,-0.7812,-0.8423,-0.9583,-1.158,-1.2836,-1.3851,0.0,0.0,0.0,0.0,0.0,0.0,0.0,0.0,-1.788,-1.7614,0.0,-1.5251,-1.5214,-1.3563,-1.2673,0.0,-1.1368,-1.037,-0.9779,-0.9126,-0.9162,-0.9865,-0.9274,-1.008,-1.2107,-1.361,-1.5329,-1.7182,-1.8137,-1.9569,-2.1124,-1.9925,-2.0176,-2.1236,0.0,-2.2062,-2.3967,-2.3984,0.0,0.0,-2.5462,-2.5647,0.0,0.0,0.0,0.0,0.0,0.0,0.0,0.0,0.0,0.0,-2.2282,0.0,0.0,0.0,0.0,-2.2656,0.0,0.0,0.0,0.0,0.0,-2.075,-2.012,-2.0035,0.0,0.0,0.0,0.0,0.0,0.0,0.0,0.0,0.0,0.0,0.0,0.0,0.0,-2.5163,-2.5979,-2.6728,-2.7554,-2.8451,-2.9025,-2.9247,-2.9609,-2.948,-2.89,-2.9497,-2.9437,-2.8871,-3.0087,-3.0667,-3.0776,-3.15,-3.2321,-3.308,-3.3113,-3.3501,-3.4101,-3.4101,-3.4032,-3.4111,-3.5214,-3.5728,-3.5943,0.0,-0.8363,0.0,0.0,0.0,-0.941,-1.1678,-1.3922,0.0,0.0,0.0,0.0,0.0,0.0,-1.9022,0.0,0.0,-1.9362,-1.8803,-1.8033,0.0,0.0,0.0,-1.5035,0.0,0.0,-1.2084,-1.0994,-1.0327,-1.0143,-1.0431,-1.0269,-1.1111,-1.2804,0.0,-1.6005,0.0,0.0,0.0,0.0,0.0,-2.0279,-2.1509,0.0,0.0,-2.3014,-2.3555,-2.4323,0.0,-2.5402,-2.5307,-2.5149,-2.5075,-2.4767,-2.4392,-2.4354,-2.4293,0.0,0.0,0.0,-2.448,-2.3059,0.0,0.0,0.0,0.0,0.0,0.0,0.0,0.0,0.0,-2.1496,-2.0979,-2.0709,-1.9942,-1.8822,0.0,0.0,0.0,0.0,0.0,0.0,0.0,0.0,0.0,0.0,0.0,0.0,0.0,-2.488,-2.5894,-2.6607,-2.7844,-2.8697,-2.9132,-2.9642,-2.9756,-2.9415,-2.9641,-2.9553,-2.9271,-2.9707,-2.987,-2.9932,-3.0714,-3.1257,-3.1611,-3.2676,-3.3226,-3.3469,-3.3922,-3.405,-3.4083,-3.4676,-3.4808,-3.4922,-0.8392,0.0,0.0,0.0,0.0,0.0,0.0,0.0,0.0,0.0,-1.698,0.0,-1.8748,0.0,-1.8752,0.0,-1.9732,-1.9501,-1.8996,-1.8621,0.0,-1.8205,-1.7409,0.0,0.0,-1.4972,-1.3766,-1.2303,-1.1667,-1.1236,-1.1043,-1.0876,-1.1613,-1.3096,0.0,-1.6144,-1.7948,0.0,-1.9809,0.0,0.0,-2.0619,0.0,0.0,-2.2232,-2.293,0.0,-2.4356,-2.5017,-2.5475,-2.5281,-2.4956,-2.5459,-2.4972,-2.4324,-2.4758,-2.4691,-2.4425,-2.4179,-2.456,0.0,-2.3553,-2.3587,0.0,-2.2443,0.0,0.0,0.0,0.0,0.0,0.0,0.0,-2.1383,-2.1097,-2.0111,-1.8754,0.0,0.0,0.0,0.0,0.0,0.0,0.0,0.0,-1.8965,-2.0976,0.0,0.0,0.0,0.0,-2.5112,-2.5754,-2.7085,-2.7981,-2.8378,-2.9111,-2.947,-2.9399,-2.9613,-2.9697,-2.9653,-2.9608,-2.9563,-2.9595,-3.0057,-3.044,-3.0792,-3.2095,-3.2789,-3.3161,-3.3841,-3.4101,-3.4101,-3.43,-3.43,-3.4315,0.0,0.0,0.0,0.0,-1.042,0.0,0.0,0.0,-1.5088,0.0,-1.6406,-1.7294,-1.782,-1.7964,-1.8223,-1.8765,-1.862,0.0,-1.8344,-1.7998,0.0,0.0,-1.7768,-1.746,-1.7361,-1.6535,0.0,0.0,-1.3051,-1.2408,-1.177,-1.1156,-1.1614,-1.2967,-1.4443,0.0,-1.7049,-1.9289,-2.0615,-2.1215,-2.1262,-2.1262,-2.1263,-2.1887,0.0,-2.3647,-2.4272,-2.5033,-2.5718,-2.56,-2.5481,-2.5416,-2.5535,-2.5567,-2.5567,-2.5567,-2.5626,-2.5538,-2.4818,-2.4762,-2.4634,-2.3795,0.0,0.0,0.0,0.0,-2.3947,0.0,0.0,0.0,0.0,0.0,0.0,-2.1275,-2.0568,-1.9299,0.0,0.0,0.0,0.0,0.0,0.0,0.0,0.0,-1.8684,-2.1516,-1.993,0.0,0.0,0.0,0.0,-2.4942,-2.62,-2.6934,-2.7076,-2.807,-2.8672,-2.8806,-2.9399,-2.9738,-2.9918,-2.9786,-2.9697,-2.9697,-2.9563,-2.9977,-3.0712,-3.1515,-3.2289,-3.3113,-3.3825,-3.4101,-3.4101,-3.4101,-3.4101,-3.4101,-0.9377,-1.0037,-1.0818,0.0,-1.1336,-1.1556,0.0,0.0,0.0,0.0,-1.7093,-1.7754,-1.8539,-1.8351,-1.8307,-1.8769,-1.8808,0.0,0.0,0.0,0.0,-1.8891,-1.9165,-1.8901,-1.7988,-1.7119,0.0,-1.5448,0.0,0.0,-1.3099,-1.2434,-1.238,-1.2894,0.0,0.0,-1.7017,-1.8644,-2.0072,-2.1183,-2.1151,-2.1135,0.0,0.0,-2.2901,-2.3247,-2.3946,-2.4627,-2.5194,-2.5162,-2.5146,-2.5091,-2.5146,-2.5162,-2.5162,-2.5162,-2.5301,-2.546,-2.5266,-2.544,-2.553,-2.4857,-2.4744,-2.458,0.0,0.0,0.0,0.0,0.0,0.0,0.0,0.0,0.0,-2.1905,-2.0676,-1.9402,0.0,0.0,0.0,0.0,0.0,0.0,0.0,0.0,-1.8029,-1.9289,0.0,0.0,0.0,0.0,0.0,-2.4149,-2.5549,-2.6517,-2.6967,-2.7751,-2.8363,-2.879,-2.8984,-2.9356,-2.9918,-2.9858,-2.9786,-2.9697,-2.9786,-2.9839,-3.0052,-3.1385,-3.2062,-3.24,-3.3615,-3.4101,-3.4101,-3.4101,-3.4101,-3.4101,-1.0382,0.0,0.0,-1.3128,0.0,0.0,-1.3866,0.0,0.0,-1.6445,-1.695,0.0,-1.8064,-1.8101,-1.8149,-1.8372,-1.8436,0.0,0.0,0.0,0.0,-1.8745,-1.8997,-1.8912,-1.8454,-1.7978,0.0,-1.6422,0.0,0.0,-1.3557,-1.2935,-1.2662,-1.2764,0.0,-1.5487,0.0,-1.9039,-2.0398,-2.1151,-2.1119,0.0,0.0,-2.254,-2.3142,-2.3581,-2.4258,-2.4728,-2.5005,-2.5005,-2.5005,-2.5005,-2.5005,-2.5005,-2.5005,-2.5045,-2.5201,-2.5355,-2.5378,-2.5621,-2.5709,-2.5337,-2.531,-2.5184,-2.4495,-2.4677,-2.4893,0.0,0.0,0.0,0.0,0.0,0.0,-2.1725,-2.0548,0.0,0.0,0.0,0.0,0.0,0.0,0.0,0.0,0.0,0.0,0.0,0.0,0.0,0.0,0.0,0.0,-2.3567,-2.4781,-2.5713,-2.6319,-2.6958,-2.7591,-2.832,-2.8602,-2.9119,-2.9918,-2.9918,-2.983,-2.9697,-2.9786,-2.9786,-2.9778,-3.0965,-3.1674,-3.2141,-3.355,-3.4101,-3.4101,-3.4101,-3.4101,-3.4101,0.0,0.0,0.0,0.0,0.0,0.0,0.0,-1.4746,0.0,-1.6068,0.0,-1.6967,-1.7186,-1.761,-1.7882,-1.7882,0.0,-1.7909,-1.8002,-1.7949,-1.8029,-1.8279,-1.8161,-1.8279,-1.8798,-1.8712,0.0,0.0,0.0,-1.5006,-1.3371,-1.2904,-1.2614,0.0,0.0,0.0,0.0,-1.984,-2.1071,0.0,-2.1247,-2.1614,-2.2266,-2.2738,-2.3364,-2.4071,-2.4674,-2.4926,-2.5005,-2.5005,-2.5005,-2.5005,-2.5005,-2.5005,-2.5005,-2.5068,-2.5201,-2.5317,-2.5394,-2.5508,-2.56,-2.547,-2.5589,-2.5538,-2.4935,-2.4895,-2.5036,-2.5036,-2.4577,-2.4495,0.0,0.0,0.0,0.0,0.0,0.0,0.0,0.0,0.0,0.0,0.0,0.0,0.0,0.0,0.0,0.0,0.0,0.0,0.0,0.0,0.0,0.0,-2.391,0.0,-2.5454,0.0,-2.668,-2.7575,-2.8178,-2.8931,-2.9772,-2.987,-2.983,-2.9742,-2.9742,-2.9742,-2.979,-3.0422,-3.1304,-3.2271,-3.3599,-3.4101,-3.4101,-3.4101,-3.4101,-3.4101,0.0,0.0,0.0,0.0,0.0,-1.5883,-1.6417,-1.6086,-1.6009,-1.6602,-1.7261,0.0,-1.7759,-1.7854,-1.7882,-1.7882,-1.7882,0.0,0.0,0.0,0.0,-1.8228,-1.8347,-1.8503,-1.8711,-1.8186,-1.7516,0.0,-1.5506,-1.4188,-1.2768,-1.2664,-1.2357,0.0,0.0,0.0,-1.8683,-1.9801,0.0,-2.1935,-2.1935,-2.2248,-2.2769,-2.3056,-2.3211,-2.3467,-2.4178,-2.467,-2.5005,-2.5005,-2.5005,-2.5005,-2.5005,-2.5005,-2.5005,-2.5068,-2.5201,-2.5317,-2.5394,-2.553,-2.568,-2.5663,-2.5754,-2.5811,-2.5697,-2.5701,-2.5721,-2.5721,-2.5639,-2.5425,-2.5135,0.0,0.0,0.0,0.0,0.0,0.0,0.0,0.0,0.0,0.0,0.0,0.0,0.0,0.0,0.0,0.0,0.0,0.0,0.0,0.0,0.0,0.0,0.0,0.0,0.0,0.0,-2.6981,-2.7559,-2.8271,-2.9095,-2.9626,-2.9874,-2.9858,-2.9858,-2.9858,-2.9923,-3.059,-3.1657,-3.2983,-3.3777,-3.4101,-3.4101,-3.4101,-3.4101,-3.4101,0.0,0.0,0.0,0.0,0.0,0.0,0.0,-1.7011,0.0,-1.7049,-1.7231,-1.7368,-1.746,-1.7936,-1.818,-1.7909,-1.8368,-1.8421,-1.7923,-1.8208,-1.829,-1.8057,-1.8123,0.0,-1.8163,-1.7938,-1.7421,-1.6659,-1.5563,-1.4479,-1.3423,-1.2927,-1.2697,-1.2776,0.0,-1.696,0.0,0.0,0.0,-2.1368,-2.1455,-2.1951,-2.2701,-2.2823,-2.3076,-2.344,-2.383,-2.4078,-2.4369,-2.4846,-2.5005,-2.5005,-2.5005,-2.5005,-2.5045,-2.5162,-2.524,-2.5333,-2.5486,-2.5584,-2.5659,-2.5659,-2.5712,-2.5749,-2.5749,-2.5749,-2.5749,-2.5749,-2.5749,-2.5558,-2.4947,-2.4312,0.0,0.0,0.0,0.0,0.0,0.0,0.0,0.0,0.0,0.0,0.0,0.0,0.0,0.0,0.0,0.0,0.0,0.0,0.0,0.0,0.0,0.0,0.0,0.0,0.0,-2.6668,-2.7365,-2.8077,-2.889,-2.9578,-2.9918,-2.9918,-2.9918,-2.9918,-2.9967,-3.0635,-3.1558,-3.2595,-3.3307,-3.3793,-3.4101,-3.4101,-3.4101,-3.4101,0.0,-1.6382,0.0,0.0,-1.7131,0.0,0.0,-1.7892,-1.8028,-1.7515,-1.7202,-1.7126,-1.7392,-1.8125,-1.8461,-1.8072,-1.8712,-1.8859,-1.8099,-1.838,-1.8488,-1.8234,-1.8221,-1.8153,-1.799,-1.8072,-1.7628,0.0,0.0,-1.4933,-1.3989,-1.3299,-1.3368,0.0,0.0,0.0,0.0,0.0,-2.0388,-2.1113,-2.1243,-2.1873,-2.273,-2.2604,-2.2946,-2.3465,-2.3465,-2.3465,-2.3595,-2.441,-2.4766,-2.4886,-2.4966,-2.5005,-2.5045,-2.5256,-2.5294,-2.5333,-2.554,-2.5616,-2.5616,-2.5616,-2.5616,-2.5616,-2.5616,-2.5616,-2.5616,-2.5616,-2.5616,-2.5443,-2.4909,-2.4507,0.0,0.0,0.0,0.0,0.0,0.0,0.0,0.0,0.0,0.0,0.0,0.0,0.0,0.0,0.0,0.0,-1.7873,-1.8761,0.0,0.0,0.0,0.0,-2.3962,0.0,-2.5667,0.0,-2.7138,-2.7908,-2.8663,-2.9394,-2.98,-2.9902,-2.9946,-2.9946,-2.9967,-3.0635,-3.1267,-3.1866,-3.274,-3.342,-3.389,-3.4052,-3.4101,-3.4101,0.0,0.0,0.0,0.0,0.0,0.0,0.0,-1.8851,-1.8576,-1.7988,-1.7854,-1.7963,-1.8421,-1.8526,-1.858,-1.8526,-1.862,-1.8634,-1.8526,-1.8567,-1.8809,-1.9337,-1.935,-1.9239,-1.899,-1.8851,-1.8094,0.0,0.0,0.0,0.0,-1.3555,0.0,0.0,0.0,0.0,0.0,-1.9818,-2.0933,-2.2525,-2.2525,-2.2903,-2.3462,-2.301,-2.2921,-2.2979,-2.2979,-2.2979,-2.3024,-2.3551,-2.3994,-2.4426,-2.4886,-2.5005,-2.5045,-2.5256,-2.5294,-2.5333,-2.554,-2.5616,-2.5616,-2.5616,-2.5616,-2.5616,-2.5616,-2.5616,-2.5616,-2.5616,-2.5616,-2.5443,-2.4909,-2.5127,-2.5094,0.0,0.0,0.0,0.0,0.0,0.0,0.0,0.0,0.0,0.0,0.0,0.0,0.0,0.0,0.0,0.0,-1.8035,0.0,-2.1215,0.0,-2.3304,-2.3314,-2.4681,0.0,-2.5761,-2.6525,-2.728,-2.8101,-2.8837,-2.9482,-2.9973,-3.0119,-3.0103,-3.0038,-3.0635,-3.093,-3.1154,-3.2546,-3.3129,-3.3259,-3.3874,-3.4101,-3.4101,0.0,0.0,0.0,0.0,0.0,0.0,0.0,-1.9467,-1.9373,-1.91,-1.893,-1.8906,-1.9016,-1.9261,-1.9341,-1.9026,-1.9548,-1.9608,-1.9039,-1.9274,-1.9421,-1.9391,-1.9391,-1.9373,-1.935,-1.8954,-1.8317,0.0,0.0,0.0,0.0,0.0,0.0,0.0,0.0,-1.8842,-1.9435,-2.004,-2.0886,-2.1903,-2.1903,-2.225,-2.2754,-2.254,-2.2495,-2.2495,-2.2495,-2.2495,-2.254,-2.3024,-2.3508,-2.3909,-2.412,-2.4147,-2.4188,-2.4297,-2.4599,-2.4895,-2.5036,-2.5301,-2.5616,-2.5616,-2.5616,-2.5616,-2.5616,-2.5616,-2.5616,-2.5616,-2.5616,-2.5519,-2.5318,-2.5192,-2.4919,0.0,0.0,0.0,0.0,0.0,0.0,0.0,0.0,0.0,0.0,0.0,0.0,0.0,0.0,0.0,0.0,0.0,0.0,-2.0584,0.0,-2.3342,-2.3272,-2.4761,-2.5508,-2.553,-2.645,-2.7206,-2.7843,-2.8698,-2.9459,-3.0103,-3.0189,-3.0146,-3.0136,-3.0282,-3.0628,-3.1115,-3.2091,-3.2708,-3.3178,-3.3841,-3.4101,-3.4101,-1.9219,0.0,-1.881,0.0,-1.9451,-1.9355,-1.9956,-2.0038,-2.0096,-2.0185,-2.0066,-1.9879,-1.9613,-1.988,-1.9913,-1.9594,-2.017,-2.0254,-1.9607,-1.9847,-1.9932,-1.9787,-1.9787,0.0,-1.9691,-1.9289,-1.8838,-1.8303,-1.7462,0.0,0.0,0.0,0.0,0.0,-1.8993,-1.9623,-1.9721,-2.0401,-2.1064,-2.1583,-2.1629,-2.1837,-2.2184,-2.2184,-2.2184,-2.2184,-2.2184,-2.2184,-2.2263,-2.2572,-2.2934,-2.3246,-2.3508,-2.3595,-2.3595,-2.3694,-2.3991,-2.4364,-2.443,-2.4799,-2.5107,-2.5162,-2.5162,-2.5201,-2.5355,-2.5394,-2.5432,-2.5578,-2.5616,-2.5616,-2.5616,-2.509,-2.4609,-2.4294,0.0,0.0,0.0,0.0,0.0,0.0,0.0,-1.9617,0.0,0.0,0.0,0.0,0.0,0.0,0.0,0.0,0.0,0.0,0.0,0.0,0.0,-2.4931,-2.5584,-2.5492,-2.626,-2.7032,-2.7818,-2.8911,-2.9739,-3.0274,-3.0274,-3.0274,-3.0248,-3.0103,-3.0326,-3.088,-3.1732,-3.2367,-3.287,-3.3777,-3.4101,-3.4101,-1.882,-1.9325,-1.9809,-1.9954,-1.9867,-1.997,-2.0617,-2.0712,-2.0825,-2.1121,-2.1153,-2.0925,-2.0274,-2.0187,-2.0214,-2.0201,-2.0227,-2.0227,-2.0201,-2.0072,-2.0254,0.0,0.0,-2.0633,-2.0214,-2.0201,-1.98,-1.9074,0.0,0.0,-1.7518,0.0,-1.8742,-1.8919,-2.0229,-2.0827,-2.0913,-2.1108,-2.1517,-2.2016,-2.2123,-2.217,-2.2184,-2.2184,-2.2184,-2.2184,-2.2184,-2.2184,-2.2184,-2.2231,-2.2231,-2.2356,-2.329,-2.3595,-2.3595,-2.3694,-2.3694,-2.3736,-2.3879,-2.3921,-2.3964,-2.4078,-2.412,-2.4271,-2.4784,-2.4902,-2.5036,-2.5486,-2.5616,-2.5616,-2.5616,-2.5001,-2.4308,-2.3714,0.0,0.0,0.0,0.0,0.0,0.0,0.0,-1.8508,-1.8423,0.0,0.0,0.0,0.0,0.0,0.0,0.0,0.0,-2.228,-2.3124,0.0,-2.4195,-2.5179,-2.5701,-2.5701,-2.5901,-2.6709,-2.8059,-2.9517,-3.03,-3.0468,-3.0417,-3.0417,-3.0375,-3.0231,-3.0103,-3.0179,-3.1629,-3.2106,-3.219,-3.3582,-3.4101,-3.4101,-2.0087,-2.0187,-2.0286,-2.0738,-2.0759,-2.0874,-2.1159,-2.1186,-2.1206,-2.1299,-2.1277,-2.1113,-2.0912,-2.0801,-2.0766,0.0,-2.0766,-2.0766,0.0,-2.0647,-2.069,-2.0888,-2.0825,-2.0733,-2.0709,-2.0279,-1.9974,-1.983,0.0,0.0,0.0,-1.9275,-1.9444,-1.9606,-2.0492,-2.0882,-2.0923,-2.143,-2.1769,-2.1996,-2.1949,-2.1996,-2.2044,-2.2044,-2.2044,-2.2091,-2.2184,-2.2184,-2.2184,-2.2184,-2.2546,-2.2994,-2.3324,-2.3115,-2.2768,-2.2799,-2.3143,-2.3478,-2.3537,-2.3794,-2.4063,-2.4204,-2.4162,-2.4162,-2.441,-2.4719,-2.4942,-2.5075,-2.513,-2.513,-2.513,-2.4557,-2.3872,-2.3155,0.0,0.0,0.0,0.0,0.0,0.0,0.0,-1.9808,0.0,-1.8467,0.0,0.0,0.0,0.0,0.0,0.0,0.0,0.0,-2.2981,0.0,-2.441,-2.5359,-2.5791,-2.5701,-2.599,-2.6875,-2.8329,-2.9617,-3.0316,-3.0485,-3.0443,-3.0417,-3.0443,-3.0274,-3.0146,-3.0201,-3.0985,-3.1575,-3.2125,-3.3064,-3.3712,-3.4101,-2.0461,-2.0606,-2.0751,-2.1077,-2.118,-2.1229,-2.1326,-2.1375,-2.1423,-2.1423,-2.1326,-2.1277,-2.1277,-2.118,0.0,-2.1082,-2.1082,-2.1082,-2.1082,-2.101,-2.0924,-2.0924,-2.0861,-2.0861,-2.0924,0.0,0.0,-2.0454,-1.984,-1.9607,-1.9754,-1.9812,-2.0003,-2.0305,-2.0797,-2.1008,-2.1021,-2.1499,-2.1746,-2.1841,-2.1841,-2.1841,-2.1841,-2.1902,-2.1841,-2.1835,-2.2199,-2.2331,-2.2359,-2.2609,-2.3042,-2.3413,-2.3413,-2.3245,-2.3022,-2.2875,-2.3129,-2.3376,-2.3186,-2.329,-2.3566,-2.3711,-2.3668,-2.3711,-2.3952,-2.4354,-2.4679,-2.4679,-2.4784,-2.4902,-2.4902,-2.4274,-2.3606,-2.3124,-2.247,-2.1875,-2.1436,0.0,0.0,0.0,0.0,0.0,0.0,-1.947,0.0,0.0,0.0,0.0,0.0,0.0,0.0,-2.2182,-2.3177,0.0,-2.4903,-2.5579,-2.5844,-2.5791,-2.6512,-2.742,-2.8423,-2.9675,-3.0316,-3.0526,-3.0443,-3.0443,-3.0485,-3.0359,-3.0274,-3.0271,-3.0815,-3.1248,-3.172,-3.2724,-3.3356,-3.3761,-2.0078,-2.0673,0.0,0.0,-2.1095,0.0,-2.118,-2.1326,-2.1375,-2.1423,-2.1423,-2.1423,-2.1423,-2.1423,-2.1375,-2.1229,0.0,0.0,0.0,-2.1082,-2.0997,-2.0997,-2.0997,-2.0997,-2.0997,-2.0983,-2.0974,-2.0904,-2.0241,-1.9894,-1.9865,-2.0009,-2.0347,-2.0901,-2.1095,-2.118,-2.1229,-2.1471,-2.1582,-2.1671,-2.191,-2.189,-2.1739,-2.1883,-2.1739,-2.1613,-2.2319,-2.2574,-2.2656,-2.3348,-2.362,-2.3661,-2.3661,-2.397,-2.4226,-2.3706,-2.3555,-2.3474,-2.2901,-2.2701,-2.2732,-2.2853,-2.2824,-2.2917,-2.3436,-2.3909,-2.4261,-2.4261,-2.4558,-2.4823,-2.4823,-2.4021,-2.3393,-2.3393,-2.2215,-2.1277,-2.1309,0.0,0.0,0.0,0.0,0.0,0.0,-2.0152,-2.0574,0.0,0.0,0.0,0.0,0.0,-2.0107,-2.3588,-2.3666,-2.4297,-2.56,-2.5787,-2.5897,-2.595,-2.7339,-2.8145,-2.8423,-2.9658,-3.0316,-3.0526,-3.0485,-3.0468,-3.0468,-3.0468,-3.0359,-3.0254,-3.0942,-3.1059,-3.1043,-3.2498,-3.3048,-3.3194,0.0,0.0,-2.0861,-2.0924,-2.0938,-2.1023,-2.118,-2.1229,-2.1277,-2.1375,-2.1423,-2.1423,-2.1423,-2.1423,-2.1375,-2.1375,-2.1375,-2.1375,-2.1375,-2.1229,-2.1131,-2.1131,-2.1033,-2.0997,-2.0997,-2.0993,-2.0983,-2.098,-2.0772,-2.0693,-2.0617,-2.069,-2.0756,-2.0888,-2.101,-2.1082,-2.118,-2.1277,-2.1681,-2.2287,-2.2138,-2.2437,-2.2961,-2.3012,-2.2961,-2.2975,-2.3228,-2.332,-2.3348,-2.3551,-2.3986,-2.4465,-2.4465,-2.4959,-2.5286,-2.4325,-2.4247,-2.4476,-2.4332,-2.3879,-2.3472,-2.3627,-2.3264,-2.2902,-2.3023,-2.3436,-2.3782,-2.3782,-2.3852,-2.3921,-2.3921,-2.2884,-2.2164,-2.2518,-2.1679,-2.1071,-2.1324,-2.1402,0.0,0.0,-2.1128,-2.1063,-2.0959,-2.1152,-2.128,0.0,0.0,0.0,0.0,0.0,-2.2149,-2.3653,-2.4139,-2.4785,-2.5663,-2.5844,-2.597,-2.6148,-2.7602,-2.8334,-2.8423,-2.9758,-3.0401,-3.0485,-3.0443,-3.0401,-3.0401,-3.0316,-3.0189,-3.0076,-3.0256,-3.053,-3.104,-3.2024,-3.2707,-3.3194,-2.0646,-2.0699,-2.0712,-2.0775,-2.0838,-2.0938,-2.1073,-2.1095,-2.1118,-2.1188,-2.1251,-2.1313,-2.1334,-2.1348,-2.1423,-2.1423,-2.1423,-2.1423,-2.1423,-2.1326,-2.1277,-2.1277,-2.1229,-2.118,-2.118,-2.1202,-2.1166,-2.1063,-2.1033,-2.0983,-2.0951,-2.0938,-2.1106,-2.1358,-2.1116,-2.1179,-2.1532,-2.1582,-2.1857,-2.2332,-2.2617,-2.2929,-2.3214,-2.3266,-2.3214,-2.3202,-2.3593,-2.3755,-2.3796,-2.4108,-2.4518,-2.4819,-2.4819,-2.5232,-2.5617,-2.4987,-2.4958,-2.5013,-2.471,-2.4442,-2.4173,-2.3963,-2.363,-2.3296,-2.296,-2.3112,-2.326,-2.326,-2.3436,-2.3595,-2.3595,-2.2626,-2.1972,-2.2278,-2.1385,-2.0795,-2.1182,-2.1214,0.0,-2.1464,-2.1568,-2.173,-2.1937,-2.2118,-2.2135,-2.1954,0.0,0.0,-2.2,-2.2899,-2.3468,-2.3635,-2.4319,-2.5036,-2.5684,-2.5864,-2.6043,-2.6236,-2.764,-2.8334,-2.8439,-2.9799,-3.0443,-3.0526,-3.0443,-3.0443,-3.0443,-3.0359,-3.0231,-3.0103,-3.0103,-3.0233,-3.0538,-3.1342,-3.2026,-3.2692,-2.0699,-2.0699,-2.0699,-2.0699,-2.0775,-2.0888,-2.0901,-2.0961,-2.097,-2.1002,-2.1104,-2.1166,-2.1183,-2.1286,-2.1375,-2.1423,-2.1505,-2.1518,-2.1423,-2.1423,-2.1423,-2.1423,-2.1423,-2.1423,-2.1423,-2.1423,-2.1326,-2.1229,-2.1126,-2.1028,-2.1033,-2.1126,-2.1432,-2.1885,-2.1486,-2.1629,-2.2097,-2.2237,-2.2407,-2.2528,-2.3264,-2.3457,-2.3352,-2.3458,-2.3366,-2.3219,-2.385,-2.4039,-2.4175,-2.4786,-2.5005,-2.5005,-2.5005,-2.5188,-2.5439,-2.5439,-2.5448,-2.5322,-2.4767,-2.4819,-2.48,-2.4032,-2.3891,-2.3763,-2.3078,-2.2947,-2.2947,-2.2947,-2.3231,-2.348,-2.348,-2.2666,-2.211,-2.2353,-2.1224,-2.0496,-2.0975,0.0,-2.1087,-2.1517,-2.176,-2.2093,-2.259,-2.2801,-2.2892,-2.2883,-2.337,-2.3452,0.0,-2.4002,-2.4372,-2.3779,-2.4517,-2.517,-2.5738,-2.5901,-2.6063,-2.6236,-2.7564,-2.8295,-2.8439,-2.9799,-3.0443,-3.0526,-3.0526,-3.0468,-3.0468,-3.0468,-3.0359,-3.0189,-3.0231,-3.0119,-2.9999,-3.0713,-3.138,-3.2109,-2.0699,-2.0699,-2.0699,-2.0699,-2.0712,-2.0775,-2.0888,-2.0911,-2.0921,-2.0988,-2.1019,-2.1095,-2.1183,-2.1237,-2.1277,-2.1375,-2.1884,-2.1952,-2.145,-2.1423,-2.1423,-2.1423,-2.1423,-2.1423,-2.1423,-2.1423,-2.1375,-2.1375,-2.1361,-2.1264,-2.1193,-2.169,-2.192,-2.1925,-2.2612,-2.3011,-2.3092,-2.3248,-2.3639,-2.4212,-2.4216,-2.4491,-2.4887,-2.4887,-2.4776,-2.4678,-2.4772,-2.4813,-2.4827,-2.4978,-2.5005,-2.5005,-2.5005,-2.5061,-2.5075,-2.5075,-2.53,-2.5494,-2.564,-2.5497,-2.5034,-2.3874,-2.3811,-2.3871,-2.3228,-2.3082,-2.3082,-2.3082,-2.3037,-2.3023,-2.3023,-2.1987,-2.1461,-2.2284,-2.0977,-2.0208,-2.1055,0.0,-2.0782,-2.1365,-2.1412,-2.178,-2.2754,-2.2877,-2.3255,-2.4145,-2.4343,-2.4359,-2.4194,-2.4968,-2.5098,-2.4389,-2.5086,-2.5598,-2.5881,-2.5954,-2.6063,-2.6236,-2.7677,-2.8373,-2.8461,-2.9864,-3.0485,-3.0526,-3.0526,-3.0485,-3.0417,-3.0417,-3.0316,-3.0189,-3.0316,-3.0189,-3.0071,-3.0936,-3.1564,-3.2109,-2.0055,-2.0385,-2.0699,-2.0699,-2.0612,-2.0612,-2.0775,-2.0712,-2.0749,-2.0809,-2.0924,-2.0951,-2.1046,-2.1429,-2.1706,-2.1757,-2.2393,-2.2698,-2.2363,-2.2349,-2.2349,-2.2349,-2.2349,-2.2349,-2.2349,-2.1749,-2.1572,-2.1898,-2.201,-2.1798,-2.134,-2.2423,-2.291,-2.2769,-2.321,-2.3576,-2.3929,-2.3982,-2.4187,-2.4529,-2.4874,-2.5122,-2.5369,-2.5369,-2.5313,-2.5257,-2.5131,-2.5118,-2.5118,-2.5005,-2.5005,-2.5005,-2.5005,-2.5005,-2.5005,-2.5005,-2.5257,-2.555,-2.5853,-2.5805,-2.5388,-2.4177,-2.4012,-2.3933,-2.3196,-2.3008,-2.3008,-2.3082,-2.3037,-2.2992,-2.2902,-2.2164,-2.1679,-2.2184,-2.1051,0.0,0.0,-2.0887,-2.0941,-2.1463,-2.1833,-2.2325,-2.3039,-2.3219,-2.3538,-2.4191,-2.4633,-2.4681,-2.4243,-2.5142,-2.5422,-2.4842,-2.5352,-2.577,-2.5954,-2.5974,-2.6063,-2.6236,-2.7694,-2.8373,-2.8345,-2.9823,-3.0485,-3.0443,-3.0468,-3.0485,-3.0443,-3.0443,-3.0401,-3.0316,-3.0375,-3.0274,-3.0152,-3.0582,-3.1328,-3.2154,-1.9527,-2.0016,-2.0498,-2.0612,-2.0347,-2.0246,-2.0536,-2.0446,-2.037,-2.0549,-2.0701,-2.0777,-2.0801,-2.1336,-2.1836,-2.2022,-2.2602,-2.3094,-2.3378,-2.3392,-2.3337,-2.3189,-2.3189,-2.3189,-2.3189,-2.2309,-2.2065,-2.2522,-2.2692,-2.251,-2.192,-2.3303,-2.3851,-2.376,-2.395,-2.4267,-2.4695,-2.4762,-2.4762,-2.4804,-2.5356,-2.5592,-2.555,-2.555,-2.555,-2.5494,-2.5313,-2.53,-2.5244,-2.5131,-2.5075,-2.5061,-2.5061,-2.5005,-2.5005,-2.5005,-2.5188,-2.5425,-2.5619,-2.5729,-2.5586,-2.4517,-2.4275,-2.4028,-2.3198,-2.2915,-2.2859,-2.3023,-2.3037,-2.2992,-2.2902,-2.2425,-2.2076,-2.2217,0.0,0.0,0.0,-2.1106,-2.1242,-2.167,-2.2233,-2.2791,-2.332,-2.3492,-2.3724,-2.406,-2.4595,-2.4674,-2.4083,-2.4904,-2.5269,-2.5052,-2.546,-2.5811,-2.601,-2.5974,-2.6026,-2.6236,-2.764,-2.8295,-2.8306,-2.9782,-3.0443,-3.0417,-3.0485,-3.0526,-3.0526,-3.0526,-3.0485,-3.0401,-3.0401,-3.0359,-3.0248,-3.0248,-3.0964,-3.1984,-1.9423,-1.9592,-1.9823,-2.036,-1.9926,-1.9631,-2.0144,-1.9926,-1.9812,-2.0194,-2.0436,-2.0524,-2.0445,-2.0586,-2.1067,-2.1822,-2.2061,-2.2706,-2.392,-2.4055,-2.3757,-2.3202,-2.3189,-2.3189,-2.3189,-2.3124,-2.3097,-2.3121,-2.335,-2.3375,-2.3365,-2.4182,-2.454,-2.4567,-2.523,-2.5563,-2.5605,-2.5714,-2.5769,-2.5769,-2.5825,-2.5784,-2.5674,-2.5674,-2.5592,-2.5494,-2.5494,-2.5494,-2.5494,-2.5439,-2.5369,-2.5174,-2.5174,-2.5118,-2.5005,-2.5005,-2.5005,-2.5061,-2.5061,-2.53,-2.5329,-2.4652,-2.446,-2.4205,-2.3612,-2.2998,-2.2692,-2.2844,-2.2783,-2.2706,-2.2843,-2.2425,-2.2147,-2.2581,0.0,0.0,-2.1687,-2.1481,-2.1477,-2.1982,-2.2102,-2.2523,-2.346,-2.3608,-2.3794,-2.4225,-2.4313,-2.4328,-2.4266,-2.4354,-2.4574,-2.4902,-2.5422,-2.5811,-2.601,-2.5954,-2.6007,-2.6236,-2.7564,-2.8256,-2.8423,-2.9799,-3.0443,-3.0468,-3.0526,-3.0526,-3.0526,-3.0526,-3.0485,-3.0468,-3.0468,-3.0443,-3.0375,-3.0375,-3.0783,-3.1368,-1.7995,-1.8655,-1.9303,-1.9525,-1.9206,-1.9131,-1.965,-1.9506,-1.9291,-1.9136,-1.9182,-1.9384,-1.9761,-2.0243,-2.0821,-2.1457,-2.2485,-2.3125,-2.3272,-2.4094,-2.4515,-2.445,-2.419,-2.4229,-2.4627,-2.3902,-2.3697,-2.4051,-2.4226,-2.4086,-2.3671,-2.4866,-2.5171,-2.4743,-2.5504,-2.5839,-2.5839,-2.5893,-2.5893,-2.5893,-2.5893,-2.5893,-2.5839,-2.5839,-2.5784,-2.5743,-2.5605,-2.5592,-2.5522,-2.5397,-2.5354,-2.5256,-2.5131,-2.5061,-2.5005,-2.5005,-2.5061,-2.5118,-2.5005,-2.5174,-2.5149,-2.4653,-2.4574,-2.445,-2.3692,-2.3312,-2.3073,-2.2841,-2.2709,-2.2678,-2.2706,-2.2505,-2.2451,-2.2717,0.0,-2.1593,-2.1444,-2.1642,-2.1708,-2.1576,-2.2178,-2.2746,-2.3113,-2.3187,-2.3392,-2.3879,-2.3921,-2.3921,-2.3921,-2.3921,-2.4074,-2.4455,-2.4965,-2.5422,-2.5917,-2.5917,-2.6007,-2.622,-2.7177,-2.7795,-2.8178,-2.9263,-2.9972,-3.0316,-3.0443,-3.0526,-3.0526,-3.0526,-3.0526,-3.0526,-3.0526,-3.0468,-3.0443,-3.0443,-3.082,-3.1358,-1.7043,-1.781,-1.856,-1.8548,-1.8336,-1.8374,-1.8885,-1.8802,-1.8569,-1.8421,-1.8391,-1.8607,-1.9125,-1.9582,-2.0096,-2.0857,-2.1677,-2.2117,-2.2133,-2.3405,-2.445,-2.4991,-2.4929,-2.5025,-2.5369,-2.4612,-2.4484,-2.49,-2.5007,-2.4838,-2.4343,-2.5392,-2.5614,-2.5168,-2.5656,-2.5893,-2.5893,-2.5893,-2.5893,-2.5893,-2.5893,-2.5893,-2.5893,-2.5893,-2.5893,-2.5893,-2.5756,-2.5688,-2.5675,-2.5453,-2.5439,-2.5368,-2.5244,-2.5174,-2.5188,-2.523,-2.5093,-2.5039,-2.5175,-2.5093,-2.4957,-2.4778,-2.4693,-2.4598,-2.4035,-2.3745,-2.3467,-2.3001,-2.2858,-2.2769,-2.2644,-2.2615,-2.2615,-2.2735,-2.2392,-2.2019,-2.1756,-2.2004,-2.2106,-2.1756,-2.2381,-2.2797,-2.2797,-2.2857,-2.3023,-2.3377,-2.3465,-2.345,-2.3421,-2.3493,-2.3636,-2.3876,-2.4348,-2.4823,-2.5291,-2.5663,-2.5828,-2.5881,-2.6805,-2.7531,-2.8162,-2.8982,-2.9708,-3.0316,-3.0443,-3.0526,-3.0526,-3.0526,-3.0526,-3.0526,-3.0526,-3.0526,-3.0526,-3.0526,-3.0757,-3.11,-1.6772,-1.7211,-1.7634,-1.7545,-1.7313,-1.7379,-1.7974,-1.7686,-1.7534,-1.8045,-1.8216,-1.8423,-1.8744,-1.8473,-1.8753,-1.9955,-1.9221,-1.9251,-2.0633,-2.2009,-2.3306,-2.4536,-2.5147,-2.5356,-2.5005,-2.5313,-2.5494,-2.5494,-2.5633,-2.5729,-2.5729,-2.5839,-2.5893,-2.5893,-2.5893,-2.5893,-2.5893,-2.5893,-2.5893,-2.5893,-2.5893,-2.5893,-2.5893,-2.5893,-2.5893,-2.5893,-2.5893,-2.5893,-2.5879,-2.5672,-2.5645,-2.5729,-2.5729,-2.5592,-2.555,-2.5688,-2.5134,-2.468,-2.5507,-2.512,-2.464,-2.5079,-2.4833,-2.4555,-2.4769,-2.4347,-2.3783,-2.3384,-2.3195,-2.3011,-2.2683,-2.2615,-2.2615,-2.2615,-2.2615,-2.2615,-2.2781,-2.2675,-2.2661,-2.2795,-2.2675,-2.2615,-2.2615,-2.2735,-2.2809,-2.2809,-2.2872,-2.2857,-2.2809,-2.3038,-2.3172,-2.3172,-2.3666,-2.3933,-2.4013,-2.5105,-2.5519,-2.5221,-2.6493,-2.7531,-2.8406,-2.9015,-2.9725,-3.0526,-3.0526,-3.0526,-3.0526,-3.0526,-3.0526,-3.0526,-3.0526,-3.0526,-3.0526,-3.0526,-3.0526,-3.0485,-1.6909,-1.6976,-1.7145,-1.7457,-1.7433,-1.7409,-1.7457,-1.7367,-1.7173,-1.6928,-1.6941,-1.7153,-1.7621,-1.7612,-1.7845,-1.8632,-1.9022,-1.9769,-2.11,-2.1803,-2.2372,-2.2809,-2.4323,-2.523,-2.5369,-2.5439,-2.5592,-2.5798,-2.5839,-2.5839,-2.5839,-2.5893,-2.5893,-2.5893,-2.5893,-2.5893,-2.5893,-2.5893,-2.5893,-2.5893,-2.5893,-2.5893,-2.5893,-2.5893,-2.5893,-2.5893,-2.5893,-2.5921,-2.5909,-2.5812,-2.5813,-2.5827,-2.5619,-2.5592,-2.5633,-2.5592,-2.5453,-2.5397,-2.5536,-2.5439,-2.5397,-2.5522,-2.5425,-2.5284,-2.5026,-2.4787,-2.4531,-2.3949,-2.347,-2.309,-2.2955,-2.2621,-2.237,-2.2417,-2.2463,-2.2321,-2.1983,-2.2343,-2.2443,-2.2028,-2.2343,-2.2615,-2.2615,-2.2615,-2.2675,-2.2675,-2.2661,-2.2661,-2.2523,-2.2692,-2.2723,-2.2632,-2.3113,-2.3187,-2.286,-2.4168,-2.4792,-2.4768,-2.5577,-2.6623,-2.7859,-2.8392,-2.9287,-3.0443,-3.0485,-3.0526,-3.0526,-3.0526,-3.0526,-3.0526,-3.0526,-3.0526,-3.0526,-3.0526,-3.0526,-3.0485,-1.674,-1.6807,-1.6864,-1.7078,-1.7207,-1.7137,-1.6965,-1.6938,-1.6821,-1.6441,-1.6384,-1.6597,-1.7088,-1.7006,-1.7207,-1.7988,-1.8564,-1.9482,-2.0853,-2.1105,-2.1512,-2.2077,-2.3255,-2.4163,-2.4721,-2.4835,-2.5174,-2.5743,-2.5743,-2.5798,-2.5893,-2.5893,-2.5893,-2.5893,-2.5893,-2.5893,-2.5893,-2.5893,-2.5893,-2.5893,-2.5893,-2.5893,-2.5893,-2.5893,-2.5948,-2.6002,-2.6016,-2.6045,-2.6073,-2.6101,-2.6075,-2.6034,-2.5895,-2.5853,-2.5893,-2.5867,-2.5516,-2.518,-2.5324,-2.4978,-2.4713,-2.5308,-2.5548,-2.5576,-2.5121,-2.5163,-2.5163,-2.461,-2.3926,-2.3393,-2.314,-2.2592,-2.2231,-2.2324,-2.2324,-2.2243,-2.1951,-2.2235,-2.2321,-2.1951,-2.2235,-2.2417,-2.2417,-2.2509,-2.2555,-2.2615,-2.2555,-2.2509,-2.2417,-2.2417,-2.2417,-2.2324,-2.2586,-2.2586,-2.2324,-2.3216,-2.3806,-2.4074,-2.4792,-2.5688,-2.6719,-2.7421,-2.8387,-2.9518,-2.994,-3.0097,-3.0054,-3.0054,-2.9951,-2.9761,-2.9968,-3.0054,-3.0097,-3.0384,-3.0526,-3.0526,-1.6431,-1.6591,-1.6751,-1.6637,-1.6694,-1.6761,-1.6581,-1.657,-1.6591,-1.6493,-1.6462,-1.655,-1.6935,-1.6643,-1.6842,-1.784,-1.815,-1.8794,-2.0036,-2.0177,-2.0715,-2.1842,-2.1916,-2.2359,-2.3365,-2.3682,-2.4337,-2.5257,-2.5257,-2.537,-2.5631,-2.5742,-2.5742,-2.5755,-2.5865,-2.5893,-2.5893,-2.5893,-2.5851,-2.5755,-2.5879,-2.5851,-2.5755,-2.5879,-2.6002,-2.6071,-2.6167,-2.6275,-2.6315,-2.648,-2.6397,-2.634,-2.6272,-2.6286,-2.634,-2.6272,-2.5436,-2.4603,-2.5171,-2.4207,-2.3412,-2.4629,-2.5264,-2.545,-2.5163,-2.55,-2.5725,-2.5177,-2.4624,-2.4005,-2.3294,-2.2676,-2.224,-2.2184,-2.2184,-2.2231,-2.237,-2.2278,-2.2231,-2.237,-2.2278,-2.2184,-2.2184,-2.2324,-2.2417,-2.2555,-2.2463,-2.237,-2.237,-2.2278,-2.2184,-2.2184,-2.2184,-2.2184,-2.2184,-2.2417,-2.2768,-2.3172,-2.4074,-2.4761,-2.5284,-2.6283,-2.7249,-2.8075,-2.9086,-2.9435,-2.93,-2.93,-2.9011,-2.8623,-2.9102,-2.93,-2.9406,-3.0097,-3.0342,-3.0384,-1.6581,-1.6705,-1.6705,-1.6488,-1.6648,-1.6705,-1.6488,-1.6648,-1.6831,-1.7084,-1.6812,-1.6644,-1.6995,-1.6643,-1.6659,-1.7378,-1.839,-1.913,-1.9412,-1.9852,-2.0213,-2.0506,-2.0506,-2.0907,-2.1603,-2.2457,-2.311,-2.3559,-2.3559,-2.3515,-2.3398,-2.4369,-2.4693,-2.4627,-2.5506,-2.5893,-2.5893,-2.5893,-2.5382,-2.464,-2.552,-2.5368,-2.4654,-2.5534,-2.5893,-2.5962,-2.6307,-2.6443,-2.6443,-2.6508,-2.649,-2.6418,-2.6326,-2.6379,-2.6418,-2.6326,-2.6087,-2.5902,-2.6044,-2.5426,-2.4634,-2.4473,-2.4464,-2.4685,-2.5514,-2.5809,-2.5851,-2.5725,-2.5205,-2.4638,-2.4019,-2.3336,-2.2746,-2.2269,-2.2184,-2.2231,-2.2231,-2.2231,-2.2231,-2.2231,-2.2231,-2.2184,-2.2184,-2.2231,-2.2278,-2.2278,-2.2278,-2.2231,-2.2231,-2.2231,-2.2184,-2.2184,-2.2184,-2.2184,-2.2184,-2.2278,-2.2463,-2.2737,-2.3465,-2.4141,-2.4776,-2.5947,-2.6849,-2.7503,-2.8311,-2.8592,-2.8435,-2.8435,-2.8387,-2.8292,-2.8435,-2.8607,-2.8763,-2.8949,-2.9164,-2.9438,-1.6249,-1.6353,-1.641,-1.6306,-1.6581,-1.6705,-1.6534,-1.6751,-1.6949,-1.7032,-1.6842,-1.6732,-1.68,-1.6869,-1.7248,-1.8116,-1.9081,-1.9608,-1.9628,-1.9911,-2.0085,-2.0085,-2.0085,-2.026,-2.0642,-2.1129,-2.1842,-2.2797,-2.2797,-2.2827,-2.2832,-2.3476,-2.3754,-2.3651,-2.4155,-2.435,-2.4405,-2.4874,-2.4422,-2.3487,-2.464,-2.4409,-2.3474,-2.4069,-2.464,-2.5228,-2.5514,-2.6076,-2.6669,-2.6625,-2.6635,-2.6645,-2.6553,-2.6606,-2.6645,-2.6553,-2.6285,-2.5988,-2.5988,-2.5426,-2.4767,-2.4404,-2.4269,-2.4337,-2.492,-2.5247,-2.5542,-2.5837,-2.5402,-2.4797,-2.423,-2.3533,-2.2887,-2.2283,-2.2184,-2.2184,-2.2184,-2.2184,-2.2184,-2.2184,-2.2184,-2.2184,-2.2184,-2.2184,-2.2184,-2.2184,-2.2184,-2.2184,-2.2184,-2.2184,-2.2184,-2.2184,-2.2184,-2.2184,-2.2184,-2.2184,-2.2278,-2.2417,-2.2904,-2.3244,-2.3489,-2.4877,-2.5798,-2.6236,-2.7379,-2.7803,-2.7705,-2.7689,-2.7525,-2.7339,-2.7575,-2.7788,-2.7936,-2.8434,-2.8795,-2.9136,-1.5914,-1.6009,-1.6114,-1.6114,-1.6467,-1.6705,-1.6581,-1.6797,-1.6931,-1.6924,-1.686,-1.6814,-1.6916,-1.7445,-1.8223,-1.9143,-1.9727,-2.0085,-2.0085,-2.0085,-2.0085,-2.0085,-2.0085,-2.0085,-2.0085,-2.0085,-2.0764,-2.2163,-2.2163,-2.2262,-2.2466,-2.2637,-2.2637,-2.2454,-2.2673,-2.2764,-2.2821,-2.3625,-2.3322,-2.2333,-2.35,-2.3217,-2.2217,-2.243,-2.3178,-2.4081,-2.4228,-2.5124,-2.6261,-2.6381,-2.6467,-2.6472,-2.6477,-2.6573,-2.6698,-2.6529,-2.613,-2.5798,-2.5798,-2.525,-2.4676,-2.4576,-2.4454,-2.4347,-2.4295,-2.4582,-2.4994,-2.5612,-2.5331,-2.4826,-2.4371,-2.3737,-2.3104,-2.2437,-2.2301,-2.2231,-2.2184,-2.2184,-2.2184,-2.2184,-2.2184,-2.2184,-2.2184,-2.2184,-2.2184,-2.2184,-2.2184,-2.2184,-2.2184,-2.2184,-2.2184,-2.2184,-2.2184,-2.2184,-2.2184,-2.2184,-2.2184,-2.2184,-2.2417,-2.2417,-2.2273,-2.3692,-2.448,-2.4684,-2.6285,-2.6894,-2.6755,-2.6842,-2.6625,-2.6297,-2.673,-2.6923,-2.7078,-2.8015,-2.8607,-2.8889,-1.6056,-1.6114,-1.6114,-1.6114,-1.6306,-1.6431,-1.6431,-1.6648,-1.6956,-1.7371,-1.7073,-1.7184,-1.8137,-1.8754,-1.9141,-1.9208,-1.9727,-2.0085,-2.0085,-2.0085,-2.0085,-2.0085,-2.0085,-2.0085,-2.0085,-2.0085,-2.0205,-2.0453,-2.0453,-2.0344,-2.0285,-2.1299,-2.1202,-2.0285,-2.2126,-2.2946,-2.2959,-2.3124,-2.238,-2.1313,-2.2462,-2.2133,-2.1059,-2.2098,-2.2616,-2.279,-2.2911,-2.338,-2.3959,-2.4824,-2.5119,-2.5163,-2.5112,-2.5643,-2.6183,-2.5325,-2.5826,-2.6649,-2.6649,-2.6052,-2.5445,-2.5445,-2.4955,-2.4612,-2.5103,-2.4722,-2.4413,-2.498,-2.5036,-2.4952,-2.4868,-2.4436,-2.3837,-2.3069,-2.263,-2.2324,-2.2231,-2.2184,-2.2184,-2.2184,-2.2184,-2.2184,-2.2184,-2.2184,-2.2184,-2.2184,-2.2184,-2.2184,-2.2184,-2.2184,-2.2184,-2.2184,-2.2184,-2.2184,-2.2184,-2.2184,-2.2184,-2.2184,-2.2231,-2.2231,-2.2259,-2.3093,-2.3419,-2.3441,-2.4853,-2.5408,-2.5346,-2.583,-2.6042,-2.5934,-2.6042,-2.619,-2.6496,-2.7152,-2.768,-2.811,-1.6019,-1.6019,-1.6019,-1.6019,-1.6202,-1.6384,-1.6384,-1.6658,-1.6892,-1.7094,-1.6945,-1.713,-1.7992,-1.8971,-1.9717,-1.9982,-2.0213,-2.0292,-2.026,-2.0161,-2.0085,-2.0085,-2.0085,-2.0085,-2.0085,-2.0085,-2.0085,-2.0085,-2.0085,-2.0062,-1.9979,-2.049,-2.0467,-2.0031,-2.0873,-2.1292,-2.1292,-2.1813,-2.133,-2.0309,-2.1455,-2.121,-2.0145,-2.052,-2.1124,-2.1759,-2.2648,-2.2902,-2.2965,-2.3995,-2.4123,-2.3936,-2.4668,-2.4929,-2.4955,-2.4558,-2.4626,-2.4736,-2.4579,-2.4749,-2.4982,-2.4605,-2.4847,-2.507,-2.4948,-2.4619,-2.4489,-2.501,-2.4751,-2.4526,-2.4526,-2.4287,-2.3942,-2.3293,-2.3017,-2.2767,-2.2381,-2.2324,-2.2278,-2.2231,-2.2184,-2.2184,-2.2184,-2.2184,-2.2184,-2.2184,-2.2184,-2.2184,-2.2184,-2.2184,-2.2231,-2.2324,-2.2231,-2.2231,-2.2324,-2.2231,-2.2184,-2.2184,-2.2278,-2.2278,-2.2198,-2.2912,-2.3146,-2.3168,-2.4535,-2.5033,-2.5036,-2.564,-2.5893,-2.5893,-2.5893,-2.6042,-2.6336,-2.6616,-2.6916,-2.7261]}]]